[[{"header":{"parameterUnit":"m.s-1","parameterCategory":1,"la1":30.6,"la2":28.766,"lo1":-90.7593,"lo2":-88.6598,"dy":0.0162,"dx":0.0183,"nx":116,"ny":114,"refTime":"2023-06-13T06:00:00:Z","depth":0,"parameterNumber":2,"parameterNumberName":"U-component_of_WINDS"},"data":[0.0,0.0,0.0,0.0,0.0,0.0,0.0,0.0,0.0,0.0,0.0,0.0,0.0,0.0,0.0,0.0,0.0,0.0,0.0,0.0,0.0,0.0,0.0,0.0,0.0,0.0,0.0,0.0,0.0,0.0,0.0,0.0,0.0,0.0,0.0,0.0,0.0,0.0,0.0,0.0,0.0,0.0,0.0,0.0,0.0,0.0,0.0,0.0,0.0,0.0,0.0,0.0,0.0,0.0,0.0,0.0,0.0,0.0,0.0,0.0,0.0,0.0,0.0,0.0,0.0,0.0,0.0,0.0,0.0,0.0,0.0,0.0,0.0,0.0,0.0,0.0,0.0,0.0,0.0,0.0,0.0,0.0,0.0,0.0,0.0,0.0,0.0,0.0,0.0,0.0,0.0,0.0,0.0,0.0,0.0,0.0,0.0,0.0,0.0,0.0,0.0,0.0,0.0,0.0,0.0,0.0,0.0,0.0,0.0,0.0,0.0,0.0,0.0,0.0,0.0,0.0,0.0,0.0,0.0,0.0,0.0,0.0,0.0,0.0,0.0,0.0,0.0,0.0,0.0,0.0,0.0,0.0,0.0,0.0,0.0,0.0,0.0,0.0,0.0,0.0,0.0,0.0,0.0,0.0,0.0,0.0,0.0,0.0,0.0,0.0,0.0,0.0,0.0,0.0,0.0,0.0,0.0,0.0,0.0,0.0,0.0,0.0,0.0,0.0,0.0,0.0,0.0,0.0,0.0,0.0,0.0,0.0,0.0,0.0,0.0,0.0,0.0,0.0,0.0,0.0,0.0,0.0,0.0,0.0,0.0,0.0,0.0,0.0,0.0,0.0,0.0,0.0,0.0,0.0,0.0,0.0,0.0,0.0,0.0,0.0,0.0,0.0,0.0,0.0,0.0,0.0,0.0,0.0,0.0,0.0,0.0,0.0,0.0,0.0,0.0,0.0,0.0,0.0,0.0,0.0,0.0,0.0,0.0,0.0,0.0,0.0,0.0,0.0,0.0,0.0,0.0,0.0,0.0,0.0,0.0,0.0,0.0,0.0,0.0,0.0,0.0,0.0,0.0,0.0,0.0,0.0,0.0,0.0,0.0,0.0,0.0,0.0,0.0,0.0,0.0,0.0,0.0,0.0,0.0,0.0,0.0,0.0,0.0,0.0,0.0,0.0,0.0,0.0,0.0,0.0,0.0,0.0,0.0,0.0,0.0,0.0,0.0,0.0,0.0,0.0,0.0,0.0,0.0,0.0,0.0,0.0,0.0,0.0,0.0,0.0,0.0,0.0,0.0,0.0,0.0,0.0,0.0,0.0,0.0,0.0,0.0,0.0,0.0,0.0,0.0,0.0,0.0,0.0,0.0,0.0,0.0,0.0,0.0,0.0,0.0,0.0,0.0,0.0,0.0,0.0,0.0,0.0,0.0,0.0,0.0,0.0,0.0,0.0,0.0,0.0,0.0,0.0,0.0,0.0,0.0,0.0,0.0,0.0,0.0,0.0,0.0,0.0,0.0,0.0,0.0,0.0,0.0,0.0,0.0,0.0,0.0,0.0,0.0,0.0,0.0,0.0,0.0,0.0,0.0,0.0,0.0,0.0,0.0,0.0,0.0,0.0,0.0,0.0,0.0,0.0,0.0,0.0,0.0,0.0,0.0,0.0,0.0,0.0,0.0,0.0,0.0,0.0,0.0,0.0,0.0,0.0,0.0,0.0,0.0,0.0,0.0,0.0,0.0,0.0,0.0,0.0,0.0,0.0,0.0,0.0,0.0,0.0,0.0,0.0,0.0,0.0,0.0,0.0,0.0,0.0,0.0,0.0,0.0,0.0,0.0,0.0,0.0,0.0,0.0,0.0,0.0,0.0,0.0,0.0,0.0,0.0,0.0,0.0,0.0,0.0,0.0,0.0,0.0,0.0,0.0,0.0,0.0,0.0,0.0,0.0,0.0,0.0,0.0,0.0,0.0,0.0,0.0,0.0,0.0,0.0,0.0,0.0,0.0,0.0,0.0,0.0,0.0,0.0,0.0,0.0,0.0,0.0,0.0,0.0,0.0,0.0,0.0,0.0,0.0,0.0,0.0,0.0,0.0,0.0,0.0,0.0,0.0,0.0,0.0,0.0,0.0,0.0,0.0,0.0,0.0,0.0,0.0,0.0,0.0,0.0,0.0,0.0,0.0,0.0,0.0,0.0,0.0,0.0,0.0,0.0,0.0,0.0,0.0,0.0,0.0,0.0,0.0,0.0,0.0,0.0,0.0,0.0,0.0,0.0,0.0,0.0,0.0,0.0,0.0,0.0,0.0,0.0,0.0,0.0,0.0,0.0,0.0,0.0,0.0,0.0,0.0,0.0,0.0,0.0,0.0,0.0,0.0,0.0,0.0,0.0,0.0,0.0,0.0,0.0,0.0,0.0,0.0,0.0,0.0,0.0,0.0,0.0,0.0,0.0,0.0,0.0,0.0,0.0,0.0,0.0,0.0,0.0,0.0,0.0,0.0,0.0,0.0,0.0,0.0,0.0,0.0,0.0,0.0,0.0,0.0,0.0,0.0,0.0,0.0,0.0,0.0,0.0,0.0,0.0,0.0,0.0,0.0,0.0,0.0,0.0,0.0,0.0,0.0,0.0,0.0,0.0,0.0,0.0,0.0,0.0,0.0,0.0,0.0,0.0,0.0,0.0,0.0,0.0,0.0,0.0,0.0,0.0,0.0,0.0,0.0,0.0,0.0,0.0,0.0,0.0,0.0,0.0,0.0,0.0,0.0,0.0,0.0,0.0,0.0,0.0,0.0,0.0,0.0,0.0,0.0,0.0,0.0,0.0,0.0,0.0,0.0,0.0,0.0,0.0,0.0,0.0,0.0,0.0,0.0,0.0,0.0,0.0,0.0,0.0,0.0,0.0,0.0,0.0,0.0,0.0,0.0,0.0,0.0,0.0,0.0,0.0,0.0,0.0,0.0,0.0,0.0,0.0,0.0,0.0,0.0,0.0,0.0,0.0,0.0,0.0,0.0,0.0,0.0,0.0,0.0,0.0,0.0,0.0,0.0,0.0,0.0,0.0,0.0,0.0,0.0,0.0,0.0,0.0,0.0,0.0,0.0,0.0,0.0,0.0,0.0,0.0,0.0,0.0,0.0,0.0,0.0,0.0,0.0,0.0,0.0,0.0,0.0,0.0,0.0,0.0,0.0,0.0,0.0,0.0,0.0,0.0,0.0,0.0,0.0,0.0,0.0,0.0,0.0,0.0,0.0,0.0,0.0,0.0,0.0,0.0,0.0,0.0,0.0,0.0,0.0,0.0,0.0,0.0,0.0,0.0,0.0,0.0,0.0,0.0,0.0,0.0,0.0,0.0,0.0,0.0,0.0,0.0,0.0,0.0,0.0,0.0,0.0,0.0,0.0,0.0,0.0,0.0,0.0,0.0,0.0,0.0,0.0,0.0,0.0,0.0,0.0,0.0,0.0,0.0,0.0,0.0,0.0,0.0,0.0,0.0,0.0,0.0,0.0,0.0,0.0,0.0,0.0,0.0,0.0,0.0,0.0,0.0,0.0,0.0,0.0,0.0,0.0,0.0,0.0,0.0,0.0,0.0,0.0,0.0,0.0,0.0,0.0,0.0,0.0,0.0,0.0,0.0,0.0,0.0,0.0,0.0,0.0,0.0,0.0,0.0,0.0,0.0,0.0,0.0,0.0,0.0,0.0,0.0,0.0,0.0,0.0,0.0,0.0,0.0,0.0,0.0,0.0,0.0,0.0,0.0,0.0,0.0,0.0,0.0,0.0,0.0,0.0,0.0,0.0,0.0,0.0,0.0,0.0,0.0,0.0,0.0,0.0,0.0,0.0,0.0,0.0,0.0,0.0,0.0,0.0,0.0,0.0,0.0,0.0,0.0,0.0,0.0,0.0,0.0,0.0,0.0,0.0,0.0,0.0,0.0,0.0,0.0,0.0,0.0,0.0,0.0,0.0,0.0,0.0,0.0,0.0,0.0,0.0,0.0,0.0,0.0,0.0,0.0,0.0,0.0,0.0,0.0,0.0,0.0,0.0,0.0,0.0,0.0,0.0,0.0,0.0,0.0,0.0,0.0,0.0,0.0,0.0,0.0,0.0,0.0,0.0,0.0,0.0,0.0,0.0,0.0,0.0,0.0,0.0,0.0,0.0,0.0,0.0,0.0,0.0,0.0,0.0,0.0,0.0,0.0,0.0,0.0,0.0,0.0,0.0,0.0,0.0,0.0,0.0,0.0,0.0,0.0,0.0,0.0,0.0,0.0,0.0,0.0,0.0,0.0,0.0,0.0,0.0,0.0,0.0,0.0,0.0,0.0,0.0,0.0,0.0,0.0,0.0,0.0,0.0,0.0,0.0,0.0,0.0,0.0,0.0,0.0,0.0,0.0,0.0,0.0,0.0,0.0,0.0,0.0,0.0,0.0,0.0,0.0,0.0,0.0,0.0,0.0,0.0,0.0,0.0,0.0,0.0,0.0,0.0,0.0,0.0,0.0,0.0,0.0,0.0,0.0,0.0,0.0,0.0,0.0,0.0,0.0,0.0,0.0,0.0,0.0,0.0,0.0,0.0,0.0,0.0,0.0,0.0,0.0,0.0,0.0,0.0,0.0,0.0,0.0,0.0,0.0,0.0,0.0,0.0,0.0,0.0,0.0,0.0,0.0,0.0,0.0,0.0,0.0,0.0,0.0,0.0,0.0,0.0,0.0,0.0,0.0,0.0,0.0,0.0,0.0,0.0,0.0,0.0,0.0,0.0,0.0,0.0,0.0,0.0,0.0,0.0,0.0,0.0,0.0,0.0,0.0,0.0,0.0,0.0,0.0,0.0,0.0,0.0,0.0,0.0,0.0,0.0,0.0,0.0,0.0,0.0,0.0,0.0,0.0,0.0,0.0,0.0,0.0,0.0,0.0,0.0,0.0,0.0,0.0,0.0,0.0,0.0,0.0,0.0,0.0,0.0,0.0,0.0,0.0,0.0,0.0,0.0,0.0,0.0,0.0,0.0,0.0,0.0,0.0,0.0,0.0,0.0,0.0,0.0,0.0,0.0,0.0,0.0,0.0,0.0,0.0,0.0,0.0,0.0,0.0,0.0,0.0,0.0,0.0,0.0,0.0,0.0,0.0,0.0,0.0,0.0,0.0,0.0,0.0,0.0,0.0,0.0,0.0,0.0,0.0,0.0,0.0,0.0,0.0,0.0,0.0,0.0,0.0,0.0,0.0,0.0,0.0,0.0,0.0,0.0,0.0,0.0,0.0,0.0,0.0,0.0,0.0,0.0,0.0,0.0,0.0,0.0,0.0,0.0,0.0,0.0,0.0,0.0,0.0,0.0,0.0,0.0,0.0,0.0,0.0,0.0,0.0,0.0,0.0,0.0,0.0,0.0,0.0,0.0,0.0,0.0,0.0,0.0,0.0,0.0,0.0,0.0,0.0,0.0,0.0,0.0,0.0,0.0,0.0,0.0,0.0,0.0,0.0,0.0,0.0,0.0,0.0,0.0,0.0,0.0,0.0,0.0,0.0,0.0,0.0,0.0,0.0,0.0,0.0,0.0,0.0,0.0,0.0,0.0,0.0,0.0,0.0,0.0,0.0,0.0,0.0,0.0,0.0,0.0,0.0,0.0,0.0,0.0,0.0,0.0,0.0,0.0,0.0,0.0,0.0,0.0,0.0,0.0,0.0,0.0,0.0,0.0,0.0,0.0,0.0,0.0,0.0,0.0,0.0,0.0,0.0,0.0,0.0,0.0,0.0,0.0,0.0,0.0,0.0,0.0,0.0,0.0,0.0,0.0,0.0,0.0,0.0,0.0,0.0,0.0,0.0,0.0,0.0,0.0,0.0,0.0,0.0,0.0,0.0,0.0,0.0,0.0,0.0,0.0,0.0,0.0,0.0,0.0,0.0,0.0,0.0,0.0,0.0,0.0,0.0,0.0,0.0,0.0,0.0,0.0,0.0,0.0,0.0,0.0,0.0,0.0,0.0,0.0,0.0,0.0,0.0,0.0,0.0,0.0,0.0,0.0,0.0,0.0,0.0,0.0,0.0,0.0,0.0,0.0,0.0,0.0,0.0,0.0,0.0,0.0,0.0,0.0,0.0,-6.1351,0.0,0.0,0.0,0.0,0.0,0.0,0.0,0.0,0.0,0.0,0.0,0.0,0.0,0.0,0.0,0.0,0.0,0.0,0.0,0.0,0.0,0.0,0.0,0.0,0.0,0.0,0.0,0.0,0.0,0.0,0.0,0.0,0.0,0.0,0.0,0.0,0.0,0.0,0.0,0.0,0.0,0.0,0.0,0.0,0.0,0.0,0.0,0.0,0.0,0.0,0.0,0.0,0.0,0.0,0.0,0.0,0.0,0.0,0.0,0.0,0.0,0.0,0.0,0.0,0.0,0.0,0.0,0.0,0.0,0.0,0.0,0.0,0.0,0.0,0.0,0.0,0.0,0.0,0.0,0.0,0.0,0.0,0.0,0.0,0.0,0.0,0.0,0.0,0.0,0.0,0.0,0.0,0.0,0.0,0.0,0.0,0.0,0.0,0.0,0.0,0.0,0.0,0.0,0.0,0.0,0.0,0.0,0.0,0.0,0.0,0.0,0.0,0.0,0.0,0.0,0.0,-6.2345,0.0,0.0,0.0,0.0,0.0,0.0,0.0,0.0,0.0,0.0,0.0,0.0,0.0,0.0,0.0,0.0,0.0,0.0,0.0,0.0,0.0,0.0,0.0,0.0,0.0,0.0,0.0,0.0,0.0,0.0,0.0,0.0,0.0,0.0,0.0,0.0,0.0,0.0,0.0,0.0,0.0,0.0,0.0,0.0,0.0,0.0,0.0,0.0,0.0,0.0,0.0,0.0,0.0,0.0,0.0,0.0,0.0,0.0,0.0,0.0,0.0,0.0,0.0,0.0,0.0,0.0,0.0,0.0,0.0,0.0,0.0,0.0,0.0,0.0,0.0,0.0,0.0,0.0,0.0,0.0,0.0,0.0,0.0,0.0,0.0,0.0,0.0,0.0,0.0,0.0,0.0,0.0,0.0,0.0,0.0,0.0,0.0,0.0,0.0,0.0,0.0,0.0,0.0,0.0,0.0,0.0,0.0,0.0,0.0,-6.2387,-6.242,-6.3183,-6.3514,-6.3471,-6.3603,-6.357,-6.3471,0.0,0.0,0.0,0.0,0.0,0.0,0.0,0.0,0.0,0.0,0.0,0.0,0.0,0.0,0.0,0.0,0.0,0.0,0.0,0.0,0.0,0.0,0.0,0.0,0.0,0.0,0.0,0.0,0.0,0.0,0.0,0.0,0.0,0.0,0.0,0.0,0.0,0.0,0.0,-4.1324,-4.1324,-4.1324,-4.1324,-4.1324,0.0,0.0,0.0,0.0,0.0,0.0,0.0,0.0,0.0,0.0,0.0,0.0,0.0,0.0,0.0,0.0,0.0,0.0,0.0,0.0,0.0,0.0,0.0,0.0,0.0,0.0,0.0,0.0,0.0,0.0,0.0,0.0,0.0,0.0,0.0,0.0,0.0,0.0,0.0,0.0,0.0,0.0,0.0,-5.3324,-5.3982,0.0,0.0,0.0,0.0,0.0,0.0,0.0,0.0,0.0,0.0,0.0,0.0,0.0,0.0,-6.0953,-6.1682,-6.2056,-6.2089,-6.2818,-6.3183,-6.3183,-6.3945,-6.42,-6.42,-6.4862,0.0,-6.4167,-6.4233,0.0,0.0,0.0,0.0,0.0,0.0,0.0,0.0,0.0,0.0,0.0,0.0,0.0,0.0,0.0,0.0,0.0,0.0,0.0,0.0,0.0,0.0,0.0,0.0,0.0,0.0,0.0,0.0,0.0,0.0,0.0,0.0,0.0,0.0,0.0,0.0,-4.1324,-4.1324,-4.1324,-4.1324,-4.1324,-4.1324,-4.1324,-4.1324,-4.1324,-4.1324,0.0,0.0,0.0,0.0,0.0,0.0,0.0,0.0,0.0,0.0,0.0,0.0,0.0,0.0,0.0,0.0,0.0,0.0,0.0,0.0,0.0,0.0,0.0,0.0,0.0,0.0,0.0,0.0,0.0,0.0,0.0,0.0,0.0,0.0,0.0,0.0,0.0,0.0,0.0,-5.3593,-5.4012,-5.467,-5.476,-5.4978,0.0,0.0,0.0,0.0,0.0,0.0,0.0,0.0,0.0,-6.1086,-6.1483,-6.1715,-6.1715,-6.2453,-6.2818,-6.2851,-6.358,-6.3945,-6.3935,-6.463,-6.4962,-6.4962,-6.526,-6.5227,-6.4929,-6.4962,-6.5127,-6.5425,0.0,0.0,0.0,0.0,0.0,-6.204,0.0,0.0,0.0,0.0,0.0,0.0,0.0,0.0,0.0,0.0,0.0,0.0,0.0,0.0,0.0,-4.1374,0.0,0.0,0.0,0.0,0.0,0.0,0.0,0.0,0.0,0.0,0.0,0.0,-4.1324,-4.1324,-4.1324,-4.1324,-4.1324,-4.1324,-4.1324,-4.1324,-4.1324,-4.1324,-4.1402,0.0,0.0,0.0,0.0,0.0,0.0,0.0,0.0,0.0,0.0,0.0,0.0,0.0,0.0,0.0,0.0,0.0,0.0,0.0,0.0,0.0,0.0,0.0,0.0,0.0,0.0,0.0,0.0,0.0,0.0,0.0,0.0,0.0,0.0,0.0,0.0,0.0,0.0,-5.4461,-5.464,-5.5119,-5.5179,-5.527,0.0,0.0,0.0,0.0,0.0,0.0,-6.1077,-6.1119,-6.1185,-6.1384,-6.1881,-6.2288,-6.2487,-6.3216,-6.3614,-6.3614,-6.4299,-6.4664,-6.4664,-6.5194,-6.5425,-6.5425,-6.5425,-6.5425,-6.5425,-6.5425,-6.5213,-6.5033,-6.5033,-6.4407,-6.3436,-6.3196,-6.209,-6.065,0.0,0.0,0.0,0.0,0.0,0.0,0.0,0.0,0.0,0.0,0.0,0.0,0.0,0.0,0.0,-4.1324,-4.1324,-4.1324,0.0,0.0,0.0,0.0,0.0,0.0,0.0,0.0,0.0,-4.1324,-4.1324,-4.1324,-4.1324,-4.1324,-4.1324,-4.1324,-4.1324,-4.1324,-4.1324,-4.1324,-4.1638,-4.2159,0.0,0.0,0.0,0.0,0.0,0.0,0.0,0.0,0.0,0.0,0.0,0.0,0.0,0.0,0.0,0.0,0.0,0.0,0.0,0.0,0.0,0.0,0.0,0.0,0.0,0.0,0.0,0.0,0.0,0.0,0.0,0.0,0.0,0.0,0.0,0.0,0.0,0.0,0.0,-5.5179,-5.5179,0.0,0.0,0.0,0.0,-5.8053,-5.9113,-6.0054,-6.1077,-6.1119,-6.1417,-6.2122,-6.2188,-6.2553,-6.3249,-6.4011,-6.4332,-6.4332,-6.5028,-6.5359,-6.5359,-6.5392,-6.5425,-6.5425,-6.5425,-6.5425,-6.5425,-6.5425,-6.4852,-6.3988,-6.3988,-6.334,-6.2256,-6.1235,-6.0805,-6.0546,0.0,0.0,0.0,0.0,0.0,0.0,0.0,0.0,0.0,0.0,0.0,0.0,0.0,0.0,0.0,0.0,-4.1324,-4.1324,-4.1324,0.0,0.0,0.0,0.0,0.0,0.0,0.0,-4.1324,-4.1324,-4.1324,-4.1324,-4.1324,-4.1324,-4.1324,-4.1324,-4.1324,-4.1533,-4.1873,-4.1873,-4.1977,-4.2238,-4.2579,-4.284,0.0,0.0,0.0,0.0,0.0,0.0,0.0,0.0,0.0,0.0,0.0,0.0,0.0,0.0,0.0,0.0,0.0,0.0,0.0,0.0,0.0,0.0,0.0,0.0,0.0,0.0,0.0,0.0,0.0,0.0,0.0,0.0,0.0,0.0,0.0,0.0,0.0,-5.5179,-5.5179,0.0,-5.5179,-5.6066,-5.6735,-5.7086,-5.8664,-5.9945,-6.0783,-6.1485,-6.2146,-6.2884,-6.3382,-6.3746,-6.4001,-6.4697,-6.5028,-6.5061,-6.5293,-6.5425,-6.5425,-6.5922,-6.6121,-6.6154,-6.6618,-6.6371,-6.5698,-6.5698,-6.4988,-6.3847,-6.3148,-6.2238,-6.1235,-6.0825,-6.0233,-5.9606,0.0,0.0,0.0,0.0,0.0,0.0,0.0,0.0,0.0,0.0,0.0,0.0,0.0,0.0,0.0,0.0,0.0,0.0,0.0,0.0,0.0,0.0,0.0,0.0,0.0,-4.1324,-4.1324,-4.1324,-4.1324,-4.1324,-4.1324,-4.1324,-4.1324,-4.1324,-4.1507,-4.1821,-4.2238,-4.263,-4.2787,-4.2813,-4.3154,-4.3415,-4.3598,0.0,0.0,0.0,0.0,0.0,0.0,0.0,0.0,0.0,0.0,0.0,0.0,0.0,0.0,0.0,0.0,0.0,0.0,0.0,0.0,0.0,0.0,0.0,0.0,0.0,0.0,0.0,0.0,0.0,0.0,0.0,0.0,0.0,0.0,0.0,-5.5179,-5.5179,-5.5179,-5.5179,-5.5179,-5.6066,-5.659,-5.659,-5.8705,-6.017,-6.0656,-6.1906,-6.2917,-6.368,-6.41,-6.4498,-6.473,-6.5194,-6.5425,-6.5425,-6.5657,-6.579,-6.5823,-6.6552,-6.6837,-6.687,-6.701,-6.6609,-6.5821,-6.513,-6.4289,-6.3412,-6.2682,-6.1795,-6.0829,-6.0829,-6.0227,-5.9398,0.0,0.0,0.0,0.0,0.0,0.0,0.0,0.0,0.0,0.0,0.0,0.0,0.0,0.0,0.0,0.0,0.0,0.0,0.0,0.0,0.0,0.0,0.0,0.0,-4.1324,-4.1324,-4.1324,-4.1324,-4.1324,-4.1324,-4.1324,-4.1324,-4.1324,-4.135,-4.1899,-4.2238,-4.2316,-4.3389,-4.3939,-4.3885,-4.3885,-4.4225,-4.4668,0.0,0.0,0.0,0.0,0.0,0.0,0.0,0.0,0.0,0.0,0.0,0.0,0.0,0.0,0.0,0.0,0.0,0.0,0.0,0.0,0.0,0.0,0.0,0.0,0.0,0.0,0.0,0.0,0.0,0.0,0.0,0.0,0.0,-5.5179,-5.5179,-5.5179,-5.5179,-5.5179,-5.5179,-5.5179,-5.5986,-5.6541,-5.6572,-5.9058,-6.0643,-6.0708,-6.2355,-6.3637,-6.4399,-6.4365,-6.4697,-6.5392,-6.5425,-6.5425,-6.5459,-6.6187,-6.6519,-6.6585,-6.7268,-6.7553,-6.7506,-6.6402,-6.5885,-6.5689,-6.361,-6.2772,-6.2718,-6.2657,-6.2038,-6.1104,-6.1104,-6.0685,-6.0027,0.0,0.0,0.0,0.0,0.0,0.0,0.0,0.0,0.0,0.0,0.0,0.0,0.0,0.0,0.0,0.0,0.0,0.0,0.0,0.0,0.0,0.0,0.0,0.0,-4.1324,-4.1324,-4.1324,-4.1324,-4.1324,-4.1324,-4.1324,-4.1324,-4.1324,-4.135,-4.1899,-4.2396,-4.284,-4.3572,-4.4121,-4.4487,-4.4487,-4.4591,-4.4668,0.0,0.0,0.0,0.0,0.0,0.0,0.0,0.0,0.0,0.0,0.0,0.0,0.0,0.0,0.0,0.0,0.0,0.0,0.0,0.0,0.0,0.0,0.0,0.0,0.0,0.0,0.0,0.0,0.0,0.0,0.0,0.0,-5.5179,-5.5179,-5.5179,-5.5179,-5.5179,-5.5179,-5.5179,-5.5179,-5.5431,-5.5812,-5.6264,-5.766,-5.9222,-6.1042,-6.2266,-6.3621,-6.505,-6.5127,-6.5194,-6.5425,-6.5425,-6.569,-6.622,-6.6419,-6.6771,-6.7301,-6.721,-6.7167,-6.7151,-6.6511,-6.5807,-6.5014,-6.4398,-6.3659,-6.2902,-6.1911,-6.1383,-6.1104,-6.1104,-6.0984,-6.0745,0.0,0.0,0.0,0.0,0.0,0.0,0.0,0.0,0.0,0.0,0.0,0.0,0.0,0.0,0.0,0.0,0.0,0.0,0.0,0.0,0.0,0.0,0.0,-4.1324,-4.1324,-4.1324,-4.1324,-4.1324,-4.1324,-4.1324,-4.1324,-4.1324,-4.1324,-4.135,-4.216,-4.2709,-4.3075,-4.3885,-4.4434,-4.4668,-4.4668,-4.4668,-4.4668,-4.4668,-4.4668,-4.4668,-4.4668,-4.4668,-4.4668,-4.4668,0.0,0.0,0.0,0.0,0.0,0.0,0.0,0.0,0.0,0.0,0.0,0.0,0.0,0.0,0.0,0.0,0.0,0.0,0.0,0.0,0.0,0.0,0.0,0.0,-5.5179,-5.5179,-5.5179,-5.5179,-5.5179,-5.5179,-5.5179,-5.5179,-5.5179,-5.5448,-5.5748,-5.6188,-5.8059,-5.9568,-6.0545,-6.2679,-6.4165,-6.4728,-6.5168,-6.5425,-6.5425,-6.5724,-6.6088,-6.6519,-6.7148,-6.7645,-6.8062,-6.7639,-6.7489,0.0,-6.6186,-6.5305,-6.4678,-6.4209,-6.3649,0.0,0.0,0.0,0.0,0.0,-6.1523,-6.1433,0.0,0.0,0.0,0.0,0.0,0.0,0.0,0.0,0.0,0.0,0.0,0.0,0.0,0.0,0.0,0.0,0.0,0.0,0.0,0.0,0.0,-4.1324,-4.1324,-4.1324,-4.1324,-4.1324,-4.1324,-4.1324,-4.1324,-4.1324,-4.1324,-4.1324,-4.1324,-4.1376,-4.25,-4.3023,-4.3101,-4.4251,-4.4668,-4.4668,-4.4668,-4.4668,-4.4668,-4.4668,-4.4668,-4.4668,-4.4668,-4.4668,-4.4668,-4.4668,0.0,0.0,0.0,0.0,0.0,0.0,0.0,0.0,0.0,0.0,0.0,0.0,0.0,0.0,0.0,0.0,0.0,0.0,0.0,0.0,0.0,0.0,0.0,0.0,-5.5179,-5.5179,-5.5179,-5.5179,-5.5179,-5.5179,-5.5179,-5.5209,-5.5299,-5.5837,-5.6278,-5.6376,-5.9259,-6.059,-5.9829,0.0,0.0,0.0,0.0,-6.5369,-6.5346,-6.6097,-6.6494,-6.6568,-6.7856,-6.8564,-6.8616,-6.8011,-6.777,-6.777,-6.5521,-6.4512,-6.4488,-6.3478,-6.3079,-6.3079,-6.3079,-6.3079,-6.3019,-6.2421,-6.2211,0.0,0.0,0.0,0.0,0.0,0.0,0.0,0.0,0.0,0.0,0.0,0.0,0.0,0.0,0.0,0.0,0.0,0.0,0.0,0.0,0.0,0.0,-4.1324,-4.1324,-4.1324,-4.1324,-4.1324,-4.1324,-4.1324,-4.1324,-4.1324,-4.1324,-4.1324,-4.1324,-4.1376,-4.25,-4.3023,-4.3101,-4.4251,-4.4668,-4.4668,-4.4668,-4.4668,-4.4668,-4.4668,-4.4668,-4.4668,-4.4668,-4.4668,-4.4668,-4.4668,-4.5449,-4.6583,-4.7661,-4.8745,0.0,0.0,0.0,0.0,0.0,0.0,0.0,0.0,0.0,0.0,0.0,0.0,0.0,0.0,0.0,0.0,0.0,0.0,0.0,-5.5179,-5.5179,-5.5179,-5.5179,-5.5179,-5.5179,-5.5179,-5.5179,-5.5388,-5.5927,-5.6107,-5.6615,-5.7663,-5.8384,-5.924,-6.0455,-6.2045,0.0,-6.2632,-6.442,-6.5251,-6.4988,-6.6009,-6.6667,-6.6891,0.0,0.0,-6.8159,-6.6228,-6.5897,-6.6585,-6.4376,-6.3394,-6.3394,-6.3194,-6.3079,-6.3079,-6.3079,-6.3079,-6.3049,-6.2929,-6.2899,-6.278,0.0,0.0,0.0,0.0,0.0,0.0,0.0,0.0,0.0,0.0,0.0,0.0,0.0,0.0,0.0,0.0,0.0,0.0,0.0,0.0,0.0,0.0,-4.1324,-4.1324,-4.1324,-4.1324,-4.1324,-4.1324,-4.1324,-4.1324,-4.1324,-4.1324,-4.1324,-4.1376,-4.25,-4.3023,-4.3101,-4.4251,-4.4668,-4.4668,-4.4668,-4.4668,-4.4668,-4.4668,-4.4668,-4.4668,-4.4668,-4.4668,-4.4668,-4.4668,-4.5794,-4.728,-4.7813,-4.9092,-5.0537,0.0,0.0,0.0,0.0,0.0,0.0,0.0,0.0,0.0,0.0,0.0,0.0,0.0,0.0,-5.5179,0.0,0.0,-5.5179,-5.5179,-5.5179,-5.5179,-5.5179,-5.5179,-5.5179,-5.5179,-5.5478,-5.5807,-5.6188,-5.6765,-5.7423,-5.8082,-5.8912,-5.9792,-6.0671,-6.174,-6.2534,-6.3068,-6.3901,-6.4764,-6.5718,-6.5803,-6.6274,-6.7018,-6.6791,-6.6889,-6.7208,-6.5467,-6.4978,-6.5467,-6.3819,-6.3079,-6.3079,-6.3079,-6.3079,-6.3079,-6.3079,-6.3079,-6.3079,-6.3079,-6.3079,-6.3019,0.0,0.0,0.0,0.0,0.0,0.0,0.0,0.0,0.0,0.0,0.0,0.0,0.0,0.0,0.0,0.0,0.0,0.0,0.0,0.0,0.0,0.0,-4.1324,-4.1324,-4.1324,-4.1324,-4.1324,-4.1324,-4.1324,-4.1324,-4.1324,-4.1324,-4.1324,-4.1376,-4.25,-4.3023,-4.3101,-4.4251,-4.4668,-4.4668,-4.4668,-4.4668,-4.4668,-4.4668,-4.4668,-4.4668,-4.4668,-4.4668,-4.4722,-4.4992,-4.6347,-4.8016,-4.8217,-4.9659,-5.1259,-5.1379,-5.1798,0.0,0.0,0.0,0.0,0.0,0.0,0.0,0.0,0.0,-5.5179,-5.5179,-5.5179,-5.5179,-5.5179,-5.5179,-5.5179,-5.5179,-5.5179,-5.5179,-5.5179,-5.5299,-5.5388,-5.5388,-5.5837,-5.6286,-5.6526,-5.7513,-5.8171,-5.8291,-5.9591,-6.039,-6.039,-6.1438,-6.2351,-6.3147,-6.3444,-6.4382,-6.5955,-6.576,-6.5912,-6.6529,-6.6196,-6.6057,-6.6057,-6.4899,-6.4512,-6.4623,-6.3535,-6.3079,-6.3079,-6.3079,-6.3079,-6.3079,-6.3079,-6.3079,-6.3079,-6.3079,-6.3079,-6.3079,0.0,0.0,0.0,0.0,0.0,0.0,0.0,0.0,0.0,0.0,0.0,0.0,0.0,0.0,0.0,0.0,0.0,0.0,0.0,0.0,0.0,0.0,0.0,-4.1324,-4.1324,-4.1324,-4.1324,-4.1324,-4.1324,-4.1324,-4.1324,-4.1324,-4.1324,-4.1376,-4.25,-4.3023,-4.3101,-4.4251,-4.4668,-4.4668,-4.4668,-4.4668,-4.4668,-4.4668,-4.4668,-4.4668,-4.4668,-4.4668,-4.483,-4.5874,-4.7023,-4.8167,-4.912,-5.0268,-5.1319,-5.1917,-5.2127,-5.2456,-5.3653,-5.4521,-5.5089,-5.5179,-5.5179,-5.5179,0.0,0.0,-5.5179,-5.5179,-5.5179,-5.5179,-5.5179,-5.5179,-5.5179,-5.5179,-5.5179,-5.5179,-5.5179,-5.5688,-5.6128,-5.6128,-5.6188,-5.6615,-5.7782,-5.8052,-5.8381,-5.8949,-5.9147,-5.9315,-5.9315,-6.0285,-6.077,-6.0506,-6.3268,-6.4534,-6.4093,-6.5886,-6.6166,-6.4994,-6.4892,-6.4868,-6.4813,-6.3732,-6.3789,-6.4623,-6.3535,-6.3079,-6.3079,-6.3079,-6.3079,-6.3079,-6.3079,-6.3079,-6.3079,-6.3079,-6.3079,-6.3079,0.0,0.0,0.0,0.0,0.0,0.0,0.0,0.0,0.0,0.0,0.0,0.0,0.0,0.0,0.0,0.0,0.0,0.0,0.0,0.0,0.0,0.0,0.0,-4.1324,-4.1324,-4.1324,-4.1324,-4.1324,-4.1324,-4.1324,-4.1324,-4.1324,-4.1324,-4.1376,-4.25,-4.3023,-4.3101,-4.4251,-4.4668,-4.4668,-4.4668,-4.4668,-4.4668,-4.4668,-4.4668,-4.4668,-4.4668,-4.5127,0.0,-4.6216,-4.7536,-4.8993,-4.9464,-5.0316,-5.1349,-5.2007,-5.2486,-5.3054,-5.4431,-5.497,-5.5179,0.0,-5.5179,-5.5179,-5.5179,-5.5179,-5.5179,-5.5179,-5.5179,-5.5179,-5.5179,-5.5179,-5.5179,0.0,-5.5179,-5.5329,-5.5718,-5.5987,-5.6466,-5.7214,-5.7304,-5.7513,-5.8082,-5.8471,-5.88,-5.9069,-5.9099,-5.9339,-6.0,-5.9842,-6.0463,-6.1896,-6.2403,-6.3348,-6.4683,-6.4715,-6.473,-6.4678,-6.4071,-6.3732,-6.3732,-6.3279,-6.3337,-6.3732,-6.3279,-6.3079,-6.3079,-6.3079,-6.3079,-6.3079,-6.3079,-6.3079,-6.3079,-6.3079,-6.3079,-6.3079,0.0,0.0,0.0,0.0,0.0,0.0,0.0,0.0,0.0,0.0,0.0,0.0,0.0,0.0,0.0,0.0,0.0,0.0,0.0,0.0,0.0,0.0,0.0,0.0,-4.1324,-4.1324,-4.1324,-4.1324,-4.1324,-4.1324,-4.1324,-4.1324,-4.1324,-4.1376,-4.25,-4.3023,-4.3101,-4.4251,-4.4668,-4.4668,-4.4668,-4.4668,-4.4668,-4.4668,-4.4884,-4.5181,-4.5181,-4.5715,0.0,-4.7074,-4.8296,-4.9659,-4.9979,-5.0703,-5.1618,-5.2276,-5.3084,-5.3952,-5.494,-5.5179,0.0,-5.5179,-5.5179,-5.5179,-5.5179,-5.5179,-5.5179,-5.5179,-5.5179,-5.5179,-5.5179,-5.5179,-5.5179,-5.5179,-5.5179,-5.5418,-5.6128,-5.6316,-5.6855,-5.7992,-5.8291,-5.8411,-5.8411,-5.883,-5.9099,-5.9099,-5.9099,-5.9536,-6.0455,-5.9824,-6.0486,-6.2872,-6.2201,-6.2781,-6.4666,-6.3939,-6.3789,-6.4265,-6.3508,-6.3079,-6.3079,-6.3079,-6.3079,-6.3079,-6.3079,-6.3079,-6.3079,-6.3079,-6.3079,-6.3079,-6.3079,-6.3079,-6.3079,-6.3079,-6.3079,-6.3079,0.0,0.0,0.0,0.0,0.0,0.0,0.0,0.0,0.0,0.0,0.0,0.0,0.0,0.0,0.0,0.0,0.0,0.0,0.0,0.0,0.0,0.0,0.0,0.0,-4.1324,-4.1324,-4.1324,-4.1324,-4.1324,-4.1324,-4.1324,-4.1324,-4.1324,-4.1376,-4.25,-4.3023,-4.3101,-4.4251,-4.4668,-4.4668,-4.4668,-4.4668,-4.4668,-4.4668,-4.5395,-4.6321,-4.6321,0.0,0.0,-4.8795,-4.9562,-4.9757,-5.0822,-5.1601,-5.2306,-5.2965,-5.4102,-5.5149,-5.5179,-5.5179,-5.5179,-5.5179,-5.5179,-5.5179,-5.5179,-5.5179,-5.5179,-5.5179,-5.5179,-5.5179,-5.5179,-5.5179,-5.5179,-5.5179,-5.5179,-5.5418,-5.6128,-5.6675,-5.7334,-5.8052,-5.868,-5.9069,0.0,-5.9099,-5.9099,-5.9099,-5.9099,-5.9398,-6.0082,-6.0111,-6.071,-6.2115,-6.3177,-6.3537,-6.3134,-6.4153,-6.4153,-6.3137,-6.3137,-6.3079,-6.3079,-6.3079,-6.3079,-6.3079,-6.3079,-6.3079,-6.3079,-6.3079,-6.3079,-6.3079,-6.3079,-6.3079,-6.3079,-6.3079,-6.3079,-6.3079,0.0,0.0,0.0,0.0,0.0,0.0,0.0,0.0,0.0,0.0,0.0,0.0,0.0,0.0,0.0,0.0,0.0,0.0,0.0,0.0,0.0,0.0,0.0,0.0,-4.1324,-4.1324,-4.1324,-4.1324,-4.1324,-4.1324,-4.1324,-4.1324,-4.1324,-4.135,-4.2108,-4.2657,-4.3075,-4.3833,-4.4382,-4.4668,-4.4668,-4.4668,-4.4776,-4.5555,-4.6058,-4.6583,0.0,0.0,0.0,-4.9366,-5.0076,-5.0728,-5.1058,-5.1678,-5.2426,-5.3533,-5.4491,-5.5179,-5.5179,-5.5179,-5.5179,-5.5179,-5.5179,-5.5179,-5.5179,-5.5179,-5.5179,-5.5179,-5.5179,-5.5179,-5.5179,-5.5179,-5.5179,-5.5179,-5.5568,-5.6077,-5.6705,-5.7363,-5.8022,-5.868,-5.8979,0.0,0.0,0.0,0.0,-5.9099,-5.9518,-5.9847,-6.0086,-6.0505,-6.1164,-6.2061,-6.2457,-6.2845,-6.3079,-6.3451,-6.3451,-6.3079,-6.3079,-6.3079,-6.3079,-6.3079,-6.3079,-6.3079,-6.3079,-6.3079,-6.3079,-6.3079,-6.3079,-6.3079,-6.3079,-6.3079,-6.3079,-6.3079,-6.3079,-6.3079,0.0,0.0,0.0,0.0,0.0,0.0,0.0,0.0,0.0,0.0,0.0,0.0,0.0,0.0,0.0,0.0,0.0,0.0,0.0,0.0,0.0,0.0,0.0,0.0,-4.1597,-4.1398,-4.1374,-4.1448,-4.1374,-4.1324,-4.1324,-4.1324,-4.1324,-4.135,-4.1899,-4.2474,-4.3049,-4.3624,-4.4095,-4.4434,-4.4643,-4.4807,-4.5103,-4.603,-4.6895,0.0,0.0,0.0,-5.0172,-5.0172,-5.0632,-5.1259,-5.1498,-5.2187,-5.3144,-5.4221,-5.485,-5.5179,-5.5179,-5.5179,-5.5179,-5.5179,-5.5179,-5.5179,-5.5179,-5.5179,-5.5179,-5.5179,-5.5179,-5.5179,-5.5179,-5.5179,-5.5269,-5.5508,-5.5897,-5.6466,-5.7334,-5.7842,-5.8381,-5.9039,-5.9099,-5.9099,0.0,0.0,0.0,-5.9099,-5.9727,-6.0176,-6.0446,-6.1104,-6.1762,-6.2421,-6.245,-6.266,-6.3079,-6.3079,-6.3079,-6.3079,-6.3079,-6.3079,-6.3079,-6.3079,-6.3079,-6.3079,-6.3079,-6.3079,-6.3079,-6.3079,-6.3079,-6.3079,-6.3079,-6.3079,-6.3079,-6.3079,-6.3079,-6.3079,0.0,0.0,0.0,0.0,0.0,0.0,0.0,0.0,0.0,0.0,0.0,0.0,0.0,0.0,0.0,0.0,0.0,0.0,0.0,0.0,0.0,0.0,0.0,0.0,0.0,-4.1597,-4.1448,-4.1696,-4.1448,-4.1324,-4.1324,-4.1324,-4.1324,-4.135,-4.1873,-4.2448,-4.3023,-4.3598,-4.3913,-4.3992,-4.4596,-4.5129,-4.5663,-4.6286,0.0,0.0,0.0,0.0,0.0,-5.1229,-5.1229,-5.1379,-5.2037,-5.3144,-5.4341,-5.4999,-5.5179,-5.5179,-5.5179,-5.5179,-5.5179,-5.5179,-5.5179,-5.5179,-5.5179,-5.5179,-5.5179,-5.5179,-5.5179,-5.5179,-5.5179,-5.5179,-5.5388,-5.6017,-5.6166,-5.6645,-5.7902,-5.8141,-5.8411,0.0,0.0,0.0,0.0,0.0,0.0,-5.9159,0.0,-6.0446,-6.1134,-6.1792,-6.2421,-6.3049,-6.3079,-6.3079,-6.3079,-6.3079,-6.3079,-6.3139,-6.3139,-6.3139,-6.3169,-6.3169,-6.3169,-6.3169,-6.3169,-6.3169,-6.3139,-6.3139,-6.3109,-6.3079,-6.3079,-6.3079,-6.3079,-6.3079,-6.3079,-6.3079,0.0,0.0,0.0,0.0,0.0,0.0,0.0,0.0,0.0,0.0,0.0,0.0,0.0,0.0,0.0,0.0,0.0,0.0,0.0,0.0,0.0,0.0,0.0,0.0,0.0,0.0,0.0,0.0,0.0,-4.1696,-4.1324,-4.1498,-4.1498,-4.1324,-4.1455,-4.1847,-4.2447,-4.3368,-4.3966,-4.4447,0.0,-4.6505,-4.6773,0.0,0.0,0.0,0.0,0.0,0.0,0.0,0.0,0.0,-5.2725,-5.3503,-5.4341,-5.4999,-5.5179,-5.5179,-5.5179,-5.5179,-5.5179,-5.5179,-5.5179,-5.5179,-5.5179,-5.5179,-5.5179,-5.5179,-5.5179,-5.5179,-5.5179,-5.5179,-5.5239,-5.5418,-5.6226,0.0,-5.7304,-5.8231,0.0,-5.9069,-5.9099,-5.9099,-5.9099,-5.9548,0.0,0.0,-6.0475,-6.1134,-6.1822,-6.248,-6.2899,-6.3079,-6.3079,-6.3079,-6.3079,-6.3079,-6.3318,-6.3767,-6.3767,-6.4036,-6.4545,-6.4545,-6.4545,-6.4545,-6.4545,-6.4246,-6.3767,-6.3767,-6.3498,-6.3079,-6.3079,-6.3079,-6.3079,-6.3079,-6.3079,-6.3079,0.0,0.0,0.0,0.0,0.0,0.0,0.0,0.0,0.0,0.0,0.0,0.0,0.0,0.0,0.0,0.0,0.0,0.0,0.0,0.0,0.0,0.0,0.0,0.0,0.0,0.0,0.0,0.0,0.0,0.0,0.0,-4.1796,-4.1746,-4.1448,-4.1448,-4.1963,-4.2894,-4.3494,0.0,0.0,0.0,0.0,0.0,0.0,0.0,0.0,0.0,0.0,0.0,0.0,0.0,-5.2695,-5.3054,-5.3862,-5.47,-5.5089,0.0,-5.5179,-5.5179,-5.5179,-5.5179,-5.5179,-5.5179,-5.5179,-5.5179,-5.5179,-5.5179,-5.5179,-5.5179,-5.5179,-5.5179,-5.5179,-5.5299,0.0,0.0,0.0,-5.7513,-5.8441,-5.9099,0.0,-5.9099,0.0,-5.9099,-5.9697,-6.0206,0.0,-6.1164,-6.1702,-6.2061,-6.272,-6.3079,-6.3079,-6.3079,-6.3079,-6.3079,-6.3348,-6.3647,-6.4006,-6.4306,-6.4665,-6.5024,-6.5024,-6.5024,-6.5024,0.0,-6.4635,-6.4006,-6.4006,-6.3617,-6.3079,-6.3079,-6.3079,-6.3079,-6.3079,-6.3079,-6.3079,0.0,0.0,0.0,0.0,0.0,0.0,0.0,0.0,0.0,0.0,0.0,0.0,0.0,0.0,0.0,0.0,0.0,0.0,0.0,0.0,0.0,0.0,0.0,0.0,0.0,0.0,0.0,0.0,0.0,0.0,0.0,0.0,0.0,0.0,0.0,0.0,0.0,0.0,0.0,0.0,0.0,0.0,0.0,0.0,0.0,0.0,0.0,0.0,0.0,0.0,-5.2097,-5.3174,-5.3174,-5.4102,-5.5179,-5.5179,-5.5179,-5.5179,-5.5179,-5.5179,-5.5179,-5.5179,-5.5179,-5.5179,-5.5179,-5.5179,-5.5179,-5.5179,-5.5179,-5.5179,-5.5179,-5.5179,-5.5388,-5.5957,0.0,-5.7304,-5.7902,-5.862,-5.9099,-5.9099,-5.9099,-5.9129,-5.9219,-5.9847,-6.0505,-6.1194,-6.1852,-6.2241,-6.2241,-6.278,-6.3079,-6.3079,-6.3079,-6.3079,-6.3079,-6.3677,-6.4036,-6.4156,-6.4814,-6.5203,-6.5293,-6.5293,-6.5293,-6.5293,0.0,0.0,-6.4126,-6.4126,-6.3707,-6.3079,-6.3079,-6.3079,-6.3079,-6.3079,-6.3079,-6.3079,0.0,0.0,0.0,0.0,0.0,0.0,0.0,0.0,0.0,0.0,-4.8163,-4.7041,0.0,0.0,0.0,0.0,0.0,0.0,0.0,0.0,0.0,0.0,0.0,0.0,0.0,0.0,0.0,0.0,0.0,0.0,0.0,0.0,0.0,0.0,0.0,0.0,0.0,0.0,0.0,0.0,0.0,0.0,0.0,0.0,0.0,0.0,0.0,0.0,0.0,0.0,-5.2097,-5.3174,-5.3174,-5.4102,-5.5179,-5.5179,-5.5179,-5.5179,-5.5179,-5.5179,-5.5179,-5.5179,-5.5179,-5.5179,-5.5179,-5.5179,0.0,0.0,-5.5179,-5.5179,-5.5179,-5.5179,-5.5239,-5.5329,0.0,0.0,-5.7244,-5.8321,-5.9099,0.0,-5.9099,-5.9308,-5.9847,-6.0535,0.0,0.0,0.0,0.0,-6.2899,-6.3019,-6.3079,-6.3079,-6.3079,-6.3079,-6.3079,-6.3677,-6.4276,-6.4844,-6.5533,-6.6131,-6.664,-6.664,-6.664,-6.664,0.0,0.0,-6.4844,-6.4844,-6.4156,-6.3079,-6.3079,-6.3079,-6.3079,-6.3079,-6.3079,-6.3079,0.0,0.0,0.0,0.0,0.0,0.0,0.0,-4.962,-4.9249,-4.8235,-4.7369,-4.6591,-4.5924,-4.5403,-4.4881,0.0,0.0,0.0,0.0,0.0,0.0,0.0,0.0,0.0,0.0,0.0,0.0,0.0,0.0,0.0,0.0,0.0,0.0,0.0,0.0,0.0,0.0,0.0,0.0,0.0,0.0,0.0,0.0,0.0,0.0,0.0,0.0,0.0,0.0,0.0,-5.2097,-5.3174,-5.3174,-5.4102,-5.5179,-5.5179,-5.5179,-5.5179,-5.5179,-5.5179,-5.5179,-5.5179,-5.5179,-5.5179,-5.5179,0.0,0.0,0.0,-5.5179,-5.5179,-5.5179,-5.5179,0.0,-5.5179,0.0,0.0,0.0,-5.8261,0.0,-5.9099,-5.9099,-5.9368,0.0,-6.0715,0.0,0.0,0.0,0.0,-6.3079,-6.3079,-6.3079,-6.3079,-6.3079,-6.3079,-6.3079,-6.4036,-6.4695,-6.5054,-6.6041,-6.67,-6.6999,-6.6999,-6.6999,-6.6969,0.0,0.0,-6.4934,-6.4635,-6.3947,-6.3079,-6.3079,-6.3079,-6.3079,-6.3079,-6.3079,-6.3079,0.0,0.0,0.0,0.0,0.0,0.0,0.0,-4.8604,-4.8355,-4.7606,-4.6933,-4.6385,-4.6053,-4.5139,-4.4312,0.0,0.0,0.0,0.0,0.0,0.0,0.0,0.0,0.0,0.0,0.0,0.0,0.0,0.0,0.0,0.0,0.0,0.0,0.0,0.0,0.0,0.0,0.0,0.0,0.0,0.0,0.0,0.0,0.0,0.0,0.0,0.0,0.0,0.0,0.0,-5.2145,-5.3174,-5.3174,-5.4102,-5.5179,-5.5179,-5.5179,-5.5179,-5.5179,-5.5179,-5.5179,-5.5179,-5.5179,-5.5179,-5.5179,-5.5179,0.0,-5.5179,-5.5179,-5.5179,-5.5179,0.0,-5.5179,0.0,-5.6256,-5.7094,0.0,0.0,-5.9099,0.0,-5.9099,0.0,-6.0236,0.0,0.0,0.0,0.0,0.0,0.0,-6.3079,-6.3079,-6.3079,-6.3079,-6.3079,-6.3079,-6.4216,-6.4874,-6.5054,-6.6221,-6.6849,-6.6999,-6.6849,-6.6789,-6.6759,0.0,0.0,0.0,-6.4216,-6.3617,-6.3079,-6.3079,-6.3079,-6.3079,-6.3079,-6.3079,-6.3079,0.0,0.0,0.0,0.0,0.0,0.0,0.0,-4.8604,-4.8563,-4.848,-4.6945,-4.5895,-4.5817,-4.4634,-4.3823,0.0,0.0,0.0,0.0,0.0,0.0,0.0,0.0,0.0,0.0,0.0,0.0,0.0,0.0,0.0,0.0,0.0,0.0,0.0,0.0,0.0,0.0,0.0,0.0,0.0,0.0,0.0,0.0,0.0,0.0,0.0,0.0,0.0,0.0,0.0,0.0,-5.3174,-5.3174,-5.4102,-5.5179,-5.5179,0.0,0.0,-5.5179,-5.5179,-5.5179,-5.5179,-5.5179,-5.5179,-5.5179,0.0,-5.5179,-5.5179,-5.5179,-5.5179,-5.5179,0.0,0.0,0.0,0.0,-5.7094,0.0,0.0,0.0,0.0,0.0,0.0,0.0,0.0,0.0,0.0,0.0,0.0,0.0,-6.3079,-6.3079,-6.3079,-6.3079,-6.3079,-6.3079,-6.3767,-6.4425,-6.5054,-6.5742,-6.64,-6.6969,-6.637,-6.6101,-6.6071,0.0,0.0,0.0,-6.4036,-6.3617,-6.3079,-6.3079,-6.3079,-6.3079,-6.3079,-6.3079,-6.3079,0.0,0.0,0.0,0.0,0.0,0.0,-4.8604,-4.8604,-4.8604,-4.8604,-4.7478,-4.6623,-4.6623,-4.5693,-4.4753,-4.4137,0.0,0.0,0.0,0.0,0.0,0.0,0.0,0.0,0.0,0.0,0.0,-4.6623,0.0,0.0,0.0,0.0,0.0,0.0,0.0,0.0,0.0,0.0,0.0,0.0,0.0,0.0,0.0,0.0,0.0,0.0,0.0,0.0,0.0,0.0,0.0,0.0,-5.3174,-5.4102,0.0,0.0,-5.5179,-5.5179,-5.5179,-5.5179,-5.5179,-5.5179,-5.5179,-5.5179,-5.5179,0.0,-5.5179,-5.5179,-5.5179,-5.5179,-5.5179,0.0,0.0,0.0,0.0,0.0,-5.7094,0.0,0.0,0.0,0.0,0.0,0.0,0.0,0.0,0.0,0.0,0.0,0.0,0.0,-6.3079,-6.3079,-6.3079,-6.3079,-6.3079,-6.3677,-6.4126,-6.4425,-6.5084,-6.5562,-6.5802,-6.5533,-6.5413,0.0,0.0,0.0,0.0,-6.3588,-6.3288,-6.3079,-6.3079,-6.3079,-6.3079,-6.3079,-6.3079,-6.3079,0.0,0.0,0.0,0.0,0.0,-4.8604,-4.8604,-4.8604,-4.8604,-4.8604,-4.7776,-4.7189,-4.7189,-4.6623,-4.5958,-4.5207,-4.5553,0.0,0.0,0.0,0.0,0.0,0.0,0.0,0.0,0.0,-4.8271,-4.7606,-4.8271,-4.8604,0.0,0.0,0.0,0.0,0.0,0.0,0.0,0.0,0.0,0.0,0.0,0.0,0.0,0.0,0.0,0.0,0.0,0.0,0.0,0.0,0.0,0.0,0.0,0.0,0.0,0.0,-5.5179,-5.5179,-5.5179,-5.5179,-5.5179,-5.5179,-5.5179,-5.5179,0.0,0.0,-5.5179,-5.5179,-5.5179,-5.5179,-5.5179,-5.5179,0.0,0.0,0.0,-5.7094,-5.7094,0.0,0.0,0.0,0.0,0.0,0.0,0.0,0.0,0.0,0.0,0.0,0.0,0.0,-6.3079,-6.3079,-6.3079,-6.3079,-6.3079,-6.3498,-6.3827,-6.4006,-6.4485,-6.4844,-6.5024,-6.4814,-6.4725,0.0,0.0,0.0,0.0,-6.3258,-6.3079,-6.3079,-6.3079,-6.3079,-6.3079,-6.3079,-6.3079,-6.3079,0.0,0.0,0.0,0.0,0.0,0.0,-4.8604,-4.8604,-4.8604,-4.8604,-4.7776,-4.7189,-4.7189,-4.7189,-4.7189,-4.7146,-4.6314,0.0,0.0,0.0,0.0,0.0,0.0,0.0,0.0,0.0,-4.8604,-4.8563,-4.8604,-4.8604,-4.8604,-4.8604,0.0,0.0,0.0,0.0,0.0,0.0,0.0,0.0,0.0,0.0,0.0,0.0,0.0,0.0,0.0,0.0,0.0,0.0,0.0,0.0,0.0,-5.4102,0.0,0.0,-5.5179,-5.5179,-5.5179,-5.5179,-5.5179,-5.5179,-5.5179,-5.5179,0.0,0.0,-5.5179,-5.5179,-5.5179,-5.5179,-5.5179,-5.5179,0.0,0.0,0.0,0.0,-5.7094,0.0,0.0,0.0,0.0,0.0,0.0,0.0,0.0,0.0,0.0,0.0,0.0,0.0,-6.3079,-6.3079,-6.3079,-6.3079,-6.3079,-6.3079,-6.3378,-6.4006,-6.4006,-6.4366,-6.4994,-6.4306,0.0,0.0,0.0,0.0,0.0,-6.3079,-6.3079,-6.3079,-6.3079,-6.3079,-6.3079,-6.3079,-6.3079,-6.3079,0.0,0.0,0.0,0.0,0.0,0.0,0.0,-4.8604,-4.8604,-4.8604,-4.8355,-4.8187,-4.8187,-4.8187,-4.8187,-4.8187,-4.7904,0.0,0.0,0.0,0.0,0.0,0.0,0.0,0.0,0.0,-4.8604,-4.8604,-4.8604,-4.8604,-4.8604,-4.8604,-4.8604,-4.8604,0.0,0.0,0.0,0.0,0.0,0.0,0.0,0.0,0.0,0.0,0.0,0.0,0.0,0.0,0.0,0.0,0.0,0.0,0.0,0.0,0.0,-5.5179,-5.5179,0.0,-5.5179,-5.5179,-5.5179,-5.5179,-5.5179,-5.5179,-5.5179,0.0,-5.5179,-5.5179,-5.5179,-5.5179,-5.5179,-5.5179,0.0,0.0,0.0,0.0,0.0,0.0,0.0,0.0,0.0,0.0,0.0,0.0,0.0,0.0,0.0,0.0,0.0,0.0,0.0,-6.3079,-6.3079,-6.3079,-6.3079,-6.3079,-6.3169,-6.3378,-6.3378,-6.3498,-6.3677,0.0,0.0,0.0,0.0,0.0,0.0,-6.3079,-6.3079,-6.3079,-6.3079,-6.3079,-6.3079,-6.3079,-6.3079,-6.3079,0.0,0.0,0.0,0.0,0.0,0.0,0.0,-4.8604,-4.8604,-4.8604,-4.8604,-4.8604,-4.8604,-4.8604,-4.8604,-4.8604,-4.8604,0.0,0.0,0.0,0.0,0.0,0.0,0.0,-4.8604,-4.8604,-4.8604,-4.8604,-4.8604,-4.8604,-4.8604,-4.8604,-4.8604,-4.8604,-4.8604,-4.8604,0.0,0.0,0.0,0.0,0.0,0.0,-5.1741,0.0,0.0,0.0,0.0,0.0,0.0,0.0,0.0,0.0,0.0,0.0,0.0,0.0,-5.5179,-5.5179,0.0,-5.5179,-5.5179,-5.5179,-5.5179,0.0,0.0,0.0,0.0,0.0,-5.5179,-5.5179,0.0,0.0,0.0,0.0,0.0,0.0,0.0,0.0,0.0,0.0,0.0,0.0,0.0,0.0,0.0,0.0,0.0,0.0,0.0,0.0,0.0,-6.3079,-6.3079,-6.3079,-6.3079,-6.3079,-6.3079,-6.3079,-6.3079,-6.3079,-6.3079,0.0,0.0,0.0,0.0,0.0,0.0,-6.3079,-6.3079,-6.3079,-6.3079,-6.3079,-6.3079,-6.3079,-6.3079,-6.3079,0.0,0.0,0.0,0.0,0.0,0.0,0.0,-4.8604,-4.8604,-4.8604,-4.8604,-4.8604,-4.8604,-4.8604,-4.8604,-4.8604,0.0,0.0,0.0,0.0,0.0,0.0,0.0,0.0,-4.8604,-4.8604,-4.8604,-4.8604,-4.8604,-4.8604,-4.8604,-4.8604,-4.8604,-4.8604,-4.8604,-4.8635,0.0,0.0,0.0,0.0,0.0,-5.22,0.0,0.0,0.0,0.0,0.0,0.0,0.0,0.0,0.0,0.0,0.0,0.0,0.0,0.0,0.0,0.0,0.0,-5.5179,-5.5179,-5.5179,-5.5179,-5.5179,0.0,0.0,0.0,0.0,0.0,0.0,0.0,0.0,0.0,0.0,0.0,0.0,0.0,0.0,0.0,0.0,0.0,0.0,0.0,0.0,0.0,0.0,0.0,0.0,0.0,0.0,0.0,0.0,-6.3079,-6.3079,-6.3079,-6.3079,-6.3079,-6.3079,-6.3079,-6.3079,-6.3079,0.0,0.0,0.0,0.0,0.0,0.0,-6.3079,-6.3079,-6.3079,-6.3079,-6.3079,-6.3079,-6.3079,-6.3079,-6.3079,0.0,0.0,0.0,0.0,0.0,0.0,0.0,0.0,0.0,0.0,-4.8604,-4.8604,-4.8604,-4.8604,-4.8604,0.0,0.0,0.0,0.0,0.0,0.0,0.0,0.0,0.0,-4.8604,-4.8604,-4.8604,-4.8604,-4.8604,-4.8604,-4.8604,-4.8604,-4.8604,-4.8604,-4.8604,-4.8912,0.0,0.0,0.0,0.0,-5.2121,-5.22,0.0,0.0,0.0,0.0,-5.1276,-5.1229,0.0,0.0,0.0,0.0,0.0,0.0,0.0,0.0,-5.5179,-5.5179,-5.5179,0.0,-5.5179,-5.5179,-5.5179,-5.5179,0.0,0.0,0.0,0.0,0.0,0.0,0.0,0.0,0.0,0.0,0.0,0.0,0.0,0.0,0.0,0.0,0.0,0.0,0.0,0.0,0.0,0.0,0.0,0.0,0.0,0.0,0.0,0.0,-6.3079,-6.3079,-6.3079,-6.3079,-6.3079,-6.3079,-6.3079,-6.3079,0.0,0.0,0.0,0.0,0.0,0.0,0.0,-6.3079,-6.3079,-6.3079,-6.3079,-6.3079,-6.3079,-6.3079,-6.3079,-6.3079,0.0,0.0,0.0,0.0,0.0,0.0,0.0,0.0,0.0,0.0,0.0,0.0,0.0,0.0,0.0,0.0,0.0,0.0,0.0,0.0,0.0,0.0,0.0,-4.8604,-4.8604,-4.8604,-4.8604,-4.8604,-4.8604,-4.8604,-4.8604,-4.8604,-4.8604,-4.8635,-4.8943,-4.9497,-5.0205,-5.1251,-5.1898,-5.2206,-5.241,0.0,0.0,0.0,0.0,0.0,-5.1229,-5.1229,0.0,-5.1558,-5.2336,-5.3234,0.0,0.0,0.0,0.0,-5.5179,-5.5179,-5.5179,-5.5179,-5.5179,-5.5179,-5.5179,-5.5179,-5.5179,0.0,0.0,0.0,0.0,0.0,0.0,0.0,0.0,0.0,0.0,0.0,0.0,0.0,0.0,0.0,0.0,0.0,0.0,0.0,0.0,0.0,0.0,0.0,0.0,0.0,0.0,0.0,0.0,-6.3079,-6.3079,-6.3079,-6.3079,-6.3079,-6.3079,-6.3079,0.0,0.0,0.0,0.0,0.0,0.0,-6.3079,-6.3079,-6.3079,-6.3079,-6.3079,-6.3079,-6.3079,-6.3079,-6.3079,-6.3079,0.0,0.0,0.0,0.0,0.0,0.0,0.0,0.0,0.0,0.0,0.0,0.0,0.0,0.0,0.0,0.0,0.0,0.0,0.0,0.0,0.0,0.0,-4.8604,-4.8604,-4.8604,-4.8604,-4.8604,-4.8604,-4.8604,-4.8604,-4.8604,-4.8727,-4.882,-4.8974,-4.9682,-5.0328,-5.0882,-5.1559,-5.2175,-5.2698,-5.2698,0.0,0.0,0.0,0.0,0.0,0.0,0.0,0.0,-5.1977,-5.2636,-5.3294,-5.3982,0.0,0.0,0.0,0.0,0.0,-5.5179,-5.5179,-5.5179,-5.5179,-5.5179,-5.5179,-5.5179,0.0,0.0,0.0,0.0,0.0,0.0,-5.5179,0.0,0.0,0.0,0.0,0.0,0.0,0.0,0.0,0.0,0.0,0.0,0.0,0.0,0.0,0.0,0.0,0.0,0.0,0.0,0.0,0.0,0.0,-6.3079,-6.3079,-6.3079,-6.3079,-6.3079,-6.3079,-6.3079,0.0,0.0,0.0,0.0,0.0,-6.3079,-6.3079,-6.3079,-6.3079,-6.3079,-6.3079,-6.3079,-6.3079,-6.3019,-6.2899,0.0,0.0,0.0,0.0,0.0,0.0,0.0,0.0,0.0,0.0,0.0,0.0,0.0,0.0,0.0,0.0,0.0,0.0,0.0,0.0,0.0,-4.8604,-4.8604,-4.8604,-4.8604,-4.8604,-4.8604,-4.8604,-4.8604,-4.8604,-4.8635,-4.922,-4.9835,-5.042,-5.1097,-5.1436,-5.159,-5.2267,-5.2606,-5.2698,-5.2698,0.0,0.0,0.0,0.0,0.0,0.0,0.0,0.0,-5.1977,-5.2636,-5.3294,-5.3982,0.0,0.0,0.0,0.0,0.0,-5.5179,-5.5179,-5.5179,-5.5179,-5.5179,-5.5179,-5.5179,-5.5179,0.0,0.0,0.0,0.0,0.0,-5.5179,0.0,0.0,0.0,0.0,0.0,0.0,0.0,0.0,0.0,0.0,0.0,0.0,0.0,0.0,0.0,0.0,0.0,0.0,0.0,0.0,0.0,0.0,0.0,-6.3079,-6.3079,-6.3079,-6.3079,-6.3079,-6.3079,-6.3079,-6.3079,0.0,0.0,0.0,-6.3079,-6.3079,-6.3079,-6.3079,-6.3079,-6.3079,-6.3079,-6.3079,-6.272,-6.2181,0.0,0.0,0.0,0.0,0.0,0.0,0.0,0.0,0.0,0.0,0.0,0.0,0.0,0.0,0.0,0.0,0.0,0.0,0.0,0.0,-4.8604,-4.8604,-4.8604,-4.8604,-4.8604,-4.8604,-4.8604,-4.8604,-4.8604,-4.882,-4.922,-4.9897,-5.0389,-5.0728,-5.1405,-5.1713,-5.1744,-5.2421,-5.2698,-5.2698,0.0,0.0,0.0,0.0,0.0,0.0,0.0,0.0,0.0,0.0,-5.2935,-5.3354,-5.4401,0.0,0.0,0.0,0.0,0.0,-5.5179,-5.5179,-5.5179,-5.5179,-5.5179,-5.5179,-5.5179,-5.5179,-5.5179,0.0,0.0,0.0,0.0,0.0,0.0,0.0,0.0,0.0,0.0,0.0,0.0,0.0,0.0,0.0,0.0,0.0,0.0,0.0,0.0,0.0,0.0,0.0,0.0,0.0,0.0,0.0,0.0,-6.3079,-6.3079,-6.3079,-6.3079,-6.3079,-6.3079,-6.3079,-6.3079,0.0,0.0,-6.3079,-6.3079,-6.3079,-6.3079,-6.3079,-6.3079,-6.2869,-6.251,-6.2151,-6.1822,-6.1463,0.0,0.0,0.0,0.0,0.0,0.0,0.0,0.0,0.0,0.0,0.0,0.0,0.0,0.0,0.0,0.0,0.0,0.0,0.0,0.0,-4.8604,-4.8604,-4.8604,-4.8604,-4.8604,-4.8604,-4.8604,-4.8604,-4.8789,-4.9312,-5.0174,-5.0697,-5.1005,-5.119,-5.1713,-5.1929,-5.1959,-5.2483,-5.2653,-5.2608,0.0,0.0,0.0,0.0,0.0,0.0,0.0,0.0,0.0,0.0,0.0,0.0,0.0,0.0,0.0,-5.5179,-5.5179,-5.5179,-5.5179,-5.5179,-5.5179,-5.5179,-5.5179,-5.5179,-5.5179,-5.5179,-5.5179,-5.5179,0.0,0.0,0.0,0.0,0.0,0.0,0.0,0.0,0.0,0.0,0.0,0.0,0.0,0.0,0.0,0.0,0.0,0.0,0.0,0.0,0.0,0.0,0.0,0.0,0.0,0.0,0.0,-6.3079,-6.3079,-6.3079,-6.3079,-6.3079,-6.3079,-6.3079,-6.3079,-6.3079,-6.3079,-6.3079,-6.3079,-6.2899,-6.2839,-6.2839,-6.266,-6.2301,-6.1792,-6.1104,-6.0864,-6.0775,0.0,0.0,0.0,0.0,0.0,0.0,0.0,0.0,0.0,0.0,0.0,0.0,0.0,0.0,0.0,0.0,0.0,0.0,0.0,0.0,-4.8604,-4.8604,-4.8604,-4.8604,-4.8604,-4.8604,-4.8604,-4.8604,-4.9281,-5.0266,-5.1559,-5.1621,-5.1959,-5.2575,-5.2637,-5.2637,-5.2637,-5.2698,-5.2563,-5.2352,-5.2352,0.0,0.0,0.0,0.0,0.0,0.0,0.0,0.0,0.0,0.0,0.0,0.0,0.0,-5.5179,-5.5179,-5.5179,-5.5179,-5.5179,-5.5179,-5.5179,-5.5179,-5.5179,-5.5179,-5.5179,-5.5179,-5.5179,-5.5179,-5.5179,0.0,0.0,0.0,0.0,0.0,0.0,0.0,0.0,0.0,0.0,0.0,0.0,0.0,0.0,0.0,0.0,0.0,0.0,0.0,0.0,0.0,0.0,0.0,0.0,0.0,0.0,0.0,-6.3079,-6.3079,-6.3079,-6.3079,-6.3079,-6.3079,-6.3079,-6.3079,-6.3079,-6.3079,-6.3019,-6.2421,-6.2181,-6.2121,-6.1493,-6.1224,-6.1104,-6.0416,-6.0146,-6.0057,0.0,0.0,0.0,0.0,0.0,0.0,0.0,0.0,0.0,0.0,0.0,0.0,0.0,0.0,0.0,0.0,0.0,0.0,0.0,-4.8604,-4.8604,-4.8604,-4.8604,-4.8604,-4.8604,-4.8604,-4.882,-4.9281,-5.0389,-5.119,-5.1713,-5.2144,-5.2483,-5.2698,-5.2698,-5.2698,-5.2698,-5.2518,-5.2397,-5.2306,-5.2155,-5.2017,0.0,0.0,0.0,0.0,0.0,0.0,0.0,0.0,-5.3653,-5.4311,0.0,-5.5179,-5.5179,-5.5179,-5.5179,-5.5179,-5.5179,-5.5179,-5.5179,-5.5179,-5.5179,-5.5179,-5.5179,-5.5179,-5.5179,-5.5179,-5.5179,0.0,0.0,0.0,0.0,0.0,0.0,0.0,0.0,0.0,0.0,0.0,0.0,0.0,0.0,0.0,0.0,0.0,0.0,0.0,0.0,0.0,0.0,0.0,0.0,0.0,0.0,0.0,-6.1852,-6.1882,-6.269,-6.3079,-6.3079,-6.3079,-6.2839,-6.248,-6.248,-6.2241,-6.1852,-6.1583,-6.1493,-6.1433,-6.0745,-6.0475,-6.0386,-5.9727,-5.9488,-5.9428,0.0,0.0,0.0,0.0,0.0,0.0,0.0,0.0,0.0,0.0,0.0,0.0,0.0,0.0,0.0,0.0,0.0,0.0,-4.8604,-4.8604,-4.8604,-4.8604,-4.882,-4.8943,-4.8943,-4.9158,-4.9404,-4.9682,-5.1036,-5.1805,-5.2021,-5.2513,-5.2698,-5.2698,-5.2608,-5.2563,-5.2563,-5.2337,-5.217,-5.2079,-5.1926,-5.1787,0.0,0.0,0.0,0.0,0.0,0.0,0.0,0.0,0.0,0.0,0.0,0.0,0.0,0.0,-5.5179,-5.5179,-5.5179,-5.5179,-5.5179,-5.5179,-5.5179,-5.5179,-5.5179,-5.5179,-5.5179,-5.5179,-5.5179,-5.5179,-5.5179,0.0,0.0,0.0,0.0,0.0,0.0,0.0,0.0,0.0,0.0,0.0,0.0,0.0,0.0,0.0,0.0,0.0,0.0,0.0,0.0,0.0,0.0,0.0,0.0,0.0,-6.1104,-6.1134,-6.2032,-6.245,-6.245,-6.245,-6.2211,-6.1792,-6.1792,-6.1523,-6.1104,-6.0864,-6.0655,-6.0416,-5.9967,-5.9787,-5.9727,-5.9279,-5.9099,-5.9099,0.0,0.0,0.0,0.0,0.0,0.0,0.0,0.0,0.0,0.0,0.0,0.0,0.0,0.0,0.0,0.0,0.0,0.0,-4.8604,-4.8604,-4.8604,-4.8635,-4.9312,-4.9682,-4.9682,-5.0359,-5.0389,-4.9712,-5.1067,-5.2052,-5.2698,-5.2698,-5.2698,-5.2653,-5.2397,-5.2306,-5.2306,-5.2063,-5.1834,-5.1572,-5.1572,-5.1741,-5.1956,0.0,0.0,0.0,0.0,0.0,0.0,0.0,-5.4072,0.0,0.0,0.0,0.0,0.0,-5.5179,-5.5179,-5.5179,-5.5179,-5.5179,-5.5179,0.0,0.0,-5.5179,-5.5179,-5.5179,-5.5179,-5.5179,-5.5179,-5.5179,0.0,0.0,0.0,0.0,0.0,0.0,0.0,0.0,0.0,0.0,0.0,0.0,0.0,0.0,0.0,0.0,0.0,0.0,0.0,0.0,0.0,0.0,0.0,0.0,0.0,-6.1104,-6.1104,-6.1104,-6.1104,-6.1104,-6.1104,-6.1104,-6.1104,-6.1104,-6.1104,-6.1044,-6.0356,-5.9697,-5.9099,-5.9099,-5.9099,-5.9099,-5.9099,-5.9099,-5.9099,0.0,0.0,0.0,0.0,0.0,0.0,0.0,0.0,0.0,0.0,0.0,0.0,0.0,0.0,0.0,0.0,0.0,0.0,-4.8604,-4.8604,-4.885,-4.9343,-4.9558,-4.9897,-5.0389,-5.1067,-5.1313,-5.1097,-5.199,-5.2513,-5.2698,-5.2698,-5.2608,-5.2397,-5.2352,-5.2215,-5.2063,-5.1834,-5.1695,-5.1572,-5.1386,-5.1369,-5.1416,0.0,0.0,0.0,0.0,0.0,0.0,0.0,0.0,0.0,0.0,0.0,0.0,-5.5179,-5.5179,-5.5179,-5.5179,-5.5179,0.0,-5.5179,0.0,0.0,0.0,-5.5179,0.0,0.0,-5.5179,-5.5179,-5.5179,0.0,0.0,0.0,0.0,0.0,0.0,0.0,0.0,0.0,0.0,0.0,0.0,0.0,0.0,0.0,0.0,0.0,0.0,0.0,0.0,0.0,0.0,0.0,0.0,0.0,0.0,-5.9697,-5.9697,-6.0206,-6.1104,-6.1104,-6.0835,-6.0386,-6.0386,-6.0116,-5.9697,-5.9488,-5.9279,-5.9099,-5.9099,-5.9099,-5.9099,-5.9099,-5.9099,-5.9099,0.0,0.0,0.0,0.0,0.0,0.0,0.0,0.0,0.0,0.0,-4.8604,-4.8604,0.0,0.0,0.0,0.0,0.0,0.0,0.0,-4.8881,-4.922,-4.9682,-5.0205,-5.082,-5.1467,-5.1898,-5.2113,-5.2113,-5.2513,-5.2698,-5.2698,-5.2608,-5.2442,-5.2306,-5.2124,-5.1941,-5.1834,-5.1526,-5.1433,-5.1463,-5.1276,-5.1276,-5.1369,0.0,0.0,0.0,0.0,0.0,0.0,0.0,0.0,0.0,0.0,0.0,0.0,-5.5179,-5.5179,-5.5179,-5.5179,-5.5179,0.0,-5.5179,-5.5179,-5.5179,-5.5179,0.0,0.0,0.0,0.0,-5.5269,0.0,0.0,0.0,0.0,0.0,0.0,0.0,0.0,0.0,0.0,0.0,0.0,0.0,0.0,0.0,0.0,0.0,0.0,0.0,0.0,0.0,0.0,0.0,0.0,0.0,0.0,0.0,0.0,-5.9099,-5.9518,-6.0326,-6.0326,-6.0086,-5.9697,-5.9697,-5.9458,-5.9099,-5.9099,-5.9099,-5.9099,-5.9099,-5.9099,-5.9099,-5.9099,-5.9099,-5.9099,0.0,0.0,0.0,0.0,0.0,0.0,0.0,0.0,0.0,0.0,-4.8604,-4.8604,0.0,0.0,0.0,0.0,0.0,0.0,0.0,0.0,-4.9805,-4.9866,-5.1097,-5.2082,-5.2698,-5.2698,-5.2698,-5.2698,-5.2698,-5.2698,-5.2653,-5.2397,-5.2306,-5.2215,-5.1803,-5.1572,-5.1526,-5.1293,-5.1229,-5.1229,-5.1229,-5.1369,-5.1526,-5.1293,0.0,0.0,0.0,0.0,0.0,0.0,0.0,0.0,0.0,0.0,-5.5179,-5.5179,-5.5179,-5.5179,-5.5179,0.0,0.0,0.0,-5.5179,0.0,-5.5179,0.0,-5.5179,-5.5179,0.0,0.0,0.0,0.0,0.0,0.0,0.0,0.0,0.0,0.0,0.0,0.0,0.0,0.0,0.0,0.0,0.0,0.0,0.0,0.0,0.0,0.0,0.0,0.0,0.0,0.0,0.0,0.0,0.0,0.0,0.0,-5.9099,-5.9099,-5.9099,-5.9099,-5.9099,-5.9099,-5.9099,-5.9099,-5.9099,-5.9099,-5.9099,-5.9099,-5.9099,-5.9099,-5.9099,-5.9099,-5.9099,0.0,0.0,0.0,0.0,0.0,0.0,0.0,0.0,0.0,0.0,0.0,0.0,0.0,0.0,0.0,0.0,0.0,0.0,0.0,0.0,-5.0728,-5.1251,-5.2052,-5.2575,-5.2698,-5.2698,-5.2698,-5.2698,-5.2698,-5.2608,-5.2397,-5.2352,-5.2124,-5.1757,-5.1618,-5.1479,-5.1276,-5.1229,-5.1229,-5.1229,-5.1229,-5.1229,-5.1276,-5.1229,-5.1229,0.0,0.0,0.0,0.0,0.0,0.0,0.0,-5.5179,-5.5179,-5.5179,-5.5179,-5.5179,-5.5179,0.0,-5.5179,0.0,0.0,0.0,0.0,0.0,0.0,0.0,0.0,0.0,0.0,0.0,0.0,0.0,0.0,0.0,0.0,0.0,0.0,0.0,0.0,0.0,0.0,0.0,0.0,0.0,0.0,0.0,0.0,0.0,0.0,0.0,0.0,0.0,0.0,0.0,0.0,0.0,0.0,-5.9099,-5.9099,-5.9099,-5.9099,-5.9099,-5.9099,-5.9099,-5.9099,-5.9099,-5.9099,-5.9099,-5.9099,-5.9099,-5.9099,-5.9099,-5.9099,-5.9099,-5.9099,0.0,0.0,0.0,0.0,0.0,0.0,0.0,0.0,0.0,0.0,0.0,0.0,0.0,0.0,0.0,0.0,0.0,0.0,0.0,0.0,-5.1467,-5.2144,-5.2513,-5.2698,-5.2698,-5.2698,-5.2653,-5.2518,-5.2653,-5.2563,-5.2306,-5.2079,-5.1849,-5.1572,-5.1463,-5.1323,-5.1229,-5.1229,-5.1229,-5.1229,-5.1229,-5.1229,-5.1229,-5.1229,-5.1229,-5.1379,-5.2695,0.0,0.0,0.0,0.0,0.0,0.0,0.0,-5.5179,-5.5179,-5.5179,-5.5179,0.0,0.0,0.0,0.0,0.0,0.0,0.0,0.0,0.0,0.0,0.0,0.0,0.0,0.0,0.0,0.0,0.0,0.0,0.0,0.0,0.0,0.0,0.0,0.0,0.0,0.0,0.0,0.0,0.0,0.0,0.0,0.0,0.0,0.0,0.0,0.0,-5.9099,-5.9099,-5.9099,-5.9099,-5.9099,-5.9099,-5.9099,-5.9099,-5.9099,-5.9099,-5.9099,-5.9099,-5.9099,-5.9099,-5.9099,-5.9099,-5.9099,-5.9099,-5.9099,-5.9099,-5.9099,-5.9099,0.0,0.0,0.0,0.0,0.0,0.0,0.0,0.0,0.0,0.0,0.0,0.0,0.0,0.0,0.0,0.0,0.0,0.0,0.0,0.0,0.0,-5.2891,-5.2788,-5.2698,-5.2698,-5.2698,-5.2563,-5.2306,-5.2473,-5.2427,-5.217,-5.1803,-5.1649,-5.1526,-5.1323,-5.1229,-5.1229,-5.1229,-5.1229,-5.1229,-5.1229,-5.1229,-5.1229,-5.1229,-5.1229,-5.1379,-5.2695,-5.3174,-5.3384,-5.473,0.0,0.0,0.0,0.0,-5.5179,-5.5179,-5.5179,-5.5179,0.0,0.0,0.0,0.0,0.0,0.0,0.0,0.0,0.0,0.0,0.0,0.0,0.0,0.0,0.0,0.0,0.0,0.0,0.0,0.0,0.0,0.0,0.0,0.0,0.0,0.0,0.0,0.0,0.0,0.0,0.0,0.0,0.0,0.0,0.0,0.0,-5.9099,-5.9099,-5.9099,-5.9099,-5.9099,-5.9099,-5.9099,-5.9099,-5.9099,-5.9099,-5.9099,-5.9099,-5.9099,-5.9099,-5.9099,-5.9099,-5.9099,-5.9099,-5.9099,-5.9099,-5.9099,-5.9099,0.0,0.0,0.0,0.0,0.0,0.0,0.0,0.0,0.0,0.0,-4.8604,-4.8604,0.0,0.0,0.0,0.0,0.0,0.0,0.0,0.0,0.0,-5.3805,-5.3113,-5.2698,-5.2698,-5.2698,-5.2563,-5.2306,-5.2155,-5.1972,-5.1711,-5.188,-5.1695,-5.1276,-5.1229,-5.1229,-5.1229,-5.1229,-5.1229,-5.1229,-5.1229,-5.1229,-5.1229,-5.1229,-5.1229,-5.1379,-5.2695,-5.3174,-5.3384,-5.473,-5.5179,0.0,0.0,0.0,-5.5179,-5.5179,-5.5179,-5.5179,0.0,0.0,0.0,0.0,0.0,0.0,0.0,0.0,0.0,0.0,0.0,0.0,0.0,0.0,0.0,0.0,0.0,0.0,0.0,0.0,0.0,0.0,0.0,0.0,0.0,0.0,0.0,0.0,0.0,0.0,0.0,0.0,0.0,0.0,0.0,0.0,-5.9099,-5.9099,-5.9099,-5.9099,-5.9099,-5.9099,-5.9099,-5.9099,-5.9099,-5.9099,-5.9099,-5.9099,-5.9099,-5.9099,-5.9099,-5.9099,-5.9099,-5.9099,-5.9099,-5.9099,-5.9099,-5.9099,0.0,0.0,0.0,0.0,0.0,0.0,0.0,0.0,0.0,0.0,0.0,-4.9955,0.0,0.0,0.0,0.0,0.0,0.0,0.0,0.0,0.0,-5.3258,-5.2922,-5.2698,-5.2698,-5.2563,-5.2397,-5.2306,-5.2109,-5.1834,-5.1572,-5.1741,-5.1556,-5.1229,-5.1229,-5.1229,-5.1229,-5.1229,-5.1229,-5.1229,-5.1229,-5.1229,-5.1229,-5.1229,-5.1229,-5.1379,-5.2695,-5.3174,-5.3384,-5.473,-5.5179,-5.5179,-5.5179,0.0,0.0,0.0,-5.5179,0.0,-5.5179,0.0,0.0,0.0,0.0,0.0,0.0,0.0,0.0,0.0,0.0,0.0,0.0,0.0,0.0,0.0,0.0,0.0,0.0,0.0,0.0,0.0,0.0,0.0,0.0,0.0,0.0,0.0,0.0,0.0,0.0,-5.9099,-5.9099,-5.9099,-5.9099,0.0,-5.9099,-5.9099,-5.9099,-5.9099,-5.9099,-5.9099,-5.9099,-5.9099,-5.9099,-5.9099,-5.9099,-5.9099,-5.9099,-5.9099,-5.9099,-5.9099,-5.9099,-5.9099,-5.9099,-5.9099,-5.9099,-5.9099,0.0,0.0,0.0,0.0,0.0,0.0,0.0,0.0,0.0,0.0,0.0,0.0,0.0,0.0,0.0,0.0,0.0,0.0,0.0,0.0,0.0,-5.3024,-5.2833,-5.2698,-5.2698,-5.2518,-5.2352,-5.2215,-5.2063,-5.1834,-5.1479,-5.1479,-5.1386,-5.1229,-5.1229,-5.1229,-5.1229,-5.1229,-5.1229,-5.1229,-5.1229,-5.1229,-5.1229,-5.1229,-5.1229,-5.1379,-5.2516,-5.3025,-5.3354,-5.4551,-5.5059,-5.5179,-5.5179,-5.5179,0.0,0.0,0.0,0.0,0.0,0.0,0.0,0.0,0.0,0.0,0.0,0.0,0.0,0.0,0.0,0.0,0.0,0.0,0.0,0.0,0.0,0.0,0.0,0.0,0.0,0.0,0.0,0.0,0.0,0.0,0.0,0.0,0.0,0.0,0.0,-5.9099,-5.9099,-5.9099,-5.9099,-5.9099,-5.9099,-5.9099,-5.9099,-5.9099,-5.9099,-5.9099,-5.9099,-5.9099,-5.9099,-5.9099,-5.9099,-5.9099,-5.9099,-5.9099,-5.9099,-5.9099,-5.9099,-5.9099,-5.9099,-5.9099,-5.9099,-5.9099,0.0,0.0,0.0,0.0,0.0,0.0,0.0,0.0,0.0,0.0,0.0,0.0,-5.2139,-5.3376,-5.3866,-5.3059,-5.3619,0.0,0.0,0.0,0.0,-5.3934,-5.3157,0.0,-5.2698,-5.2698,-5.2427,-5.2048,-5.2002,-5.1741,-5.1229,-5.1229,-5.1229,-5.1229,-5.1229,-5.1229,-5.1229,-5.1229,-5.1229,-5.1229,-5.1229,-5.1229,-5.1229,-5.1229,-5.1229,-5.1319,-5.2007,-5.2665,-5.3294,-5.4012,-5.467,-5.5179,-5.5179,-5.5179,-5.5179,0.0,0.0,0.0,0.0,0.0,0.0,0.0,0.0,0.0,0.0,0.0,0.0,0.0,0.0,0.0,0.0,0.0,0.0,0.0,0.0,0.0,0.0,0.0,0.0,0.0,0.0,0.0,0.0,0.0,0.0,0.0,0.0,0.0,-5.9099,-5.9099,-5.9099,-5.9099,-5.9099,-5.9099,-5.9099,-5.9099,-5.9099,-5.9099,-5.9099,-5.9099,-5.9099,-5.9099,-5.9099,-5.9099,-5.9099,-5.9099,-5.9099,-5.9099,-5.9099,-5.9099,-5.9099,-5.9099,-5.9099,-5.9099,-5.9099,-5.9099,0.0,0.0,0.0,0.0,0.0,0.0,0.0,0.0,0.0,0.0,0.0,0.0,0.0,-5.3912,-5.4317,-5.4484,-5.47,0.0,0.0,0.0,0.0,-5.3157,-5.2877,-5.2698,-5.2698,-5.2518,-5.2352,-5.217,-5.188,-5.1649,-5.1433,-5.1276,-5.1229,-5.1229,-5.1229,-5.1229,-5.1229,-5.1229,-5.1229,-5.1229,-5.1229,-5.1229,-5.1229,-5.1229,-5.1229,-5.1349,-5.2456,-5.2995,-5.3354,-5.4461,-5.4999,-5.5179,-5.5179,-5.5179,-5.5179,-5.5179,-5.5179,-5.5179,0.0,0.0,0.0,0.0,0.0,0.0,0.0,0.0,0.0,0.0,0.0,0.0,0.0,0.0,0.0,0.0,0.0,0.0,0.0,0.0,0.0,0.0,0.0,0.0,0.0,0.0,0.0,0.0,0.0,0.0,-5.9099,-5.9099,-5.9099,-5.9099,-5.9099,-5.9099,-5.9099,-5.9099,-5.9099,-5.9099,-5.9099,-5.889,-5.8471,-5.8471,-5.8231,-5.7812,-5.7812,-5.8291,-5.9099,-5.9099,-5.9099,-5.9099,-5.9099,-5.886,-5.8471,-5.8471,-5.8201,-5.7812,0.0,0.0,0.0,0.0,0.0,0.0,0.0,0.0,-5.3576,-5.4095,0.0,0.0,0.0,0.0,-5.5075,-5.5288,-5.5026,-5.4861,-5.4861,-5.3521,-5.2698,-5.2698,-5.2698,-5.2653,-5.2563,-5.2183,-5.1971,-5.2079,-5.1545,-5.1315,-5.1433,-5.1276,-5.1229,-5.1229,-5.1229,-5.1229,-5.1229,-5.1229,-5.1229,-5.1229,-5.1229,-5.1229,-5.1229,-5.1468,-5.1558,-5.1678,-5.2785,-5.3324,-5.3653,-5.4551,-5.4999,-5.5179,-5.5179,-5.5179,-5.5179,-5.5179,-5.5179,-5.5179,-5.5179,0.0,0.0,0.0,0.0,0.0,0.0,0.0,0.0,0.0,0.0,0.0,0.0,0.0,0.0,0.0,0.0,0.0,0.0,0.0,0.0,0.0,0.0,0.0,0.0,0.0,0.0,0.0,0.0,0.0,-5.9099,-5.9099,-5.9009,-5.877,-5.877,-5.865,-5.8441,-5.8441,-5.8441,-5.8441,-5.8441,-5.8201,-5.7782,-5.7782,-5.7513,-5.7094,-5.7094,-5.7603,-5.8441,-5.8441,-5.8441,-5.8441,-5.8441,-5.8171,-5.7782,-5.7782,-5.7483,-5.7094,0.0,0.0,0.0,0.0,0.0,0.0,0.0,0.0,-5.3953,-5.5508,0.0,0.0,0.0,0.0,0.0,-5.5353,-5.4485,-5.3976,-5.3976,-5.3201,-5.2698,-5.2698,-5.2698,0.0,-5.2306,-5.1664,-5.1439,-5.1618,-5.0985,-5.0832,-5.1229,-5.1229,-5.1229,-5.1229,-5.1229,-5.1229,-5.1229,-5.1229,-5.1229,-5.1229,-5.1229,-5.1229,-5.1319,-5.1947,-5.2217,-5.2306,-5.2965,-5.3653,-5.4221,-5.4221,-5.467,-5.5179,-5.5179,-5.5179,-5.5179,-5.5179,-5.5179,-5.5179,0.0,0.0,0.0,0.0,0.0,0.0,0.0,0.0,0.0,0.0,0.0,0.0,0.0,0.0,0.0,0.0,0.0,0.0,0.0,0.0,0.0,0.0,0.0,0.0,0.0,0.0,0.0,0.0,0.0,0.0,-5.9039,-5.9039,-5.874,-5.8112,-5.8082,-5.7782,-5.7094,-5.7094,-5.7094,-5.7094,-5.7094,-5.7094,-5.7064,-5.7064,-5.7064,-5.7034,-5.7034,-5.7034,-5.7034,-5.7064,-5.7094,-5.7094,-5.7094,-5.7094,-5.7064,-5.7064,-5.7064,-5.7034,0.0,0.0,0.0,0.0,0.0,-5.4532,-5.5277,-5.5641,-5.5794,0.0,0.0,0.0,-5.5778,-5.5665,-5.5312,-5.4443,-5.4147,-5.3976,-5.3976,-5.3201,-5.2698,-5.2698,-5.2698,-5.2653,-5.2608,-5.2424,-5.2213,-5.2124,-5.1789,-5.156,-5.1479,-5.1323,-5.1229,-5.1229,-5.1229,-5.1229,-5.1229,-5.1229,-5.1229,-5.1229,-5.1229,-5.1498,-5.1947,-5.2127,-5.2486,0.0,0.0,-5.4042,-5.4281,-5.476,-5.5029,-5.5179,-5.5179,-5.5179,-5.5179,-5.5179,-5.5179,-5.5179,-5.5179,0.0,0.0,0.0,0.0,0.0,0.0,0.0,0.0,0.0,0.0,0.0,0.0,0.0,0.0,0.0,0.0,0.0,0.0,0.0,0.0,0.0,0.0,0.0,0.0,0.0,0.0,0.0,0.0,-5.7663,-5.7663,-5.7663,-5.7573,-5.7393,-5.7393,-5.7304,-5.7094,-5.7094,-5.7094,-5.7094,-5.7094,-5.6855,-5.6436,-5.6436,-5.6166,-5.5718,-5.5718,-5.5718,-5.5777,-5.6705,-5.7094,-5.7094,-5.7094,-5.6825,-5.6436,-5.6436,-5.6137,-5.5718,0.0,0.0,0.0,0.0,0.0,-5.489,-5.5984,-5.5917,-5.5917,0.0,0.0,0.0,-5.4828,-5.5108,-5.4985,-5.4062,-5.3976,-5.3976,-5.3976,-5.3201,-5.2698,-5.2698,-5.2698,-5.2639,-5.2382,-5.2197,-5.2076,-5.1987,-5.1607,-5.1515,-5.1741,-5.1369,-5.1276,-5.1369,-5.1276,-5.1229,-5.1229,-5.1229,-5.1229,0.0,-5.1498,0.0,0.0,-5.2815,-5.3264,0.0,0.0,0.0,-5.467,-5.5059,-5.5179,-5.5179,-5.5179,-5.5179,-5.5179,-5.5179,-5.5179,-5.5179,-5.5179,-5.5179,-5.5179,-5.5179,0.0,0.0,0.0,0.0,0.0,0.0,0.0,0.0,0.0,0.0,0.0,0.0,0.0,0.0,0.0,0.0,0.0,0.0,0.0,0.0,0.0,0.0,0.0,0.0,-5.7094,-5.7094,-5.7094,-5.7094,-5.6974,-5.6705,-5.6705,-5.6585,-5.6286,-5.6286,-5.6286,-5.6286,-5.6286,-5.6107,-5.5777,-5.5777,-5.5568,-5.5179,-5.5179,-5.5179,-5.5239,-5.5987,-5.6286,-5.6286,-5.6286,-5.6077,-5.5777,-5.5777,-5.5538,-5.5179,0.0,0.0,-5.4837,-5.5581,-5.511,-5.5159,-5.6691,-5.5539,-5.5234,0.0,-5.6192,-5.4902,-5.4232,-5.4778,-5.4819,-5.3934,-5.3879,-5.3879,-5.3879,-5.3113,-5.2698,-5.2698,-5.2698,-5.2473,-5.2094,-5.1635,-5.1515,-5.1711,-5.1091,-5.1167,-5.2002,-5.1463,-5.1323,-5.1526,-5.1323,0.0,-5.1229,-5.1289,0.0,-5.1379,-5.1977,-5.2306,0.0,0.0,-5.4251,-5.4401,-5.497,-5.5179,-5.5179,-5.5179,-5.5179,-5.5179,-5.5179,-5.5179,-5.5179,-5.5179,-5.5179,-5.5179,-5.5179,-5.5179,-5.5179,-5.5179,-5.5179,0.0,-5.5179,-5.5179,0.0,0.0,0.0,0.0,0.0,0.0,0.0,0.0,0.0,0.0,0.0,0.0,0.0,0.0,0.0,0.0,0.0,0.0,0.0,-5.6885,-5.6885,-5.6885,-5.6885,-5.6885,-5.6615,-5.6077,-5.6128,-5.5777,-5.5209,-5.5179,-5.5179,-5.5179,-5.5179,-5.5179,-5.5179,-5.5179,-5.5179,-5.5179,-5.5179,-5.5179,-5.5179,-5.5179,-5.5179,-5.5179,-5.5179,-5.5179,-5.5179,-5.5179,-5.5179,-5.5179,0.0,-5.4194,-5.4837,-5.5581,-5.6048,-5.6653,-5.7577,-5.6796,-5.606,-5.5843,-5.4902,-5.4485,-5.4985,-5.4569,-5.3922,-5.3024,-5.2935,-5.2935,-5.2935,-5.2788,-5.2698,-5.2698,-5.2698,-5.2684,-5.2594,-5.2485,-5.244,-5.2473,-5.1987,-5.1804,-5.2002,-5.1463,-5.1229,-5.1276,-5.1229,-5.1229,-5.1259,0.0,0.0,-5.2007,-5.2157,0.0,-5.3832,-5.4102,-5.4551,-5.5029,-5.5149,-5.5179,-5.5179,-5.5179,-5.5179,-5.5179,0.0,-5.5179,-5.5179,-5.5179,-5.5179,-5.5179,-5.5179,-5.5179,-5.5179,-5.5179,-5.5179,0.0,-5.5179,-5.5179,0.0,0.0,0.0,0.0,0.0,0.0,0.0,0.0,0.0,0.0,0.0,0.0,0.0,0.0,0.0,0.0,0.0,0.0,0.0,-5.5568,-5.5568,-5.5568,-5.5568,-5.5568,-5.5508,-5.5388,-5.5388,-5.5329,-5.5179,-5.5179,-5.5179,-5.5179,-5.5179,-5.5179,-5.5179,-5.5179,-5.5179,-5.5179,-5.5179,-5.5179,-5.5179,-5.5179,-5.5179,-5.5179,-5.5179,-5.5179,-5.5179,-5.5179,-5.5179,-5.5179,-5.3991,-5.4634,-5.5238,-5.5518,-5.585,-5.6298,-5.7114,-5.6152,-5.5636,-5.6465,-5.5442,-5.4653,-5.4653,-5.4274,-5.3664,-5.2788,-5.3113,-5.3157,-5.2698,-5.2698,-5.2698,-5.2698,-5.2698,-5.2653,-5.2518,-5.2608,-5.2608,-5.2518,-5.2155,-5.2139,-5.2337,-5.1556,-5.1369,-5.1602,-5.1323,-5.1409,-5.1738,0.0,-5.2606,-5.3204,-5.3204,0.0,-5.4251,-5.4581,-5.491,-5.5179,-5.5179,-5.5179,-5.5179,-5.5179,-5.5179,0.0,-5.5179,-5.5179,-5.5179,0.0,-5.5179,-5.5179,-5.5179,-5.5179,-5.5179,-5.5179,-5.5179,0.0,0.0,-5.5179,0.0,0.0,0.0,0.0,0.0,0.0,0.0,0.0,0.0,0.0,0.0,0.0,0.0,0.0,0.0,0.0,0.0,0.0,-5.5179,-5.5179,-5.5179,-5.5179,-5.5179,-5.5179,-5.5179,-5.5179,-5.5179,-5.5179,-5.5179,-5.5179,-5.5179,-5.5179,-5.5179,-5.5179,-5.5179,-5.5179,-5.5179,-5.5179,-5.5179,-5.5179,-5.5179,-5.5179,-5.5179,-5.5179,-5.5179,-5.5179,-5.5179,-5.5179,-5.5179,-5.5179,-5.4262,-5.5108,-5.5673,-5.5558,-5.5554,-5.5836,-5.6729,-5.5393,-5.4994,-5.711,-5.5876,-5.4611,-5.4062,-5.3879,-5.3477,-5.2743,-5.3346,-5.3477,-5.2743,-5.2698,-5.2698,-5.2698,-5.2698,-5.2608,-5.2397,-5.2608,-5.2608,-5.2397,-5.2155,-5.2246,-5.2608,-5.1741,-5.1646,-5.2092,-5.1643,-5.1815,-5.2396,0.0,0.0,-5.4221,0.0,-5.4401,-5.4461,-5.4999,-5.5179,-5.5179,-5.5179,-5.5179,-5.5179,-5.5179,-5.5179,-5.5179,-5.5179,-5.5179,0.0,0.0,0.0,-5.5179,-5.5179,-5.5179,-5.5179,-5.5179,0.0,-5.5179,0.0,0.0,0.0,0.0,0.0,0.0,0.0,0.0,0.0,0.0,0.0,0.0,0.0,0.0,0.0,0.0,0.0,0.0,0.0,0.0,0.0,-5.5179,-5.5179,-5.5179,-5.5179,-5.5179,-5.5179,-5.5179,-5.5179,-5.5179,-5.5179,-5.5179,-5.5179,-5.5179,-5.5179,-5.5179,-5.5179,-5.5179,-5.5179,-5.5179,-5.5179,-5.5179,-5.5179,-5.5179,-5.5179,-5.5179,-5.5179,-5.5179,-5.5179,-5.5179,-5.5179,-5.5179,-5.3619,-5.4769,-5.5715,-5.5677,-5.6096,-5.6729,-5.7625,-5.627,-5.5271,-5.5555,-5.4094,-5.3246,-5.3934,-5.3302,-5.2788,-5.2729,-5.2788,-5.2788,-5.2729,-5.2698,-5.2698,-5.2698,-5.2698,-5.2698,-5.2653,-5.2653,-5.2698,-5.2653,-5.2397,-5.2306,-5.2352,-5.2063,-5.212,-5.2507,-5.2459,-5.2678,-5.3114,0.0,-5.4072,0.0,-5.485,-5.5089,0.0,-5.5149,-5.5179,-5.5179,-5.5179,-5.5179,-5.5179,0.0,-5.5179,-5.5179,0.0,-5.5179,-5.5179,-5.5179,0.0,0.0,0.0,0.0,0.0,0.0,-5.5179,0.0,0.0,0.0,0.0,0.0,0.0,0.0,0.0,0.0,0.0,0.0,0.0,0.0,0.0,0.0,0.0,0.0,0.0,0.0,0.0,0.0,0.0,0.0,-5.5179,-5.5179,-5.5179,-5.5179,-5.5179,-5.5179,-5.5179,-5.5179,-5.5179,-5.5179,-5.5179,-5.5179,-5.5179,-5.5179,-5.5179,-5.5179,-5.5179,-5.5179,-5.5179,-5.5179,-5.5179,-5.5179,-5.5179,-5.5179,-5.5179,-5.5179,-5.5179,-5.5179,-5.5179,-5.5179,-5.3518,-5.4329,-5.5036,-5.4977,-5.5509,-5.6231,-5.7005,-5.6958,-5.6652,-5.6113,-5.4985,-5.4359,-5.4736,-5.4008,-5.3258,-5.2743,-5.3157,-5.3214,0.0,-5.2698,-5.2698,-5.2698,-5.2698,-5.2698,-5.2698,-5.2698,-5.2698,-5.2698,-5.2442,-5.2306,-5.2306,-5.2505,-5.259,-5.2627,-5.3019,0.0,-5.3803,0.0,-5.4431,0.0,0.0,0.0,0.0,-5.5179,-5.5179,-5.5179,-5.5179,-5.5179,-5.5179,0.0,-5.5179,0.0,0.0,0.0,0.0,-5.5179,0.0,0.0,0.0,0.0,0.0,0.0,0.0,0.0,-5.5179,0.0,-5.5179,0.0,0.0,0.0,0.0,0.0,0.0,0.0,0.0,0.0,0.0,0.0,0.0,0.0,0.0,0.0,0.0,0.0,0.0,0.0,0.0,-5.5179,-5.5179,-5.5179,-5.5179,-5.5179,-5.5179,-5.5179,-5.5179,-5.5179,-5.5179,-5.5179,-5.5179,-5.5179,-5.5179,-5.5179,-5.5179,-5.5179,-5.5179,-5.5179,-5.5179,-5.5179,-5.5179,-5.5179,-5.5179,-5.5179,-5.5179,-5.5179,-5.5179,-5.5179,-5.3518,-5.4093,-5.463,-5.4728,-5.5169,-5.5752,-5.6514,-5.692,-5.6958,-5.6309,-5.5271,-5.4569,-5.4569,-5.4051,-5.339,-5.2743,-5.3258,-5.339,0.0,-5.2698,-5.2698,-5.2698,-5.2698,-5.2698,-5.2698,-5.2698,-5.2698,-5.2698,-5.2702,-5.2672,-5.2703,-5.3222,-5.3385,-5.336,0.0,-5.4176,-5.459,0.0,-5.476,-5.5179,-5.5179,-5.5179,-5.5179,-5.5179,-5.5179,-5.5179,-5.5179,-5.5179,-5.5179,-5.5179,-5.5179,0.0,-5.5179,0.0,0.0,0.0,0.0,0.0,-5.5179,0.0,0.0,0.0,0.0,0.0,0.0,0.0,0.0,0.0,0.0,0.0,0.0,0.0,-5.5179,-5.5179,0.0,0.0,0.0,0.0,0.0,0.0,0.0,0.0,0.0,0.0,0.0,0.0,-5.5179,0.0,-5.5179,-5.5179,-5.5179,-5.5179,-5.5179,-5.5179,-5.5179,-5.5179,-5.5179,-5.5179,-5.5179,-5.5179,-5.5179,-5.5179,-5.5179,-5.5179,-5.5179,-5.5179,-5.5179,-5.5179,-5.5179,-5.5179,-5.5179,-5.5179,-5.5179,-5.5179,-5.5179,-5.5179,-5.3518,-5.4093,-5.4837,-5.5546,-5.5572,-5.5752,-5.6514,-5.5915,-5.5393,-5.5353,-5.3836,-5.2788,-5.2788,-5.2743,-5.2743,-5.2698,-5.2698,-5.2743,-5.2698,0.0,-5.2698,-5.2698,-5.2698,-5.2698,-5.2698,-5.2698,-5.2698,-5.2698,-5.333,-5.3637,-5.3668,-5.4345,-5.4849,-5.5193,-5.4983,-5.5134,-5.5551,-5.525,-5.5179,-5.5179,-5.5179,-5.5179,-5.5179,0.0,-5.5179,-5.5179,-5.5179,0.0,0.0,-5.5179,-5.5179,0.0,0.0,0.0,0.0,0.0,0.0,0.0,0.0,0.0,0.0,-5.5179,0.0,0.0,0.0,0.0,-5.5179,0.0,0.0,0.0,0.0,-5.5179,-5.5179,-5.5179,-5.5179,0.0,0.0,0.0,0.0,0.0,0.0,0.0,0.0,0.0,0.0,0.0,-5.5179,0.0,-5.5179,-5.5179,-5.5179,-5.5179,-5.5179,-5.5179,-5.5179,-5.5179,-5.5179,-5.5179,-5.5179,-5.5179,-5.5179,-5.5179,-5.5179,-5.5179,-5.5179,-5.5179,-5.5179,-5.5179,-5.5179,-5.5179,-5.5179,-5.5179,-5.5179,-5.5179,-5.5179,-5.5179,-5.3518,-5.3687,-5.4262,-5.5513,-5.5638,-5.6065,0.0,-5.6729,0.0,0.0,-5.4653,0.0,0.0,-5.3024,-5.2698,0.0,0.0,-5.2698,-5.2698,-5.2698,0.0,-5.2698,-5.2698,-5.2698,-5.2698,-5.316,-5.3375,-5.3375,-5.4006,-5.4298,-5.4189,-5.4974,-5.5167,-5.488,0.0,-5.5785,0.0,0.0,0.0,0.0,0.0,-5.5179,-5.5179,0.0,0.0,-5.5179,-5.5179,-5.5179,0.0,-5.5179,-5.5179,-5.5179,-5.5179,-5.5179,-5.5179,-5.5179,-5.5179,0.0,0.0,0.0,-5.5179,-5.5179,0.0,0.0,0.0,0.0,0.0,0.0,0.0,0.0,0.0,-5.5179,-5.5179,-5.5179,-5.5179,-5.5179,0.0,0.0,0.0,0.0,0.0,0.0,0.0,0.0,0.0,-5.5179,-5.5179,0.0,0.0,-5.5179,-5.5179,-5.5179,-5.5179,-5.5179,-5.5179,-5.5179,-5.5179,-5.5179,-5.5179,-5.5179,-5.5179,-5.5179,-5.5179,-5.5179,-5.5179,-5.5179,-5.5179,-5.5179,-5.5179,-5.5179,-5.5179,-5.5179,-5.5179,-5.5179,-5.5179,-5.5179,-5.3518,-5.3518,-5.389,-5.5108,0.0,0.0,0.0,0.0,0.0,0.0,-5.4611,0.0,-5.3565,0.0,-5.2698,0.0,-5.2698,-5.2821,-5.3067,-5.3067,0.0,-5.3406,-5.3437,-5.3437,-5.3437,-5.3822,-5.4083,-5.4083,-5.476,-5.4974,-5.4911,-5.5698,-5.5844,-5.539,0.0,-5.6077,-5.5731,0.0,-5.5431,0.0,0.0,-5.5179,0.0,0.0,-5.5179,0.0,0.0,-5.5179,-5.5179,-5.5179,-5.5179,-5.5179,-5.5179,-5.5179,-5.5179,-5.5179,-5.5179,-5.5179,-5.5179,-5.5179,0.0,0.0,-5.5179,0.0,-5.5179,0.0,0.0,0.0,0.0,0.0,0.0,-5.5179,-5.5179,-5.5179,-5.5179,-5.5179,0.0,-5.5179,0.0,0.0,0.0,0.0,0.0,0.0,-5.5179,-5.5179,-5.5179,-5.5179,0.0,0.0,-5.5179,-5.5179,-5.5179,-5.5179,-5.5179,-5.5179,-5.5179,-5.5179,-5.5179,-5.5179,-5.5179,-5.5179,-5.5179,-5.5179,-5.5179,-5.5179,-5.5179,-5.5179,-5.5179,-5.5179,-5.5179,-5.5179,-5.5179,-5.5179,-5.5179,-5.5179,-5.3551,-5.3585,0.0,0.0,-5.5886,0.0,0.0,0.0,-5.5353,0.0,-5.3793,-5.2743,-5.2698,-5.2729,-5.276,-5.276,-5.279,-5.3098,-5.3745,-5.3775,0.0,0.0,-5.4683,-5.4683,-5.4683,-5.4714,-5.4745,-5.4745,-5.5438,-5.5745,-5.5745,-5.6502,-5.681,-5.6761,-5.6274,0.0,-5.5979,-5.5431,-5.5229,-5.5179,-5.5179,-5.5179,-5.5179,-5.5179,0.0,-5.5179,-5.5179,-5.5179,-5.5179,-5.5179,-5.5179,-5.5179,-5.5179,-5.5179,-5.5179,-5.5179,-5.5179,-5.5179,-5.5179,-5.5179,-5.5179,-5.5179,0.0,0.0,0.0,0.0,-5.5179,0.0,0.0,0.0,0.0,-5.5179,-5.5179,-5.5179,-5.5179,-5.5179,-5.5179,-5.5179,-5.5179,0.0,0.0,0.0,0.0,-5.5179,-5.5179,-5.5179,-5.5179,-5.5179,0.0,0.0,0.0,-5.5179,-5.5179,-5.5179,-5.5179,-5.5179,-5.5179,-5.5179,-5.5179,-5.5179,-5.5179,-5.5179,-5.5179,-5.5179,-5.5179,-5.5179,-5.5179,-5.5179,-5.5179,-5.5179,-5.5179,-5.5179,-5.5179,-5.5179,-5.5179,-5.5179,-5.4329,-5.4769,-5.5378,0.0,-5.7002,-5.7462,0.0,0.0,0.0,0.0,-5.3965,-5.3434,-5.2743,-5.316,-5.3468,-5.3468,-5.3883,0.0,0.0,0.0,0.0,-5.4683,-5.4683,-5.4683,-5.4683,-5.5191,-5.5438,-5.5438,-5.6146,-5.6532,-5.6532,-5.6717,-5.6713,-5.6519,0.0,0.0,-5.5979,-5.583,-5.5581,-5.5179,-5.5179,-5.5179,0.0,0.0,-5.5179,-5.5179,-5.5179,-5.5179,-5.5179,-5.5179,-5.5179,-5.5179,-5.5179,-5.5179,-5.5179,-5.5179,-5.5179,-5.5179,-5.5179,-5.5179,-5.5179,-5.5179,-5.5179,-5.5179,0.0,0.0,0.0,0.0,0.0,0.0,0.0,0.0,-5.5179,-5.5179,-5.5179,-5.5179,-5.5179,-5.5179,0.0,-5.5179,0.0,0.0,0.0,-5.5179,-5.5179,-5.5179,-5.5179,0.0,0.0,0.0,0.0,0.0,-5.5179,-5.5179,-5.5179,-5.5179,-5.5179,-5.5179,-5.5179,-5.5179,-5.5179,-5.5179,-5.5179,-5.5179,-5.5179,-5.5179,-5.5179,-5.5179,-5.5179,-5.5179,-5.5179,-5.5179,-5.5179,-5.5179,-5.5179,-5.5179,-5.5074,0.0,0.0,-5.6731,0.0,0.0,-5.7256,0.0,0.0,-5.5185,-5.4962,0.0,-5.3682,-5.3883,-5.4129,-5.4129,-5.4468,0.0,-5.513,0.0,0.0,-5.5592,-5.5622,-5.5622,-5.5622,-5.5961,0.0,-5.6146,-5.6625,-5.681,-5.681,-5.681,-5.6713,-5.6567,0.0,-5.6372,0.0,-5.588,-5.5581,-5.5229,-5.5431,0.0,0.0,-5.533,-5.528,-5.5179,-5.5179,-5.5179,-5.5179,-5.5179,-5.5179,-5.5179,-5.5179,-5.5179,-5.5179,-5.5179,-5.5179,-5.5179,-5.5179,-5.5179,-5.5179,-5.5179,-5.5179,-5.5179,-5.5179,-5.5179,-5.5179,0.0,0.0,0.0,0.0,0.0,0.0,-5.5179,-5.5179,-5.5179,-5.5179,0.0,0.0,0.0,-5.5179,0.0,0.0,0.0,0.0,0.0,0.0,0.0,0.0,0.0,0.0,0.0,-5.5179,-5.5179,-5.5179,-5.5179,-5.5179,-5.5179,-5.5179,-5.5179,-5.5179,-5.5179,-5.5179,-5.5179,-5.5179,-5.5179,-5.5179,-5.5179,-5.5179,-5.5179,-5.5179,-5.5179,-5.5179,-5.5179,-5.5179,-5.5179,0.0,0.0,0.0,0.0,0.0,0.0,0.0,-5.7773,0.0,-5.6265,0.0,-5.5871,-5.4823,-5.4885,-5.4946,-5.4853,0.0,-5.5222,-5.5807,-5.5838,-5.6115,-5.6779,-5.681,-5.681,-5.681,-5.681,-5.681,-5.681,-5.681,-5.681,-5.681,-5.681,0.0,0.0,0.0,0.0,0.0,-5.5731,-5.5481,0.0,-5.583,-5.5681,-5.528,-5.5531,-5.5431,-5.5179,-5.5179,-5.5179,-5.5179,-5.5179,-5.5179,-5.5179,-5.5179,-5.5179,-5.5179,-5.5179,-5.5179,-5.5179,-5.5179,-5.5179,-5.5179,-5.5179,-5.5179,-5.5179,-5.5179,-5.5179,-5.5179,-5.5179,-5.5179,0.0,0.0,0.0,0.0,-5.5179,-5.5179,0.0,0.0,0.0,0.0,0.0,0.0,0.0,0.0,0.0,0.0,0.0,0.0,0.0,0.0,0.0,0.0,0.0,-5.5179,0.0,-5.5179,0.0,-5.5179,-5.5179,-5.5179,-5.5179,-5.5179,-5.5179,-5.5179,-5.5179,-5.5179,-5.5179,-5.5179,-5.5179,-5.5179,-5.5179,-5.5179,-5.5179,-5.5179,-5.5179,-5.5179,-5.5179,0.0,0.0,0.0,0.0,0.0,-5.8534,-5.7781,-5.7608,-5.7036,-5.5452,-5.637,-5.6515,-5.4885,-5.5858,-5.6355,-5.5625,-5.6053,0.0,0.0,0.0,0.0,-5.681,-5.681,-5.681,-5.681,-5.681,-5.681,-5.681,-5.681,-5.681,-5.681,-5.681,0.0,0.0,0.0,0.0,-5.5979,-5.5731,0.0,-5.588,-5.5979,-5.583,-5.5531,-5.5581,-5.5431,-5.5179,-5.5179,-5.5179,-5.5179,-5.5179,-5.5179,-5.5179,-5.5179,-5.5179,-5.5179,-5.5179,-5.5179,-5.5179,-5.5179,-5.5179,-5.5179,-5.5179,-5.5179,-5.5179,-5.5179,-5.5179,-5.5179,-5.5179,-5.5179,-5.5179,-5.5179,0.0,0.0,0.0,0.0,0.0,0.0,0.0,0.0,0.0,0.0,0.0,0.0,0.0,0.0,0.0,0.0,0.0,0.0,0.0,0.0,0.0,0.0,0.0,0.0,0.0,0.0,-5.5179,-5.5179,-5.5179,-5.5179,-5.5179,-5.5179,-5.5179,-5.5179,-5.5179,-5.5179,-5.5179,-5.5179,-5.5179,-5.5179,-5.5179,-5.5179,-5.5179,-5.5179,-5.5179,0.0,0.0,0.0,0.0,0.0,0.0,0.0,-5.884,0.0,-5.6937,-5.7796,-5.8029,-5.6651,-5.721,-5.726,-5.6334,-5.6625,-5.681,-5.681,-5.681,-5.681,-5.681,-5.681,-5.681,-5.681,-5.681,-5.681,-5.681,-5.681,-5.681,-5.681,-5.681,0.0,-5.681,0.0,-5.6323,0.0,0.0,0.0,-5.6028,-5.6323,-5.6077,-5.5631,-5.5731,-5.5531,-5.5229,-5.533,-5.533,-5.5179,-5.5179,-5.5179,-5.5179,-5.5179,-5.5179,-5.5179,-5.5179,-5.5179,-5.5179,-5.5179,-5.5179,-5.5179,-5.5179,-5.5179,-5.5179,-5.5179,-5.5179,-5.5179,-5.5179,-5.5179,-5.5179,-5.5179,-5.5179,0.0,0.0,0.0,0.0,0.0,0.0,0.0,0.0,0.0,0.0,0.0,0.0,0.0,0.0,0.0,0.0,0.0,0.0,0.0,0.0,0.0,0.0,0.0,0.0,0.0,-5.5179,-5.5179,-5.5179,-5.5179,-5.5179,-5.5179,-5.5179,-5.5179,-5.5179,-5.5179,-5.5179,-5.5179,-5.5179,-5.5179,-5.5179,-5.5179,-5.5179,-5.5179,-5.5179,0.0,-5.8727,0.0,0.0,-5.9877,0.0,-6.0088,-6.0098,-5.9771,-5.8828,-5.9393,-5.9543,-5.8592,-5.8501,-5.8119,-5.7163,-5.6906,-5.681,-5.681,-5.681,-5.681,-5.681,-5.681,-5.681,-5.681,-5.681,-5.681,-5.681,-5.681,-5.6717,0.0,-5.6748,0.0,0.0,0.0,0.0,0.0,0.0,-5.6323,-5.6225,-5.6616,-5.6372,-5.578,-5.6028,-5.578,-5.5381,-5.5631,-5.5531,-5.533,-5.528,-5.5229,-5.5179,-5.5179,-5.5179,-5.5179,-5.5179,-5.5179,-5.5179,-5.5179,-5.5179,-5.5179,-5.5179,-5.5179,-5.5179,-5.5179,-5.5179,-5.5179,-5.5179,-5.5179,-5.5179,-5.5179,-5.5179,0.0,0.0,0.0,0.0,0.0,0.0,0.0,0.0,0.0,0.0,0.0,0.0,0.0,0.0,0.0,0.0,-5.5179,-5.5179,0.0,0.0,0.0,0.0,-5.5179,0.0,-5.5179,0.0,-5.5179,-5.5179,-5.5179,-5.5179,-5.5179,-5.5179,-5.5179,-5.5179,-5.5179,-5.5179,-5.5179,-5.5179,-5.5179,-5.5179,-5.5179,-5.5179,-5.5179,-5.5179,0.0,0.0,0.0,0.0,0.0,0.0,0.0,-6.0464,-6.0614,-5.987,-6.0432,-6.0525,-5.9543,-5.9487,-5.9088,-5.8165,-5.7306,-5.681,-5.681,-5.681,-5.681,-5.681,-5.681,-5.681,-5.681,-5.681,-5.681,0.0,-5.681,-5.6471,0.0,0.0,0.0,0.0,0.0,0.0,0.0,-5.6421,-5.6519,-5.6713,-5.6761,-5.6616,-5.6323,-5.6372,-5.6176,-5.5929,-5.5929,-5.5929,-5.588,-5.5631,-5.5381,-5.5179,-5.5179,-5.5179,-5.5179,-5.5179,-5.5179,-5.5179,-5.5179,-5.5179,-5.5179,-5.5179,-5.5179,-5.5179,-5.5179,-5.5179,-5.5179,-5.5179,-5.5179,-5.5179,-5.5179,-5.5179,-5.5179,0.0,0.0,0.0,0.0,0.0,-5.5179,-5.5179,0.0,0.0,0.0,0.0,0.0,0.0,0.0,-5.5179,-5.5179,-5.5179,0.0,-5.5179,0.0,-5.5179,-5.5179,-5.5179,0.0,-5.5179,-5.5179,-5.5179,-5.5179,-5.5179,-5.5179,-5.5179,-5.5179,-5.5179,-5.5179,-5.5179,-5.5179,-5.5179,-5.5179,-5.5179,-5.5179,-5.5179,-5.5179,-5.5179,0.0,0.0,0.0,0.0,0.0,0.0,0.0,-6.1669,-6.173,-6.1428,-6.1183,-6.0861,-6.0482,-6.044,-5.9838,-5.8349,-5.784,-5.7401,-5.6858,-5.681,-5.681,-5.681,-5.681,-5.681,-5.681,-5.681,-5.681,0.0,0.0,0.0,0.0,0.0,0.0,0.0,0.0,-5.6664,-5.6664,-5.6664,-5.6713,-5.681,-5.681,-5.6664,-5.6421,-5.6421,-5.6225,-5.6028,-5.6176,-5.6127,-5.5979,-5.588,-5.5681,-5.5381,-5.5229,-5.5179,-5.5179,-5.5179,-5.5179,-5.5179,-5.5179,-5.5179,-5.5179,-5.5179,-5.5179,-5.5179,-5.5179,-5.5179,-5.5179,-5.5179,-5.5179,-5.5179,-5.5179,-5.5179,-5.5179,0.0,0.0,0.0,0.0,0.0,0.0,-5.5179,0.0,-5.5179,0.0,0.0,0.0,0.0,0.0,0.0,-5.5179,-5.5179,-5.5179,-5.5179,0.0,-5.5179,-5.5179,-5.5179,-5.5179,-5.5179,-5.5179,-5.5179,-5.5179,-5.5179,-5.5179,-5.5179,-5.5179,-5.5179,-5.5179,-5.5179,-5.5179,-5.5179,-5.5179,-5.5179,-5.5179,-5.5179,-5.5179,-5.5179,-6.0452,0.0,-6.1637,0.0,-6.2042,-6.2381,-6.2381,-6.2381,-6.2381,-6.2381,-6.183,-6.1432,-6.1432,-6.1152,-6.0355,-5.8773,-5.8395,-5.7793,-5.6858,-5.681,-5.681,-5.681,-5.681,0.0,-5.681,-5.681,-5.681,-5.681,-5.681,0.0,0.0,0.0,0.0,0.0,-5.681,-5.681,-5.681,-5.681,-5.681,-5.681,-5.681,-5.6713,-5.6519,-5.6519,-5.6421,-5.6274,-5.647,-5.6421,-5.6225,-5.6127,-5.5979,-5.578,-5.533,-5.5179,-5.5179,-5.5179,-5.5179,-5.5179,-5.5179,-5.5179,-5.5179,-5.5179,-5.5179,-5.5179,-5.5179,-5.5179,-5.5179,-5.5179,-5.5179,-5.5179,-5.5179,-5.5179,-5.5179,0.0,0.0,0.0,0.0,0.0,0.0,0.0,-5.5179,-5.5179,-5.5179,0.0,0.0,0.0,0.0,0.0,0.0,-5.5179,0.0,0.0,0.0,0.0,0.0,0.0,-5.5179,-5.5179,-5.5179,-5.5179,-5.5179,-5.5179,-5.5179,-5.5179,-5.5179,-5.5179,-5.5179,-5.5179,-5.5179,-5.5179,-5.5179,-5.5179,-5.5179,-5.5179,-5.5179,-5.5179,-6.1298,-6.1873,-6.2381,-6.2381,-6.2381,-6.2381,-6.2381,-6.2381,-6.2381,-6.2381,-6.2381,-6.2381,-6.2381,-6.1554,-6.0609,-5.9674,-5.8728,-5.7793,-5.6858,-5.681,-5.681,0.0,0.0,-5.681,-5.681,-5.681,-5.681,-5.681,0.0,0.0,-5.5715,0.0,0.0,-5.681,-5.681,-5.681,-5.681,-5.681,-5.681,-5.681,-5.681,-5.681,-5.681,-5.681,-5.681,-5.681,-5.681,-5.681,-5.6761,-5.647,-5.6372,-5.6274,-5.5431,-5.5179,-5.5179,-5.5179,-5.5179,-5.5179,-5.5179,-5.5179,-5.5179,-5.5179,-5.5179,-5.5179,-5.5179,-5.5179,-5.5179,-5.5179,-5.5179,-5.5179,-5.5179,-5.5179,-5.5179,-5.5179,0.0,0.0,0.0,0.0,0.0,0.0,-5.5179,-5.5179,-5.5179,0.0,0.0,0.0,0.0,0.0,0.0,0.0,0.0,-5.5179,-5.5179,0.0,-5.5179,-5.5179,-5.5179,-5.5179,-5.5179,-5.5179,-5.5179,-5.5179,-5.5179,-5.5179,-5.5179,-5.5179,-5.5179,-5.5179,-5.5179,-5.5179,-5.5179,-5.5179,-5.5179,-5.5179,-5.5179,-5.5179,-6.2042,-6.2245,-6.2381,-6.2381,-6.2381,-6.2381,-6.2381,-6.2381,-6.2381,-6.2381,-6.2381,-6.2381,-6.2381,-6.211,-6.1554,0.0,-6.0279,-5.9718,0.0,-5.8728,-5.8409,-5.7793,-5.7746,-5.7448,-5.681,-5.681,-5.681,-5.681,0.0,0.0,0.0,-5.6471,-5.6594,-5.681,-5.681,-5.681,-5.681,-5.681,-5.681,-5.681,-5.681,-5.681,-5.681,-5.681,-5.681,-5.681,-5.681,-5.681,-5.6761,-5.647,-5.6421,-5.6323,-5.588,-5.5631,-5.5481,-5.5481,-5.533,-5.5179,-5.5179,-5.5179,-5.5179,-5.5179,-5.5179,-5.5179,-5.5179,-5.5179,-5.5179,-5.5179,-5.5179,-5.5179,-5.5179,-5.5179,-5.5179,-5.5179,0.0,0.0,0.0,0.0,0.0,0.0,-5.5179,-5.5179,0.0,-5.5179,0.0,0.0,0.0,0.0,0.0,0.0,0.0,0.0,-5.5179,0.0,-5.5179,-5.5179,-5.5179,-5.5179,-5.5179,-5.5179,-5.5179,-5.5179,-5.5179,-5.5179,-5.5179,-5.5179,-5.5179,-5.5179,-5.5179,-5.5179,-5.5179,-5.5179,-5.5179,-5.5179,-5.5179,-5.5179,-6.2381,-6.2381,-6.2381,-6.2381,-6.2381,-6.2381,-6.2381,-6.2381,-6.2381,-6.2381,-6.2381,-6.2381,-6.2381,-6.2381,0.0,-6.1069,-6.0986,0.0,-5.9631,-5.9587,-5.9323,-5.8773,-5.8728,-5.8272,-5.7353,0.0,0.0,-5.681,-5.681,-5.681,-5.681,-5.681,-5.681,-5.681,-5.681,-5.681,-5.681,-5.681,-5.681,-5.681,-5.681,-5.681,-5.681,-5.681,-5.681,-5.681,-5.681,-5.681,-5.6761,-5.6616,-5.6567,-5.6519,-5.6372,-5.6127,-5.588,-5.5631,-5.5381,-5.5179,-5.5179,-5.5179,-5.5179,-5.5179,-5.5179,-5.5179,-5.5179,-5.5179,-5.5179,-5.5179,-5.5179,-5.5179,-5.5179,-5.5179,-5.5179,-5.5179,0.0,-5.5179,0.0,0.0,0.0,0.0,0.0,0.0,0.0,-5.5179,0.0,0.0,0.0,0.0,0.0,0.0,0.0,-5.5179,-5.5179,0.0,-5.5179,-5.5179,-5.5179,-5.5179,-5.5179,-5.5179,-5.5179,-5.5179,-5.5179,-5.5179,-5.5179,-5.5179,-5.5179,-5.5179,-5.5179,-5.5179,-5.5179,-5.5179,-5.5179,-5.5179,-5.5179,-5.5179,-6.2381,-6.2381,0.0,0.0,-6.2381,0.0,-6.2381,-6.2381,-6.2381,-6.2381,-6.2381,-6.2381,-6.2381,-6.2381,-6.203,-6.1152,0.0,0.0,0.0,-5.9762,-5.9762,-5.9674,-5.9674,0.0,-5.8349,-5.8303,-5.784,-5.6906,-5.6858,-5.681,-5.681,-5.681,-5.681,-5.681,-5.681,-5.681,-5.681,-5.681,-5.681,-5.681,-5.681,-5.681,-5.681,-5.681,-5.681,-5.681,-5.681,-5.681,-5.681,-5.681,-5.681,-5.681,-5.681,-5.6616,-5.6323,-5.578,-5.5431,-5.5229,-5.5179,-5.5179,-5.5179,-5.5179,-5.5179,-5.5179,-5.5179,-5.5179,-5.5179,-5.5179,-5.5179,-5.5179,-5.5179,-5.5179,-5.5179,-5.5179,-5.5179,-5.5179,-5.5179,0.0,0.0,0.0,0.0,0.0,0.0,-5.5179,-5.5179,0.0,0.0,0.0,0.0,0.0,0.0,-5.5179,-5.5179,-5.5179,-5.5179,-5.5179,-5.5179,-5.5179,-5.5179,-5.5179,-5.5179,-5.5179,-5.5179,-5.5179,-5.5179,-5.5179,-5.5179,-5.5179,-5.5179,-5.5179,-5.5179,-5.5179,-5.5179,-5.5179,-5.5179,-5.5179,0.0,0.0,-6.2381,-6.2381,-6.2381,-6.2381,-6.2381,-6.2381,-6.2381,-6.2381,-6.2381,-6.2381,-6.2381,-6.2381,-6.2302,-6.207,-6.207,-6.1951,-6.1716,-6.175,-6.1432,-6.0694,-6.0694,-6.0226,-5.9311,-5.9266,-5.8818,-5.7887,-5.7163,-5.681,-5.681,-5.681,-5.681,-5.681,-5.681,-5.681,-5.681,-5.681,-5.681,-5.681,-5.681,-5.681,-5.681,-5.681,-5.681,-5.681,-5.681,-5.681,-5.681,-5.681,-5.681,-5.681,-5.681,-5.6616,-5.6323,-5.5979,-5.5731,-5.5481,-5.5229,-5.5179,-5.5179,-5.5179,-5.5179,-5.5179,-5.5179,-5.5179,-5.5179,-5.5179,-5.5179,-5.5179,-5.5179,-5.5179,-5.5179,-5.5179,-5.5179,-5.5179,-5.5179,0.0,0.0,0.0,-5.5179,-5.5179,-5.5179,-5.5179,-5.5179,0.0,0.0,0.0,0.0,0.0,-5.5179,-5.5179,-5.5179,-5.5179,-5.5179,-5.5179,-5.5179,-5.5179,-5.5179,-5.5179,-5.5179,-5.5179,-5.5179,-5.5179,-5.5179,-5.5179,-5.5179,-5.5179,-5.5179,-5.5179,-5.5179,-5.5179,-5.5179,-5.5179,-5.5179,-5.5179,-6.2381,-6.2381,-6.2381,-6.2381,-6.2381,-6.2381,-6.2381,-6.2381,-6.2381,-6.2381,-6.2381,-6.2381,-6.2381,-6.2381,-6.2381,-6.2381,-6.2381,-6.2381,-6.2381,-6.2381,-6.2183,-6.1635,-6.1635,-6.1193,-6.0237,-6.0237,-5.9543,-5.8211,-5.77,-5.7211,-5.681,-5.681,-5.681,-5.681,-5.681,-5.681,-5.681,-5.681,-5.681,-5.681,-5.681,-5.681,-5.681,-5.681,-5.681,-5.681,-5.681,-5.681,-5.681,-5.681,-5.681,-5.681,-5.681,-5.6713,-5.6519,-5.6274,-5.5929,-5.5581,-5.5431,-5.528,-5.5179,-5.5179,-5.5179,-5.5179,-5.5179,-5.5179,-5.5179,-5.5179,-5.5179,-5.5179,-5.5179,-5.5179,-5.5179,-5.5179,-5.5179,-5.5179,-5.5179,-5.5179,0.0,-5.5179,-5.5179,-5.5179,-5.5179,-5.5179,-5.5179,-5.5179,0.0,0.0,-5.5179,-5.5179,-5.5179,-5.5179,-5.5179,-5.5179,-5.5179,-5.5179,-5.5179,-5.5179,-5.5179,-5.5179,-5.5179,-5.5179,-5.5179,-5.5179,-5.5179,-5.5179,-5.5179,-5.5179,-5.5179,-5.5179,-5.5179,-5.5179,-5.5179,-5.5179,-5.5179,-5.5149,-6.2381,-6.2381,-6.2381,-6.2381,-6.2381,-6.2381,-6.2381,-6.2381,-6.2381,-6.2381,-6.2381,-6.2381,-6.2381,-6.2381,-6.2381,-6.2381,-6.2381,-6.2381,-6.2381,-6.2381,-6.2381,-6.2381,-6.2381,-6.203,-6.1227,-6.1069,-6.0194,-5.8592,-5.8455,-5.8026,-5.7211,-5.7211,-5.7163,-5.7002,-5.7002,-5.6954,-5.681,-5.681,-5.681,-5.681,-5.681,-5.681,-5.681,-5.681,-5.681,-5.681,-5.681,-5.681,-5.681,-5.681,-5.681,-5.681,-5.681,-5.681,-5.6761,-5.6519,-5.6127,-5.5731,-5.5681,-5.5481,-5.5229,-5.5179,-5.5229,-5.5229,-5.5229,-5.5229,-5.5229,-5.5229,-5.5229,-5.5179,-5.5179,-5.5179,-5.5179,-5.5179,-5.5179,-5.5179,-5.5179,0.0,-5.5179,-5.5179,-5.5179,-5.5179,-5.5179,-5.5179,-5.5179,-5.5179,-5.5179,0.0,0.0,-5.5179,-5.5179,-5.5179,-5.5179,-5.5179,-5.5179,-5.5179,-5.5179,-5.5179,-5.5179,-5.5179,-5.5179,-5.5179,-5.5179,-5.5179,-5.5179,-5.5179,-5.5179,-5.5179,-5.5179,-5.5179,-5.5179,-5.5179,-5.5179,-5.5089,-5.5029,-5.494,-6.2381,-6.2381,-6.2381,-6.2381,-6.2381,-6.2381,-6.2381,-6.2381,-6.2381,-6.2381,-6.2381,-6.2381,-6.2381,-6.2381,-6.2381,-6.2381,-6.2381,-6.2381,-6.2381,-6.2381,-6.2381,-6.2381,-6.2381,-6.2341,-6.2183,-6.1432,-6.0861,-6.0567,-5.9762,-5.9278,-5.9177,-5.9177,-5.8728,-5.798,-5.798,-5.7543,-5.681,-5.681,-5.681,-5.681,-5.681,-5.681,-5.681,-5.681,-5.681,-5.681,-5.681,-5.681,-5.681,-5.681,-5.681,-5.681,-5.681,-5.681,-5.681,-5.6761,-5.6519,-5.6225,-5.5979,-5.5731,-5.5481,-5.5229,-5.5381,-5.5531,-5.5531,-5.5531,-5.5531,-5.5531,-5.533,-5.5179,-5.5179,-5.5179,-5.5179,-5.5179,-5.5179,-5.5179,0.0,0.0,-5.5179,-5.5179,-5.5179,-5.5179,-5.5179,-5.5179,-5.5179,-5.5179,-5.5179,-5.5179,-5.5179,-5.5179,-5.5179,-5.5179,-5.5179,-5.5179,-5.5179,-5.5179,-5.5179,-5.5179,-5.5179,-5.5179,-5.5179,-5.5179,-5.5179,-5.5179,-5.5179,-5.5179,-5.5179,-5.5179,-5.5179,-5.5179,-5.5179,-5.5179,-5.5119,-5.4551,-5.4371,-5.4251,-6.2381,-6.2381,-6.2381,-6.2381,-6.2381,-6.2381,-6.2381,-6.2381,-6.2381,-6.2381,-6.2381,-6.2381,-6.2381,-6.2381,-6.2381,-6.2381,-6.2381,-6.2381,-6.2381,-6.2381,-6.2381,-6.2381,-6.2381,-6.2381,-6.2381,-6.1991,-6.1513,-6.0986,-6.0567,-6.0098,-5.9587,-5.9587,-5.9399,-5.8953,-5.8953,-5.8728,-5.8272,-5.7746,-5.7511,-5.7495,-5.7002,-5.681,-5.681,-5.681,-5.681,-5.681,-5.681,-5.681,-5.681,-5.681,-5.681,-5.681,-5.681,-5.681,-5.681,-5.681,-5.6616,-5.6323,-5.6077,-5.5929,-5.578,-5.5681,-5.5731,-5.578,-5.5631,-5.5581,-5.5581,-5.5431,-5.528,-5.5179,-5.5179,-5.5179,-5.5179,-5.5179,-5.5179,0.0,0.0,-5.5179,-5.5179,-5.5179,-5.5179,-5.5179,-5.5179,-5.5179,-5.5179,-5.5179,-5.5179,-5.5179,-5.5179,-5.5179,-5.5179,-5.5179,-5.5179,-5.5179,-5.5179,-5.5179,-5.5179,-5.5179,-5.5179,-5.5179,-5.5179,-5.5179,-5.5179,-5.5179,-5.5179,-5.5179,-5.5179,-5.5179,-5.5179,-5.5149,-5.479,-5.467,-5.4581,-5.3892,-5.3653,-5.3563,-6.2381,-6.2381,-6.2381,-6.2381,-6.2381,-6.2381,-6.2381,-6.2381,-6.2381,-6.2381,-6.2381,-6.2381,-6.2381,-6.2381,-6.2381,-6.2381,-6.2381,-6.2381,-6.2381,-6.2381,-6.2381,-6.2381,-6.2381,-6.2381,-6.2381,-6.2381,-6.203,-6.135,-6.135,-6.0945,-6.0237,-6.0237,-6.0108,-5.9935,-5.9935,-5.9805,-5.9543,-5.8818,-5.8501,-5.8409,-5.7495,-5.7146,-5.7067,-5.6906,-5.681,-5.681,-5.681,-5.681,-5.681,-5.681,-5.681,-5.681,-5.681,-5.681,-5.681,-5.681,-5.6664,-5.6421,-5.6176,-5.6077,-5.6077,-5.6028,-5.6028,-5.6028,-5.5731,-5.5681,-5.5631,-5.533,-5.5229,-5.5179,-5.5179,-5.5179,-5.5179,-5.5179,0.0,0.0,0.0,-5.5179,-5.5229,-5.528,-5.5229,-5.5229,-5.528,-5.5229,-5.5179,-5.5179,-5.5179,-5.5179,-5.5179,-5.5179,-5.5179,-5.5179,-5.5179,-5.5179,-5.5179,-5.5179,-5.5179,-5.5179,-5.5179,-5.5179,-5.5179,-5.5179,-5.5179,-5.5179,-5.5179,-5.5089,-5.497,-5.497,-5.488,-5.467,-5.4162,-5.3982,-5.3892,-5.3204,-5.2965,-5.2845,-6.2381,-6.2381,-6.2381,-6.2381,-6.2381,-6.2381,-6.2381,-6.2381,-6.2381,-6.2381,-6.2381,-6.2381,-6.2381,-6.2381,-6.2381,-6.2381,-6.2381,-6.2381,-6.2381,-6.2381,-6.2381,-6.2381,-6.2381,-6.2381,-6.2381,-6.2381,-6.2381,-6.2302,-6.2302,-6.2263,-6.2223,-6.2223,-6.175,-6.0903,-6.0903,-6.0407,-5.9619,-5.9499,-5.9499,-5.9411,-5.8455,-5.8119,-5.798,-5.7115,-5.681,-5.681,-5.681,-5.681,-5.681,-5.681,-5.681,-5.681,-5.681,-5.681,-5.681,-5.681,-5.6761,-5.6713,-5.6421,-5.6372,-5.6323,-5.6077,-5.6176,-5.6323,-5.6028,-5.5979,-5.588,-5.5631,-5.5381,-5.5179,-5.5179,-5.5179,-5.5179,-5.5179,0.0,0.0,-5.5179,-5.5179,-5.528,-5.5531,-5.533,-5.528,-5.5531,-5.533,-5.5179,-5.5179,-5.5179,-5.5179,-5.5179,-5.5179,-5.5179,-5.5179,-5.5179,-5.5179,-5.5179,-5.5179,-5.5179,-5.5179,-5.5179,-5.5179,-5.5179,-5.5179,-5.5179,-5.5179,-5.5179,-5.485,-5.4281,-5.4281,-5.3892,-5.3324,-5.3264,-5.3264,-5.3174,-5.2516,-5.2276,-5.2187,-6.2576,-6.2459,-6.2381,-6.2381,-6.2381,-6.2381,-6.2381,-6.2381,-6.2381,-6.2381,-6.2381,-6.2381,-6.2381,-6.2381,-6.2381,-6.2381,-6.2381,-6.2381,-6.2381,-6.2381,-6.2381,-6.2381,-6.2381,-6.2381,-6.2381,-6.2381,-6.2381,-6.2381,-6.2381,-6.2381,-6.2381,-6.2381,-6.2223,-6.187,-6.187,-6.1676,-6.1309,-6.0736,-6.0482,-6.0397,-5.9487,-5.9088,-5.8953,-5.8026,-5.7653,-5.759,-5.7002,-5.681,-5.681,-5.681,-5.681,-5.681,-5.681,-5.681,-5.681,-5.681,-5.681,-5.6761,-5.6664,-5.6664,-5.6616,-5.6519,-5.6567,-5.6567,-5.6323,-5.6274,-5.6176,-5.588,-5.578,-5.5631,-5.5481,-5.5431,-5.5381,-5.5229,0.0,-5.5229,-5.5431,-5.5431,-5.5531,-5.583,-5.5631,-5.5481,-5.5581,-5.533,-5.5179,-5.5179,-5.5179,-5.5179,-5.5179,-5.5179,-5.5179,-5.5179,-5.5179,-5.5179,-5.5179,-5.5179,-5.5179,-5.5179,-5.5179,-5.5179,-5.5179,-5.5179,-5.497,-5.4581,-5.4581,-5.4192,-5.3563,-5.3563,-5.3414,-5.3144,-5.2725,-5.2576,-5.2486,-5.1828,-5.1588,-5.1558,-6.277,-6.2615,-6.2498,-6.2498,-6.242,-6.2381,-6.2381,-6.2381,-6.2381,-6.2381,-6.2381,-6.2381,-6.2381,-6.2381,-6.2381,-6.2381,-6.2381,-6.2381,-6.2381,-6.2381,-6.2381,-6.2381,-6.2381,-6.2381,-6.2381,-6.2381,-6.2381,-6.2381,-6.2381,-6.2381,-6.2381,-6.2381,-6.2381,-6.2381,-6.2381,-6.2381,-6.2341,-6.1716,-6.1432,-6.135,-6.044,-6.0022,-5.9935,-5.8998,-5.8487,-5.8119,-5.7495,-5.7019,-5.681,-5.681,-5.681,-5.681,-5.681,-5.681,-5.681,-5.681,-5.681,-5.681,-5.681,-5.681,-5.681,-5.681,-5.681,-5.6713,-5.647,-5.6421,-5.6323,-5.6077,-5.5979,-5.5929,-5.578,-5.5731,-5.5681,-5.5481,-5.5431,-5.5531,-5.5681,-5.5731,-5.583,-5.6077,-5.588,-5.5731,-5.5731,-5.5481,-5.528,-5.5179,-5.5179,-5.5179,-5.5179,-5.5179,-5.5179,-5.5179,-5.5179,-5.5179,-5.5179,-5.5179,-5.5179,-5.5179,-5.497,-5.488,-5.488,-5.467,-5.4311,-5.3892,-5.3892,-5.3503,-5.2875,-5.2875,-5.2755,-5.2516,-5.2067,-5.1887,-5.1828,-5.1379,-5.1229,-5.1229,-6.3,-6.2847,-6.2727,-6.2727,-6.2537,-6.2381,-6.2381,-6.2381,-6.2381,-6.2381,-6.2381,-6.2381,-6.2381,-6.2381,-6.2381,-6.2381,-6.2381,-6.2381,-6.2381,-6.2381,-6.2381,-6.2381,-6.2381,-6.2381,-6.2381,-6.2381,-6.2381,-6.2381,-6.2381,-6.2381,-6.2381,-6.2381,-6.2381,-6.2381,-6.2381,-6.2381,-6.2381,-6.2381,-6.2381,-6.2302,-6.1391,-6.0986,-6.0903,-5.9935,-5.9043,-5.8211,-5.8211,-5.759,-5.681,-5.681,-5.681,-5.681,-5.681,-5.681,-5.681,-5.681,-5.681,-5.681,-5.681,-5.681,-5.681,-5.681,-5.681,-5.6713,-5.647,-5.6421,-5.6323,-5.6077,-5.6028,-5.6028,-5.5979,-5.5979,-5.5979,-5.5979,-5.5979,-5.5979,-5.5979,-5.5979,-5.6127,-5.6372,-5.6176,-5.5979,-5.5979,-5.578,-5.5481,-5.5229,-5.5179,-5.5179,-5.5179,-5.5179,-5.5179,-5.5179,-5.5179,-5.5179,-5.5179,-5.5179,-5.5179,-5.5179,-5.4521,-5.4221,-5.4192,-5.3503,-5.3174,-5.3174,-5.3174,-5.2785,-5.2187,-5.2187,-5.1798,-5.1229,-5.1229,-5.1229,-5.1229,-5.1229,-5.1229,-5.1229,-6.3189,-6.2923,-6.2727,-6.2727,-6.2537,-6.2381,-6.2381,-6.2381,-6.2381,-6.2381,-6.2381,-6.2381,-6.2381,-6.2381,-6.2381,-6.2381,-6.2381,-6.2381,-6.2381,-6.2381,-6.2381,-6.2381,-6.2381,-6.2381,-6.2381,-6.2381,-6.2381,-6.2381,-6.2381,-6.2381,-6.2381,-6.2381,-6.2381,-6.2381,-6.2381,-6.2381,-6.2381,-6.2381,-6.2381,-6.2381,-6.2104,-6.1991,-6.187,-6.0945,-5.9979,-5.9088,-5.8441,-5.759,-5.681,-5.681,-5.681,-5.681,-5.681,-5.681,-5.681,-5.681,-5.681,-5.681,-5.681,-5.681,-5.681,-5.681,-5.681,-5.6761,-5.6713,-5.6664,-5.6664,-5.6567,-5.6567,-5.6519,-5.6323,-5.6274,-5.6225,-5.6028,-5.5979,-5.6077,-5.6274,-5.6274,-5.6372,-5.6664,-5.6421,-5.6274,-5.6274,-5.6028,-5.583,-5.578,-5.578,-5.578,-5.578,-5.578,-5.578,-5.578,-5.5581,-5.527,-5.4789,-5.507,-5.497,-5.4491,-5.4311,-5.3952,-5.3473,-5.3264,-5.2935,-5.2486,-5.2486,-5.2127,-5.1498,-5.1498,-5.1379,-5.1229,-5.1229,-5.1229,-5.1229,-5.1229,-5.1229,-5.1229,-6.3414,-6.3076,-6.2808,-6.2808,-6.2576,-6.2381,-6.2381,-6.2381,-6.2381,-6.2381,-6.2381,-6.2381,-6.2381,-6.2381,-6.2381,-6.2381,-6.2381,-6.2381,-6.2381,-6.2381,-6.2381,-6.2381,-6.2381,-6.2381,-6.2381,-6.2381,-6.2381,-6.2381,-6.2381,-6.2381,-6.2381,-6.2381,-6.2381,-6.2381,-6.2381,-6.2381,-6.2381,-6.2381,-6.2381,-6.2381,-6.2381,-6.2381,-6.2341,-6.179,-6.0986,-6.0065,-5.9499,-5.8728,-5.784,-5.7495,-5.7115,-5.681,-5.681,-5.681,-5.681,-5.681,-5.681,-5.681,-5.681,-5.681,-5.681,-5.681,-5.681,-5.681,-5.681,-5.681,-5.681,-5.681,-5.681,-5.6761,-5.6616,-5.6567,-5.6519,-5.6323,-5.6323,-5.6372,-5.6519,-5.6567,-5.6616,-5.6761,-5.6664,-5.6519,-5.6421,-5.6274,-5.6127,-5.6028,-5.5979,-5.5979,-5.5979,-5.5979,-5.5857,-5.5554,-5.5338,-5.4888,-5.4225,-5.434,-5.4192,-5.3803,-5.3533,-5.3204,-5.2785,-5.2516,-5.2187,-5.1798,-5.1798,-5.1588,-5.1229,-5.1229,-5.1229,-5.1229,-5.1229,-5.1229,-5.1229,-5.1229,-5.1229,-5.1229,-6.36,-6.3302,-6.3038,-6.3038,-6.2693,-6.2459,-6.2459,-6.2459,-6.2459,-6.242,-6.242,-6.242,-6.2381,-6.2381,-6.2381,-6.2381,-6.2381,-6.2381,-6.2381,-6.2381,-6.2381,-6.2381,-6.2381,-6.2381,-6.2381,-6.2381,-6.2381,-6.2381,-6.2381,-6.2381,-6.2381,-6.2381,-6.2381,-6.2381,-6.2381,-6.2381,-6.2381,-6.2381,-6.2381,-6.2381,-6.2381,-6.2381,-6.2381,-6.2381,-6.183,-6.0986,-6.0986,-6.0397,-5.9487,-5.8592,-5.7746,-5.705,-5.6954,-5.6954,-5.6906,-5.681,-5.681,-5.681,-5.681,-5.681,-5.681,-5.681,-5.681,-5.681,-5.681,-5.681,-5.681,-5.681,-5.681,-5.681,-5.681,-5.681,-5.681,-5.681,-5.681,-5.681,-5.681,-5.681,-5.681,-5.681,-5.681,-5.6713,-5.647,-5.6421,-5.6323,-5.6077,-5.6077,-5.6077,-5.6077,-5.6017,-5.5682,-5.4995,-5.4691,-5.4243,-5.3579,-5.3308,-5.3133,-5.3084,-5.2486,-5.2157,-5.2097,-5.1498,-5.1229,-5.1229,-5.1229,-5.1229,-5.1229,-5.1229,-5.1229,-5.1229,-5.1229,-5.1229,-5.1229,-5.1229,-5.1229,-5.1229,-6.36,-6.3414,-6.3227,-6.3227,-6.3038,-6.2885,-6.2885,-6.2885,-6.2808,-6.2688,-6.2615,-6.2576,-6.242,-6.2381,-6.2381,-6.2381,-6.2381,-6.2381,-6.2381,-6.2381,-6.2381,-6.2381,-6.2381,-6.2381,-6.2381,-6.2381,-6.2381,-6.2381,-6.2381,-6.2381,-6.2381,-6.2381,-6.2381,-6.2381,-6.2381,-6.2381,-6.2381,-6.2381,-6.2381,-6.2381,-6.2381,-6.2381,-6.2381,-6.2381,-6.183,-6.0986,-6.0986,-6.0397,-5.9543,-5.9399,-5.9145,-5.8831,-5.8119,-5.7887,-5.7746,-5.705,-5.681,-5.681,-5.681,-5.681,-5.681,-5.681,-5.681,-5.681,-5.681,-5.681,-5.681,-5.681,-5.681,-5.681,-5.681,-5.681,-5.681,-5.681,-5.681,-5.681,-5.681,-5.681,-5.681,-5.681,-5.681,-5.6761,-5.6713,-5.6713,-5.6713,-5.6616,-5.6616,-5.6616,-5.6616,-5.6094,-5.5695,-5.5541,-5.4765,-5.3996,-5.3122,-5.2886,-5.2617,-5.2426,-5.2276,-5.1917,-5.1439,-5.1289,-5.1229,-5.1229,-5.1229,-5.1229,-5.1229,-5.1229,-5.1229,-5.1229,-5.1229,-5.1229,-5.1229,-5.1229,-5.1229,-5.1229,-6.36,-6.3452,-6.3302,-6.3302,-6.3114,-6.3,-6.3,-6.2923,-6.2808,-6.2693,-6.2649,-6.2498,-6.242,-6.2381,-6.2381,-6.2381,-6.2381,-6.2381,-6.2381,-6.2381,-6.2381,-6.2381,-6.2381,-6.2381,-6.2381,-6.2381,-6.2381,-6.2381,-6.2381,-6.2381,-6.2381,-6.2381,-6.2381,-6.2381,-6.2381,-6.2381,-6.2381,-6.2381,-6.2381,-6.2381,-6.2381,-6.2381,-6.2381,-6.2381,-6.2104,-6.1676,-6.1676,-6.1069,-6.0269,-6.0269,-5.9979,-5.9443,-5.8532,-5.8211,-5.8026,-5.7098,-5.681,-5.681,-5.681,-5.681,-5.681,-5.681,-5.681,-5.681,-5.681,-5.681,-5.681,-5.681,-5.681,-5.681,-5.681,-5.681,-5.681,-5.681,-5.681,-5.681,-5.681,-5.681,-5.681,-5.681,-5.681,-5.681,-5.681,-5.681,-5.681,-5.681,-5.6502,-5.6317,-5.6317,-5.5592,-5.5099,-5.476,-5.4159,-5.3452,-5.2673,-5.2425,-5.2162,-5.1927,-5.1785,-5.1558,-5.1229,-5.1229,-5.1229,-5.1229,-5.1229,-5.1229,-5.1229,-5.1229,-5.1229,-5.1229,-5.1229,-5.1229,-5.1229,-5.1229,-5.1229,-5.1229,-6.36,-6.3452,-6.334,-6.334,-6.3227,-6.3114,-6.3114,-6.2962,-6.2847,-6.2808,-6.2615,-6.2498,-6.2459,-6.242,-6.2381,-6.2381,-6.2381,-6.2381,-6.2381,-6.2381,-6.2381,-6.2381,-6.2381,-6.2381,-6.2381,-6.2381,-6.2381,-6.2381,-6.2381,-6.2381,-6.2381,-6.2381,-6.2381,-6.2381,-6.2381,-6.2381,-6.2381,-6.2381,-6.2381,-6.2381,-6.2381,-6.2381,-6.2381,-6.2381,-6.2381,-6.2381,-6.2381,-6.1911,-6.1268,-6.1268,-6.0736,-5.9892,-5.8998,-5.8683,-5.8501,-5.7559,-5.7163,-5.705,-5.705,-5.6906,-5.681,-5.681,-5.681,-5.681,-5.681,-5.681,-5.681,-5.681,-5.681,-5.681,-5.681,-5.681,-5.681,-5.681,-5.681,-5.681,-5.681,-5.681,-5.681,-5.681,-5.681,-5.681,-5.681,-5.6717,-5.6625,-5.6625,-5.593,-5.553,-5.553,-5.4914,-5.4252,-5.3745,-5.3362,-5.2902,-5.2306,-5.2109,-5.188,-5.1572,-5.1323,-5.1229,-5.1229,-5.1229,-5.1229,-5.1229,-5.1229,-5.1229,-5.1229,-5.1229,-5.1229,-5.1229,-5.1229,-5.1229,-5.1229,-5.1229,-5.1229,-5.1229,-6.36,-6.36,-6.3563,-6.3563,-6.3526,-6.3526,-6.3526,-6.3489,-6.3414,-6.3227,-6.3038,-6.2847,-6.2654,-6.2498,-6.2381,-6.2381,-6.2381,-6.2381,-6.2381,-6.2381,-6.2381,-6.2381,-6.2381,-6.2381,-6.2381,-6.2381,-6.2381,-6.2381,-6.2381,-6.2381,-6.2381,-6.2381,-6.2381,-6.2381,-6.2381,-6.2381,-6.2381,-6.2381,-6.2381,-6.2381,-6.2381,-6.2381,-6.2381,-6.2381,-6.2381,-6.2381,-6.2381,-6.2302,-6.2223,-6.2223,-6.2144,-6.187,-6.0903,-6.0609,-6.044,-5.9499,-5.8637,-5.8026,-5.8026,-5.7401,-5.681,-5.681,-5.681,-5.681,-5.681,-5.681,-5.681,-5.681,-5.681,-5.681,-5.681,-5.681,-5.681,-5.681,-5.681,-5.681,-5.681,-5.681,-5.681,-5.681,-5.681,-5.681,-5.681,-5.6207,-5.5838,-5.5838,-5.5222,-5.4853,-5.4853,-5.4206,-5.3806,-5.3714,-5.3114,-5.2655,-5.2306,-5.2109,-5.188,-5.1572,-5.1323,-5.1229,-5.1229,-5.1229,-5.1229,-5.1229,-5.1229,-5.1229,-5.1229,-5.1229,-5.1229,-5.1229,-5.1229,-5.1229,-5.1229,-5.1229,-5.1229,-5.1229,-6.36,-6.36,-6.36,-6.36,-6.36,-6.36,-6.36,-6.3489,-6.3377,-6.3302,-6.3114,-6.2962,-6.2885,-6.2693,-6.2537,-6.2537,-6.2459,-6.2381,-6.2381,-6.2381,-6.2381,-6.2381,-6.2381,-6.2381,-6.2381,-6.2381,-6.2381,-6.2381,-6.2381,-6.2381,-6.2381,-6.2381,-6.2381,-6.2381,-6.2381,-6.2381,-6.2381,-6.2381,-6.2381,-6.2381,-6.2381,-6.2381,-6.2381,-6.2381,-6.2381,-6.2381,-6.2381,-6.2381,-6.2381,-6.2381,-6.2381,-6.2263,-6.1309,-6.0986,-6.082,-5.9881,-5.9311,-5.8998,-5.8998,-5.8683,-5.8363,-5.8363,-5.8363,-5.8226,-5.77,-5.7559,-5.7448,-5.6906,-5.681,-5.681,-5.681,-5.681,-5.681,-5.681,-5.681,-5.681,-5.681,-5.681,-5.681,-5.681,-5.681,-5.6656,-5.6255,-5.5869,-5.553,-5.5191,-5.4545,-5.4129,-5.4129,-5.3529,-5.316,-5.316,-5.2852,-5.2563,-5.2306,-5.2215,-5.1972,-5.1572,-5.1479,-5.1339,-5.1229,-5.1229,-5.1229,-5.1229,-5.1229,-5.1229,-5.1229,-5.1229,-5.1229,-5.1229,-5.1229,-5.1229,-5.1229,-5.1229,-5.1229,-5.1229]},{"header":{"parameterUnit":"m.s-1","parameterCategory":1,"la1":30.6,"la2":28.766,"lo1":-90.7593,"lo2":-88.6598,"dy":0.0162,"dx":0.0183,"nx":116,"ny":114,"refTime":"2023-06-13T06:00:00:Z","depth":0,"parameterNumber":3,"parameterNumberName":"V-component_of_WINDS"},"data":[0.0,0.0,0.0,0.0,0.0,0.0,0.0,0.0,0.0,0.0,0.0,0.0,0.0,0.0,0.0,0.0,0.0,0.0,0.0,0.0,0.0,0.0,0.0,0.0,0.0,0.0,0.0,0.0,0.0,0.0,0.0,0.0,0.0,0.0,0.0,0.0,0.0,0.0,0.0,0.0,0.0,0.0,0.0,0.0,0.0,0.0,0.0,0.0,0.0,0.0,0.0,0.0,0.0,0.0,0.0,0.0,0.0,0.0,0.0,0.0,0.0,0.0,0.0,0.0,0.0,0.0,0.0,0.0,0.0,0.0,0.0,0.0,0.0,0.0,0.0,0.0,0.0,0.0,0.0,0.0,0.0,0.0,0.0,0.0,0.0,0.0,0.0,0.0,0.0,0.0,0.0,0.0,0.0,0.0,0.0,0.0,0.0,0.0,0.0,0.0,0.0,0.0,0.0,0.0,0.0,0.0,0.0,0.0,0.0,0.0,0.0,0.0,0.0,0.0,0.0,0.0,0.0,0.0,0.0,0.0,0.0,0.0,0.0,0.0,0.0,0.0,0.0,0.0,0.0,0.0,0.0,0.0,0.0,0.0,0.0,0.0,0.0,0.0,0.0,0.0,0.0,0.0,0.0,0.0,0.0,0.0,0.0,0.0,0.0,0.0,0.0,0.0,0.0,0.0,0.0,0.0,0.0,0.0,0.0,0.0,0.0,0.0,0.0,0.0,0.0,0.0,0.0,0.0,0.0,0.0,0.0,0.0,0.0,0.0,0.0,0.0,0.0,0.0,0.0,0.0,0.0,0.0,0.0,0.0,0.0,0.0,0.0,0.0,0.0,0.0,0.0,0.0,0.0,0.0,0.0,0.0,0.0,0.0,0.0,0.0,0.0,0.0,0.0,0.0,0.0,0.0,0.0,0.0,0.0,0.0,0.0,0.0,0.0,0.0,0.0,0.0,0.0,0.0,0.0,0.0,0.0,0.0,0.0,0.0,0.0,0.0,0.0,0.0,0.0,0.0,0.0,0.0,0.0,0.0,0.0,0.0,0.0,0.0,0.0,0.0,0.0,0.0,0.0,0.0,0.0,0.0,0.0,0.0,0.0,0.0,0.0,0.0,0.0,0.0,0.0,0.0,0.0,0.0,0.0,0.0,0.0,0.0,0.0,0.0,0.0,0.0,0.0,0.0,0.0,0.0,0.0,0.0,0.0,0.0,0.0,0.0,0.0,0.0,0.0,0.0,0.0,0.0,0.0,0.0,0.0,0.0,0.0,0.0,0.0,0.0,0.0,0.0,0.0,0.0,0.0,0.0,0.0,0.0,0.0,0.0,0.0,0.0,0.0,0.0,0.0,0.0,0.0,0.0,0.0,0.0,0.0,0.0,0.0,0.0,0.0,0.0,0.0,0.0,0.0,0.0,0.0,0.0,0.0,0.0,0.0,0.0,0.0,0.0,0.0,0.0,0.0,0.0,0.0,0.0,0.0,0.0,0.0,0.0,0.0,0.0,0.0,0.0,0.0,0.0,0.0,0.0,0.0,0.0,0.0,0.0,0.0,0.0,0.0,0.0,0.0,0.0,0.0,0.0,0.0,0.0,0.0,0.0,0.0,0.0,0.0,0.0,0.0,0.0,0.0,0.0,0.0,0.0,0.0,0.0,0.0,0.0,0.0,0.0,0.0,0.0,0.0,0.0,0.0,0.0,0.0,0.0,0.0,0.0,0.0,0.0,0.0,0.0,0.0,0.0,0.0,0.0,0.0,0.0,0.0,0.0,0.0,0.0,0.0,0.0,0.0,0.0,0.0,0.0,0.0,0.0,0.0,0.0,0.0,0.0,0.0,0.0,0.0,0.0,0.0,0.0,0.0,0.0,0.0,0.0,0.0,0.0,0.0,0.0,0.0,0.0,0.0,0.0,0.0,0.0,0.0,0.0,0.0,0.0,0.0,0.0,0.0,0.0,0.0,0.0,0.0,0.0,0.0,0.0,0.0,0.0,0.0,0.0,0.0,0.0,0.0,0.0,0.0,0.0,0.0,0.0,0.0,0.0,0.0,0.0,0.0,0.0,0.0,0.0,0.0,0.0,0.0,0.0,0.0,0.0,0.0,0.0,0.0,0.0,0.0,0.0,0.0,0.0,0.0,0.0,0.0,0.0,0.0,0.0,0.0,0.0,0.0,0.0,0.0,0.0,0.0,0.0,0.0,0.0,0.0,0.0,0.0,0.0,0.0,0.0,0.0,0.0,0.0,0.0,0.0,0.0,0.0,0.0,0.0,0.0,0.0,0.0,0.0,0.0,0.0,0.0,0.0,0.0,0.0,0.0,0.0,0.0,0.0,0.0,0.0,0.0,0.0,0.0,0.0,0.0,0.0,0.0,0.0,0.0,0.0,0.0,0.0,0.0,0.0,0.0,0.0,0.0,0.0,0.0,0.0,0.0,0.0,0.0,0.0,0.0,0.0,0.0,0.0,0.0,0.0,0.0,0.0,0.0,0.0,0.0,0.0,0.0,0.0,0.0,0.0,0.0,0.0,0.0,0.0,0.0,0.0,0.0,0.0,0.0,0.0,0.0,0.0,0.0,0.0,0.0,0.0,0.0,0.0,0.0,0.0,0.0,0.0,0.0,0.0,0.0,0.0,0.0,0.0,0.0,0.0,0.0,0.0,0.0,0.0,0.0,0.0,0.0,0.0,0.0,0.0,0.0,0.0,0.0,0.0,0.0,0.0,0.0,0.0,0.0,0.0,0.0,0.0,0.0,0.0,0.0,0.0,0.0,0.0,0.0,0.0,0.0,0.0,0.0,0.0,0.0,0.0,0.0,0.0,0.0,0.0,0.0,0.0,0.0,0.0,0.0,0.0,0.0,0.0,0.0,0.0,0.0,0.0,0.0,0.0,0.0,0.0,0.0,0.0,0.0,0.0,0.0,0.0,0.0,0.0,0.0,0.0,0.0,0.0,0.0,0.0,0.0,0.0,0.0,0.0,0.0,0.0,0.0,0.0,0.0,0.0,0.0,0.0,0.0,0.0,0.0,0.0,0.0,0.0,0.0,0.0,0.0,0.0,0.0,0.0,0.0,0.0,0.0,0.0,0.0,0.0,0.0,0.0,0.0,0.0,0.0,0.0,0.0,0.0,0.0,0.0,0.0,0.0,0.0,0.0,0.0,0.0,0.0,0.0,0.0,0.0,0.0,0.0,0.0,0.0,0.0,0.0,0.0,0.0,0.0,0.0,0.0,0.0,0.0,0.0,0.0,0.0,0.0,0.0,0.0,0.0,0.0,0.0,0.0,0.0,0.0,0.0,0.0,0.0,0.0,0.0,0.0,0.0,0.0,0.0,0.0,0.0,0.0,0.0,0.0,0.0,0.0,0.0,0.0,0.0,0.0,0.0,0.0,0.0,0.0,0.0,0.0,0.0,0.0,0.0,0.0,0.0,0.0,0.0,0.0,0.0,0.0,0.0,0.0,0.0,0.0,0.0,0.0,0.0,0.0,0.0,0.0,0.0,0.0,0.0,0.0,0.0,0.0,0.0,0.0,0.0,0.0,0.0,0.0,0.0,0.0,0.0,0.0,0.0,0.0,0.0,0.0,0.0,0.0,0.0,0.0,0.0,0.0,0.0,0.0,0.0,0.0,0.0,0.0,0.0,0.0,0.0,0.0,0.0,0.0,0.0,0.0,0.0,0.0,0.0,0.0,0.0,0.0,0.0,0.0,0.0,0.0,0.0,0.0,0.0,0.0,0.0,0.0,0.0,0.0,0.0,0.0,0.0,0.0,0.0,0.0,0.0,0.0,0.0,0.0,0.0,0.0,0.0,0.0,0.0,0.0,0.0,0.0,0.0,0.0,0.0,0.0,0.0,0.0,0.0,0.0,0.0,0.0,0.0,0.0,0.0,0.0,0.0,0.0,0.0,0.0,0.0,0.0,0.0,0.0,0.0,0.0,0.0,0.0,0.0,0.0,0.0,0.0,0.0,0.0,0.0,0.0,0.0,0.0,0.0,0.0,0.0,0.0,0.0,0.0,0.0,0.0,0.0,0.0,0.0,0.0,0.0,0.0,0.0,0.0,0.0,0.0,0.0,0.0,0.0,0.0,0.0,0.0,0.0,0.0,0.0,0.0,0.0,0.0,0.0,0.0,0.0,0.0,0.0,0.0,0.0,0.0,0.0,0.0,0.0,0.0,0.0,0.0,0.0,0.0,0.0,0.0,0.0,0.0,0.0,0.0,0.0,0.0,0.0,0.0,0.0,0.0,0.0,0.0,0.0,0.0,0.0,0.0,0.0,0.0,0.0,0.0,0.0,0.0,0.0,0.0,0.0,0.0,0.0,0.0,0.0,0.0,0.0,0.0,0.0,0.0,0.0,0.0,0.0,0.0,0.0,0.0,0.0,0.0,0.0,0.0,0.0,0.0,0.0,0.0,0.0,0.0,0.0,0.0,0.0,0.0,0.0,0.0,0.0,0.0,0.0,0.0,0.0,0.0,0.0,0.0,0.0,0.0,0.0,0.0,0.0,0.0,0.0,0.0,0.0,0.0,0.0,0.0,0.0,0.0,0.0,0.0,0.0,0.0,0.0,0.0,0.0,0.0,0.0,0.0,0.0,0.0,0.0,0.0,0.0,0.0,0.0,0.0,0.0,0.0,0.0,0.0,0.0,0.0,0.0,0.0,0.0,0.0,0.0,0.0,0.0,0.0,0.0,0.0,0.0,0.0,0.0,0.0,0.0,0.0,0.0,0.0,0.0,0.0,0.0,0.0,0.0,0.0,0.0,0.0,0.0,0.0,0.0,0.0,0.0,0.0,0.0,0.0,0.0,0.0,0.0,0.0,0.0,0.0,0.0,0.0,0.0,0.0,0.0,0.0,0.0,0.0,0.0,0.0,0.0,0.0,0.0,0.0,0.0,0.0,0.0,0.0,0.0,0.0,0.0,0.0,0.0,0.0,0.0,0.0,0.0,0.0,0.0,0.0,0.0,0.0,0.0,0.0,0.0,0.0,0.0,0.0,0.0,0.0,0.0,0.0,0.0,0.0,0.0,0.0,0.0,0.0,0.0,0.0,0.0,0.0,0.0,0.0,0.0,0.0,0.0,0.0,0.0,0.0,0.0,0.0,0.0,0.0,0.0,0.0,0.0,0.0,0.0,0.0,0.0,0.0,0.0,0.0,0.0,0.0,0.0,0.0,0.0,0.0,0.0,0.0,0.0,0.0,0.0,0.0,0.0,0.0,0.0,0.0,0.0,0.0,0.0,0.0,0.0,0.0,0.0,0.0,0.0,0.0,0.0,0.0,0.0,0.0,0.0,0.0,0.0,0.0,0.0,0.0,0.0,0.0,0.0,0.0,0.0,0.0,0.0,0.0,0.0,0.0,0.0,0.0,0.0,0.0,0.0,0.0,0.0,0.0,0.0,0.0,0.0,0.0,0.0,0.0,0.0,0.0,0.0,0.0,0.0,0.0,0.0,0.0,0.0,0.0,0.0,0.0,0.0,0.0,0.0,0.0,0.0,0.0,0.0,0.0,0.0,0.0,0.0,0.0,0.0,0.0,0.0,0.0,0.0,0.0,0.0,0.0,0.0,0.0,0.0,0.0,0.0,0.0,0.0,0.0,0.0,0.0,0.0,0.0,0.0,0.0,0.0,0.0,0.0,0.0,0.0,0.0,0.0,0.0,0.0,0.0,0.0,0.0,0.0,0.0,0.0,0.0,0.0,0.0,0.0,0.0,0.0,0.0,0.0,0.0,0.0,0.0,0.0,0.0,0.0,0.0,0.0,0.0,0.0,0.0,0.0,0.0,0.0,0.0,0.0,0.0,0.0,0.0,0.0,0.0,0.0,0.0,0.0,0.0,0.0,0.0,0.0,0.0,0.0,0.0,0.0,0.0,0.0,0.0,0.0,0.0,0.0,0.0,0.0,0.0,0.0,0.0,0.0,0.0,0.0,0.0,0.0,0.0,0.0,0.0,0.0,0.0,0.0,0.0,0.0,0.0,0.0,0.0,0.0,0.0,0.0,0.0,0.0,0.0,0.0,0.0,0.0,0.0,0.0,0.0,0.0,0.0,0.0,0.0,0.0,0.0,0.0,0.0,0.0,0.0,0.0,0.0,0.0,0.0,-3.8336,0.0,0.0,0.0,0.0,0.0,0.0,0.0,0.0,0.0,0.0,0.0,0.0,0.0,0.0,0.0,0.0,0.0,0.0,0.0,0.0,0.0,0.0,0.0,0.0,0.0,0.0,0.0,0.0,0.0,0.0,0.0,0.0,0.0,0.0,0.0,0.0,0.0,0.0,0.0,0.0,0.0,0.0,0.0,0.0,0.0,0.0,0.0,0.0,0.0,0.0,0.0,0.0,0.0,0.0,0.0,0.0,0.0,0.0,0.0,0.0,0.0,0.0,0.0,0.0,0.0,0.0,0.0,0.0,0.0,0.0,0.0,0.0,0.0,0.0,0.0,0.0,0.0,0.0,0.0,0.0,0.0,0.0,0.0,0.0,0.0,0.0,0.0,0.0,0.0,0.0,0.0,0.0,0.0,0.0,0.0,0.0,0.0,0.0,0.0,0.0,0.0,0.0,0.0,0.0,0.0,0.0,0.0,0.0,0.0,0.0,0.0,0.0,0.0,0.0,0.0,0.0,-3.8957,0.0,0.0,0.0,0.0,0.0,0.0,0.0,0.0,0.0,0.0,0.0,0.0,0.0,0.0,0.0,0.0,0.0,0.0,0.0,0.0,0.0,0.0,0.0,0.0,0.0,0.0,0.0,0.0,0.0,0.0,0.0,0.0,0.0,0.0,0.0,0.0,0.0,0.0,0.0,0.0,0.0,0.0,0.0,0.0,0.0,0.0,0.0,0.0,0.0,0.0,0.0,0.0,0.0,0.0,0.0,0.0,0.0,0.0,0.0,0.0,0.0,0.0,0.0,0.0,0.0,0.0,0.0,0.0,0.0,0.0,0.0,0.0,0.0,0.0,0.0,0.0,0.0,0.0,0.0,0.0,0.0,0.0,0.0,0.0,0.0,0.0,0.0,0.0,0.0,0.0,0.0,0.0,0.0,0.0,0.0,0.0,0.0,0.0,0.0,0.0,0.0,0.0,0.0,0.0,0.0,0.0,0.0,0.0,0.0,-3.8889,-3.891,-3.9385,-3.9592,-3.9661,-3.9744,-3.9723,-3.9661,0.0,0.0,0.0,0.0,0.0,0.0,0.0,0.0,0.0,0.0,0.0,0.0,0.0,0.0,0.0,0.0,0.0,0.0,0.0,0.0,0.0,0.0,0.0,0.0,0.0,0.0,0.0,0.0,0.0,0.0,0.0,0.0,0.0,0.0,0.0,0.0,0.0,0.0,0.0,-4.5895,-4.5895,-4.5895,-4.5895,-4.5895,0.0,0.0,0.0,0.0,0.0,0.0,0.0,0.0,0.0,0.0,0.0,0.0,0.0,0.0,0.0,0.0,0.0,0.0,0.0,0.0,0.0,0.0,0.0,0.0,0.0,0.0,0.0,0.0,0.0,0.0,0.0,0.0,0.0,0.0,0.0,0.0,0.0,0.0,0.0,0.0,0.0,0.0,0.0,-4.4744,-4.5296,0.0,0.0,0.0,0.0,0.0,0.0,0.0,0.0,0.0,0.0,0.0,0.0,0.0,0.0,-3.8088,-3.8543,-3.8683,-3.8703,-3.9158,-3.9385,-3.9385,-3.986,-4.0116,-4.0116,-4.053,0.0,-4.0096,-4.0137,0.0,0.0,0.0,0.0,0.0,0.0,0.0,0.0,0.0,0.0,0.0,0.0,0.0,0.0,0.0,0.0,0.0,0.0,0.0,0.0,0.0,0.0,0.0,0.0,0.0,0.0,0.0,0.0,0.0,0.0,0.0,0.0,0.0,0.0,0.0,0.0,-4.5895,-4.5895,-4.5895,-4.5895,-4.5895,-4.5895,-4.5895,-4.5895,-4.5895,-4.5895,0.0,0.0,0.0,0.0,0.0,0.0,0.0,0.0,0.0,0.0,0.0,0.0,0.0,0.0,0.0,0.0,0.0,0.0,0.0,0.0,0.0,0.0,0.0,0.0,0.0,0.0,0.0,0.0,0.0,0.0,0.0,0.0,0.0,0.0,0.0,0.0,0.0,0.0,0.0,-4.497,-4.5321,-4.5874,-4.5949,-4.532,0.0,0.0,0.0,0.0,0.0,0.0,0.0,0.0,0.0,-3.8171,-3.8419,-3.8564,-3.8564,-3.8931,-3.9158,-3.9179,-3.9633,-3.986,-3.9951,-4.0386,-4.0593,-4.0593,-4.0779,-4.0758,-4.0572,-4.0593,-4.0696,-4.0882,0.0,0.0,0.0,0.0,0.0,-4.5594,0.0,0.0,0.0,0.0,0.0,0.0,0.0,0.0,0.0,0.0,0.0,0.0,0.0,0.0,0.0,-4.585,0.0,0.0,0.0,0.0,0.0,0.0,0.0,0.0,0.0,0.0,0.0,0.0,-4.5895,-4.5895,-4.5895,-4.5895,-4.5895,-4.5895,-4.5895,-4.5895,-4.5895,-4.5895,-4.5982,0.0,0.0,0.0,0.0,0.0,0.0,0.0,0.0,0.0,0.0,0.0,0.0,0.0,0.0,0.0,0.0,0.0,0.0,0.0,0.0,0.0,0.0,0.0,0.0,0.0,0.0,0.0,0.0,0.0,0.0,0.0,0.0,0.0,0.0,0.0,0.0,0.0,0.0,-4.5698,-4.5849,-4.625,-4.6301,-4.5764,0.0,0.0,0.0,0.0,0.0,0.0,-3.8258,-3.8191,-3.8233,-3.8357,-3.8667,-3.8827,-3.8951,-3.9406,-3.9654,-3.9654,-4.0179,-4.0406,-4.0406,-4.0737,-4.0882,-4.0882,-4.0882,-4.0882,-4.0882,-4.0882,-4.1147,-4.1431,-4.1431,-4.2327,-4.37,-4.4045,-4.5526,-4.7491,0.0,0.0,0.0,0.0,0.0,0.0,0.0,0.0,0.0,0.0,0.0,0.0,0.0,0.0,0.0,-4.5895,-4.5895,-4.5895,0.0,0.0,0.0,0.0,0.0,0.0,0.0,0.0,0.0,-4.5895,-4.5895,-4.5895,-4.5895,-4.5895,-4.5895,-4.5895,-4.5895,-4.5895,-4.5895,-4.5895,-4.6243,-4.672,0.0,0.0,0.0,0.0,0.0,0.0,0.0,0.0,0.0,0.0,0.0,0.0,0.0,0.0,0.0,0.0,0.0,0.0,0.0,0.0,0.0,0.0,0.0,0.0,0.0,0.0,0.0,0.0,0.0,0.0,0.0,0.0,0.0,0.0,0.0,0.0,0.0,0.0,0.0,-4.6301,-4.6301,0.0,0.0,0.0,0.0,-4.2178,-4.0817,-3.9561,-3.8258,-3.8191,-3.8378,-3.8724,-3.8765,-3.8993,-3.9426,-3.9902,-4.0199,-4.0199,-4.0634,-4.0841,-4.0841,-4.0862,-4.0882,-4.0882,-4.0882,-4.0882,-4.0882,-4.0882,-4.1714,-4.2958,-4.2958,-4.3838,-4.5232,-4.667,-4.7293,-4.7623,0.0,0.0,0.0,0.0,0.0,0.0,0.0,0.0,0.0,0.0,0.0,0.0,0.0,0.0,0.0,0.0,-4.5895,-4.5895,-4.5895,0.0,0.0,0.0,0.0,0.0,0.0,0.0,-4.5895,-4.5895,-4.5895,-4.5895,-4.5895,-4.5895,-4.5895,-4.5895,-4.5895,-4.6127,-4.6505,-4.6505,-4.6621,-4.6807,-4.7288,-4.7579,0.0,0.0,0.0,0.0,0.0,0.0,0.0,0.0,0.0,0.0,0.0,0.0,0.0,0.0,0.0,0.0,0.0,0.0,0.0,0.0,0.0,0.0,0.0,0.0,0.0,0.0,0.0,0.0,0.0,0.0,0.0,0.0,0.0,0.0,0.0,0.0,0.0,-4.6301,-4.6301,0.0,-4.6301,-4.5098,-4.4127,-4.3606,-4.146,-4.0149,-3.9946,-3.9076,-3.8833,-3.9199,-3.9509,-3.9736,-3.9992,-4.0427,-4.0634,-4.0655,-4.08,-4.0882,-4.0882,-4.1193,-4.1317,-4.1338,-4.1628,-4.2385,-4.3279,-4.3279,-4.3219,-4.3167,-4.4114,-4.5323,-4.667,-4.7202,-4.8019,-4.8918,0.0,0.0,0.0,0.0,0.0,0.0,0.0,0.0,0.0,0.0,0.0,0.0,0.0,0.0,0.0,0.0,0.0,0.0,0.0,0.0,0.0,0.0,0.0,0.0,0.0,-4.5895,-4.5895,-4.5895,-4.5895,-4.5895,-4.5895,-4.5895,-4.5895,-4.5895,-4.6098,-4.6446,-4.6807,-4.7242,-4.7416,-4.7445,-4.7927,-4.8217,-4.842,0.0,0.0,0.0,0.0,0.0,0.0,0.0,0.0,0.0,0.0,0.0,0.0,0.0,0.0,0.0,0.0,0.0,0.0,0.0,0.0,0.0,0.0,0.0,0.0,0.0,0.0,0.0,0.0,0.0,0.0,0.0,0.0,0.0,0.0,0.0,-4.6301,-4.6301,-4.6301,-4.6301,-4.6301,-4.5098,-4.4312,-4.4312,-4.1874,-4.0585,-4.0913,-3.9724,-3.922,-3.9695,-4.0054,-4.0303,-4.0448,-4.0737,-4.0882,-4.0882,-4.1027,-4.111,-4.1131,-4.1586,-4.1866,-4.1887,-4.269,-4.3671,-4.4711,-4.5711,-4.5751,-4.5231,-4.6171,-4.7417,-4.8712,-4.8712,-4.9208,-4.9841,0.0,0.0,0.0,0.0,0.0,0.0,0.0,0.0,0.0,0.0,0.0,0.0,0.0,0.0,0.0,0.0,0.0,0.0,0.0,0.0,0.0,0.0,0.0,0.0,-4.5895,-4.5895,-4.5895,-4.5895,-4.5895,-4.5895,-4.5895,-4.5895,-4.5895,-4.5924,-4.6534,-4.6807,-4.6894,-4.8188,-4.8692,-4.874,-4.874,-4.9117,-4.9717,0.0,0.0,0.0,0.0,0.0,0.0,0.0,0.0,0.0,0.0,0.0,0.0,0.0,0.0,0.0,0.0,0.0,0.0,0.0,0.0,0.0,0.0,0.0,0.0,0.0,0.0,0.0,0.0,0.0,0.0,0.0,0.0,0.0,-4.6301,-4.6301,-4.6301,-4.6301,-4.6301,-4.6301,-4.6301,-4.5135,-4.4374,-4.4398,-4.2321,-4.1001,-4.1045,-4.0108,-3.9765,-4.0241,-4.022,-4.0427,-4.0862,-4.0882,-4.0882,-4.0903,-4.1358,-4.1565,-4.1607,-4.2136,-4.2417,-4.249,-4.4055,-4.4755,-4.5042,-4.7934,-4.9153,-4.9221,-4.9173,-5.0014,-5.1272,-5.1272,-5.0921,-5.0368,0.0,0.0,0.0,0.0,0.0,0.0,0.0,0.0,0.0,0.0,0.0,0.0,0.0,0.0,0.0,0.0,0.0,0.0,0.0,0.0,0.0,0.0,0.0,0.0,-4.5895,-4.5895,-4.5895,-4.5895,-4.5895,-4.5895,-4.5895,-4.5895,-4.5895,-4.5924,-4.6534,-4.7085,-4.7579,-4.8391,-4.9001,-4.9407,-4.9407,-4.9524,-4.9717,0.0,0.0,0.0,0.0,0.0,0.0,0.0,0.0,0.0,0.0,0.0,0.0,0.0,0.0,0.0,0.0,0.0,0.0,0.0,0.0,0.0,0.0,0.0,0.0,0.0,0.0,0.0,0.0,0.0,0.0,0.0,0.0,-4.6301,-4.6301,-4.6301,-4.6301,-4.6301,-4.6301,-4.6301,-4.6301,-4.5999,-4.5906,-4.6278,-4.4846,-4.3822,-4.3441,-4.2296,-4.1316,-4.0746,-4.0696,-4.0737,-4.0882,-4.0882,-4.1048,-4.1379,-4.1503,-4.1825,-4.2156,-4.3751,-4.4457,-4.4552,-4.6463,-4.7921,-4.8991,-4.9862,-5.0864,-5.1737,-5.1035,-5.0938,-5.1272,-5.1272,-5.1172,-5.0971,0.0,0.0,0.0,0.0,0.0,0.0,0.0,0.0,0.0,0.0,0.0,0.0,0.0,0.0,0.0,0.0,0.0,0.0,0.0,0.0,0.0,0.0,0.0,-4.5895,-4.5895,-4.5895,-4.5895,-4.5895,-4.5895,-4.5895,-4.5895,-4.5895,-4.5895,-4.5924,-4.6824,-4.7433,-4.784,-4.874,-4.9349,-4.9717,-4.9717,-4.9717,-4.9717,-4.9717,-4.9717,-4.9717,-4.9717,-4.9717,-4.9717,-4.9717,0.0,0.0,0.0,0.0,0.0,0.0,0.0,0.0,0.0,0.0,0.0,0.0,0.0,0.0,0.0,0.0,0.0,0.0,0.0,0.0,0.0,0.0,0.0,0.0,-4.6301,-4.6301,-4.6301,-4.6301,-4.6301,-4.6301,-4.6301,-4.6301,-4.6301,-4.6527,-4.6778,-4.7043,-4.5667,-4.4989,-4.5314,-4.3078,-4.1769,-4.1834,-4.1218,-4.0882,-4.0882,-4.1069,-4.1296,-4.1565,-4.1959,-4.2269,-4.2633,-4.4663,-4.5522,0.0,-4.8197,-4.9771,-5.0646,-5.1303,-5.2119,0.0,0.0,0.0,0.0,0.0,-5.1624,-5.1548,0.0,0.0,0.0,0.0,0.0,0.0,0.0,0.0,0.0,0.0,0.0,0.0,0.0,0.0,0.0,0.0,0.0,0.0,0.0,0.0,0.0,-4.5895,-4.5895,-4.5895,-4.5895,-4.5895,-4.5895,-4.5895,-4.5895,-4.5895,-4.5895,-4.5895,-4.5895,-4.5953,-4.7201,-4.7782,-4.7869,-4.9146,-4.9717,-4.9717,-4.9717,-4.9717,-4.9717,-4.9717,-4.9717,-4.9717,-4.9717,-4.9717,-4.9717,-4.9717,0.0,0.0,0.0,0.0,0.0,0.0,0.0,0.0,0.0,0.0,0.0,0.0,0.0,0.0,0.0,0.0,0.0,0.0,0.0,0.0,0.0,0.0,0.0,0.0,-4.6301,-4.6301,-4.6301,-4.6301,-4.6301,-4.6301,-4.6301,-4.6326,-4.6401,-4.6853,-4.7118,-4.7305,-4.578,-4.5451,-4.6638,0.0,0.0,0.0,0.0,-4.1046,-4.123,-4.1503,-4.1752,-4.2001,-4.2814,-4.3156,-4.3294,-4.5444,-4.6359,-4.6359,-4.9486,-5.0857,-5.0952,-5.2327,-5.2929,-5.2929,-5.2929,-5.2929,-5.2879,-5.2377,-5.2201,0.0,0.0,0.0,0.0,0.0,0.0,0.0,0.0,0.0,0.0,0.0,0.0,0.0,0.0,0.0,0.0,0.0,0.0,0.0,0.0,0.0,0.0,-4.5895,-4.5895,-4.5895,-4.5895,-4.5895,-4.5895,-4.5895,-4.5895,-4.5895,-4.5895,-4.5895,-4.5895,-4.5953,-4.7201,-4.7782,-4.7869,-4.9146,-4.9717,-4.9717,-4.9717,-4.9717,-4.9717,-4.9717,-4.9717,-4.9717,-4.9717,-4.9717,-4.9717,-4.9717,-4.8951,-4.7819,-4.6632,-4.5555,0.0,0.0,0.0,0.0,0.0,0.0,0.0,0.0,0.0,0.0,0.0,0.0,0.0,0.0,0.0,0.0,0.0,0.0,0.0,-4.6301,-4.6301,-4.6301,-4.6301,-4.6301,-4.6301,-4.6301,-4.6301,-4.6476,-4.6928,-4.7079,-4.7506,-4.8385,-4.8128,-4.7758,-4.7233,-4.5389,0.0,-4.4778,-4.2236,-4.167,-4.3219,-4.2153,-4.2574,-4.459,0.0,0.0,-4.5435,-4.8338,-4.8984,-4.8045,-5.1093,-5.2491,-5.2491,-5.2792,-5.2929,-5.2929,-5.2929,-5.2929,-5.2904,-5.2804,-5.2779,-5.2678,0.0,0.0,0.0,0.0,0.0,0.0,0.0,0.0,0.0,0.0,0.0,0.0,0.0,0.0,0.0,0.0,0.0,0.0,0.0,0.0,0.0,0.0,-4.5895,-4.5895,-4.5895,-4.5895,-4.5895,-4.5895,-4.5895,-4.5895,-4.5895,-4.5895,-4.5895,-4.5953,-4.7201,-4.7782,-4.7869,-4.9146,-4.9717,-4.9717,-4.9717,-4.9717,-4.9717,-4.9717,-4.9717,-4.9717,-4.9717,-4.9717,-4.9717,-4.9717,-4.8574,-4.7074,-4.6476,-4.5182,-4.3738,0.0,0.0,0.0,0.0,0.0,0.0,0.0,0.0,0.0,0.0,0.0,0.0,0.0,0.0,-4.6301,0.0,0.0,-4.6301,-4.6301,-4.6301,-4.6301,-4.6301,-4.6301,-4.6301,-4.6301,-4.6552,-4.6828,-4.7043,-4.7631,-4.8184,-4.8736,-4.8348,-4.7881,-4.7401,-4.5999,-4.4914,-4.4161,-4.3713,-4.3274,-4.2677,-4.3968,-4.4808,-4.5311,-4.6334,-4.6945,-4.7169,-4.9557,-5.0198,-4.9557,-5.1911,-5.2929,-5.2929,-5.2929,-5.2929,-5.2929,-5.2929,-5.2929,-5.2929,-5.2929,-5.2929,-5.2879,0.0,0.0,0.0,0.0,0.0,0.0,0.0,0.0,0.0,0.0,0.0,0.0,0.0,0.0,0.0,0.0,0.0,0.0,0.0,0.0,0.0,0.0,-4.5895,-4.5895,-4.5895,-4.5895,-4.5895,-4.5895,-4.5895,-4.5895,-4.5895,-4.5895,-4.5895,-4.5953,-4.7201,-4.7782,-4.7869,-4.9146,-4.9717,-4.9717,-4.9717,-4.9717,-4.9717,-4.9717,-4.9717,-4.9717,-4.9717,-4.9717,-4.9669,-4.9424,-4.7993,-4.6267,-4.6057,-4.4615,-4.3011,-4.3112,-4.3463,0.0,0.0,0.0,0.0,0.0,0.0,0.0,0.0,0.0,-4.6301,-4.6301,-4.6301,-4.6301,-4.6301,-4.6301,-4.6301,-4.6301,-4.6301,-4.6301,-4.6301,-4.6401,-4.6476,-4.6476,-4.6853,-4.723,-4.7431,-4.8259,-4.8812,-4.8912,-4.8256,-4.7821,-4.7821,-4.6402,-4.5301,-4.4525,-4.5254,-4.4872,-4.3242,-4.5832,-4.6906,-4.6368,-4.7984,-4.8768,-4.8768,-5.0363,-5.0857,-5.0717,-5.2258,-5.2929,-5.2929,-5.2929,-5.2929,-5.2929,-5.2929,-5.2929,-5.2929,-5.2929,-5.2929,-5.2929,0.0,0.0,0.0,0.0,0.0,0.0,0.0,0.0,0.0,0.0,0.0,0.0,0.0,0.0,0.0,0.0,0.0,0.0,0.0,0.0,0.0,0.0,0.0,-4.5895,-4.5895,-4.5895,-4.5895,-4.5895,-4.5895,-4.5895,-4.5895,-4.5895,-4.5895,-4.5953,-4.7201,-4.7782,-4.7869,-4.9146,-4.9717,-4.9717,-4.9717,-4.9717,-4.9717,-4.9717,-4.9717,-4.9717,-4.9717,-4.9717,-4.9571,-4.8553,-4.7331,-4.611,-4.5208,-4.3987,-4.3062,-4.3564,-4.374,-4.4016,-4.502,-4.5748,-4.6225,-4.6301,-4.6301,-4.6301,0.0,0.0,-4.6301,-4.6301,-4.6301,-4.6301,-4.6301,-4.6301,-4.6301,-4.6301,-4.6301,-4.6301,-4.6301,-4.6728,-4.6993,-4.6993,-4.7043,-4.7506,-4.8485,-4.8711,-4.8987,-4.9464,-4.9411,-4.9332,-4.9332,-4.7953,-4.7907,-4.9545,-4.5967,-4.5608,-4.8848,-4.6672,-4.7087,-4.9984,-5.0245,-5.0339,-5.041,-5.1956,-5.1886,-5.0717,-5.2258,-5.2929,-5.2929,-5.2929,-5.2929,-5.2929,-5.2929,-5.2929,-5.2929,-5.2929,-5.2929,-5.2929,0.0,0.0,0.0,0.0,0.0,0.0,0.0,0.0,0.0,0.0,0.0,0.0,0.0,0.0,0.0,0.0,0.0,0.0,0.0,0.0,0.0,0.0,0.0,-4.5895,-4.5895,-4.5895,-4.5895,-4.5895,-4.5895,-4.5895,-4.5895,-4.5895,-4.5895,-4.5953,-4.7201,-4.7782,-4.7869,-4.9146,-4.9717,-4.9717,-4.9717,-4.9717,-4.9717,-4.9717,-4.9717,-4.9717,-4.9717,-4.9248,0.0,-4.8173,-4.6816,-4.5289,-4.4832,-4.3932,-4.3087,-4.3639,-4.4041,-4.4518,-4.5673,-4.6125,-4.6301,0.0,-4.6301,-4.6301,-4.6301,-4.6301,-4.6301,-4.6301,-4.6301,-4.6301,-4.6301,-4.6301,-4.6301,0.0,-4.6301,-4.6426,-4.6753,-4.6979,-4.738,-4.8008,-4.8083,-4.8259,-4.8736,-4.9063,-4.9339,-4.9565,-4.959,-4.9242,-4.8371,-4.8567,-4.8419,-4.7925,-4.81,-4.828,-4.8521,-4.9322,-5.0007,-5.0646,-5.1537,-5.1956,-5.1956,-5.2629,-5.256,-5.1956,-5.2629,-5.2929,-5.2929,-5.2929,-5.2929,-5.2929,-5.2929,-5.2929,-5.2929,-5.2929,-5.2929,-5.2929,0.0,0.0,0.0,0.0,0.0,0.0,0.0,0.0,0.0,0.0,0.0,0.0,0.0,0.0,0.0,0.0,0.0,0.0,0.0,0.0,0.0,0.0,0.0,0.0,-4.5895,-4.5895,-4.5895,-4.5895,-4.5895,-4.5895,-4.5895,-4.5895,-4.5895,-4.5953,-4.7201,-4.7782,-4.7869,-4.9146,-4.9717,-4.9717,-4.9717,-4.9717,-4.9717,-4.9717,-4.9522,-4.9198,-4.9198,-4.8703,0.0,-4.728,-4.6032,-4.4615,-4.4315,-4.3785,-4.3313,-4.3865,-4.4543,-4.5271,-4.61,-4.6301,0.0,-4.6301,-4.6301,-4.6301,-4.6301,-4.6301,-4.6301,-4.6301,-4.6301,-4.6301,-4.6301,-4.6301,-4.6301,-4.6301,-4.6301,-4.6502,-4.6993,-4.7255,-4.7707,-4.8661,-4.8912,-4.9012,-4.9012,-4.9364,-4.959,-4.959,-4.959,-4.9187,-4.8304,-4.9206,-4.9199,-4.7809,-4.981,-5.0274,-4.9062,-5.1202,-5.1886,-5.1233,-5.2352,-5.2929,-5.2929,-5.2929,-5.2929,-5.2929,-5.2929,-5.2929,-5.2929,-5.2929,-5.2929,-5.2929,-5.2929,-5.2929,-5.2929,-5.2929,-5.2929,-5.2929,0.0,0.0,0.0,0.0,0.0,0.0,0.0,0.0,0.0,0.0,0.0,0.0,0.0,0.0,0.0,0.0,0.0,0.0,0.0,0.0,0.0,0.0,0.0,0.0,-4.5895,-4.5895,-4.5895,-4.5895,-4.5895,-4.5895,-4.5895,-4.5895,-4.5895,-4.5953,-4.7201,-4.7782,-4.7869,-4.9146,-4.9717,-4.9717,-4.9717,-4.9717,-4.9717,-4.9717,-4.9001,-4.8072,-4.8072,0.0,0.0,-4.5502,-4.4724,-4.4507,-4.3406,-4.3394,-4.389,-4.4443,-4.5397,-4.6276,-4.6301,-4.6301,-4.6301,-4.6301,-4.6301,-4.6301,-4.6301,-4.6301,-4.6301,-4.6301,-4.6301,-4.6301,-4.6301,-4.6301,-4.6301,-4.6301,-4.6301,-4.6502,-4.6993,-4.7556,-4.8109,-4.8711,-4.9238,-4.9565,0.0,-4.959,-4.959,-4.959,-4.959,-4.9841,-5.0303,-5.0328,-5.0829,-5.189,-5.0592,-5.0767,-5.2742,-5.1373,-5.1373,-5.2861,-5.2861,-5.2929,-5.2929,-5.2929,-5.2929,-5.2929,-5.2929,-5.2929,-5.2929,-5.2929,-5.2929,-5.2929,-5.2929,-5.2929,-5.2929,-5.2929,-5.2929,-5.2929,0.0,0.0,0.0,0.0,0.0,0.0,0.0,0.0,0.0,0.0,0.0,0.0,0.0,0.0,0.0,0.0,0.0,0.0,0.0,0.0,0.0,0.0,0.0,0.0,-4.5895,-4.5895,-4.5895,-4.5895,-4.5895,-4.5895,-4.5895,-4.5895,-4.5895,-4.5924,-4.6766,-4.7375,-4.784,-4.8682,-4.9291,-4.9717,-4.9717,-4.9717,-4.962,-4.8852,-4.8324,-4.7819,0.0,0.0,0.0,-4.494,-4.4206,-4.3517,-4.3129,-4.3363,-4.3991,-4.492,-4.5723,-4.6301,-4.6301,-4.6301,-4.6301,-4.6301,-4.6301,-4.6301,-4.6301,-4.6301,-4.6301,-4.6301,-4.6301,-4.6301,-4.6301,-4.6301,-4.6301,-4.6301,-4.6627,-4.7054,-4.7581,-4.8134,-4.8686,-4.9238,-4.949,0.0,0.0,0.0,0.0,-4.959,-4.9941,-5.0218,-5.0419,-5.077,-5.1322,-5.2076,-5.16,-5.1805,-5.2929,-5.2421,-5.2421,-5.2929,-5.2929,-5.2929,-5.2929,-5.2929,-5.2929,-5.2929,-5.2929,-5.2929,-5.2929,-5.2929,-5.2929,-5.2929,-5.2929,-5.2929,-5.2929,-5.2929,-5.2929,-5.2929,0.0,0.0,0.0,0.0,0.0,0.0,0.0,0.0,0.0,0.0,0.0,0.0,0.0,0.0,0.0,0.0,0.0,0.0,0.0,0.0,0.0,0.0,0.0,0.0,-4.5595,-4.5776,-4.585,-4.573,-4.585,-4.5895,-4.5895,-4.5895,-4.5895,-4.5924,-4.6534,-4.7172,-4.7811,-4.8449,-4.8972,-4.9349,-4.9582,-4.9328,-4.8686,-4.8189,-4.7513,0.0,0.0,0.0,-4.4097,-4.4097,-4.3628,-4.3011,-4.3212,-4.379,-4.4593,-4.5497,-4.6024,-4.6301,-4.6301,-4.6301,-4.6301,-4.6301,-4.6301,-4.6301,-4.6301,-4.6301,-4.6301,-4.6301,-4.6301,-4.6301,-4.6301,-4.6301,-4.6376,-4.6577,-4.6903,-4.738,-4.8109,-4.8535,-4.8987,-4.954,-4.959,-4.959,0.0,0.0,0.0,-4.959,-5.0117,-5.0494,-5.072,-5.1272,-5.1825,-5.2377,-5.2402,-5.2578,-5.2929,-5.2929,-5.2929,-5.2929,-5.2929,-5.2929,-5.2929,-5.2929,-5.2929,-5.2929,-5.2929,-5.2929,-5.2929,-5.2929,-5.2929,-5.2929,-5.2929,-5.2929,-5.2929,-5.2929,-5.2929,-5.2929,0.0,0.0,0.0,0.0,0.0,0.0,0.0,0.0,0.0,0.0,0.0,0.0,0.0,0.0,0.0,0.0,0.0,0.0,0.0,0.0,0.0,0.0,0.0,0.0,0.0,-4.5595,-4.573,-4.5504,-4.573,-4.5895,-4.5895,-4.5895,-4.5895,-4.5924,-4.6505,-4.7143,-4.7782,-4.8315,-4.8557,-4.8644,-4.9204,-4.8501,-4.7079,-4.7617,0.0,0.0,0.0,0.0,0.0,-4.2986,-4.2986,-4.3112,-4.3664,-4.4593,-4.5598,-4.615,-4.6301,-4.6301,-4.6301,-4.6301,-4.6301,-4.6301,-4.6301,-4.6301,-4.6301,-4.6301,-4.6301,-4.6301,-4.6301,-4.6301,-4.6301,-4.6301,-4.6476,-4.7004,-4.7129,-4.7531,-4.8586,-4.8786,-4.9012,0.0,0.0,0.0,0.0,0.0,0.0,-4.964,0.0,-5.072,-5.1297,-5.185,-5.2377,-5.2904,-5.2929,-5.2929,-5.2929,-5.2929,-5.2929,-5.298,-5.298,-5.298,-5.3005,-5.3005,-5.3005,-5.3005,-5.3005,-5.3005,-5.298,-5.298,-5.2955,-5.2929,-5.2929,-5.2929,-5.2929,-5.2929,-5.2929,-5.2929,0.0,0.0,0.0,0.0,0.0,0.0,0.0,0.0,0.0,0.0,0.0,0.0,0.0,0.0,0.0,0.0,0.0,0.0,0.0,0.0,0.0,0.0,0.0,0.0,0.0,0.0,0.0,0.0,0.0,-4.5504,-4.5895,-4.5685,-4.5685,-4.5895,-4.604,-4.6475,-4.7039,-4.6405,-4.6432,-4.6838,0.0,-4.6302,-4.5864,0.0,0.0,0.0,0.0,0.0,0.0,0.0,0.0,0.0,-4.4242,-4.4895,-4.5598,-4.615,-4.6301,-4.6301,-4.6301,-4.6301,-4.6301,-4.6301,-4.6301,-4.6301,-4.6301,-4.6301,-4.6301,-4.6301,-4.6301,-4.6301,-4.6301,-4.6301,-4.6351,-4.6502,-4.7179,0.0,-4.8083,-4.8862,0.0,-4.9565,-4.959,-4.959,-4.959,-4.9967,0.0,0.0,-5.0745,-5.1297,-5.1875,-5.2427,-5.2779,-5.2929,-5.2929,-5.2929,-5.2929,-5.2929,-5.313,-5.3507,-5.3507,-5.3733,-5.416,-5.416,-5.416,-5.416,-5.416,-5.3909,-5.3507,-5.3507,-5.3281,-5.2929,-5.2929,-5.2929,-5.2929,-5.2929,-5.2929,-5.2929,0.0,0.0,0.0,0.0,0.0,0.0,0.0,0.0,0.0,0.0,0.0,0.0,0.0,0.0,0.0,0.0,0.0,0.0,0.0,0.0,0.0,0.0,0.0,0.0,0.0,0.0,0.0,0.0,0.0,0.0,0.0,-4.5413,-4.5458,-4.573,-4.573,-4.5895,-4.6099,-4.5534,0.0,0.0,0.0,0.0,0.0,0.0,0.0,0.0,0.0,0.0,0.0,0.0,0.0,-4.4217,-4.4518,-4.5196,-4.5899,-4.6225,0.0,-4.6301,-4.6301,-4.6301,-4.6301,-4.6301,-4.6301,-4.6301,-4.6301,-4.6301,-4.6301,-4.6301,-4.6301,-4.6301,-4.6301,-4.6301,-4.6401,0.0,0.0,0.0,-4.8259,-4.9038,-4.959,0.0,-4.959,0.0,-4.959,-5.0092,-5.0519,0.0,-5.1322,-5.1774,-5.2076,-5.2628,-5.2929,-5.2929,-5.2929,-5.2929,-5.2929,-5.3155,-5.3406,-5.3708,-5.3959,-5.426,-5.4561,-5.4561,-5.4561,-5.4561,0.0,-5.4235,-5.3708,-5.3708,-5.3381,-5.2929,-5.2929,-5.2929,-5.2929,-5.2929,-5.2929,-5.2929,0.0,0.0,0.0,0.0,0.0,0.0,0.0,0.0,0.0,0.0,0.0,0.0,0.0,0.0,0.0,0.0,0.0,0.0,0.0,0.0,0.0,0.0,0.0,0.0,0.0,0.0,0.0,0.0,0.0,0.0,0.0,0.0,0.0,0.0,0.0,0.0,0.0,0.0,0.0,0.0,0.0,0.0,0.0,0.0,0.0,0.0,0.0,0.0,0.0,0.0,-4.3714,-4.4618,-4.4618,-4.5397,-4.6301,-4.6301,-4.6301,-4.6301,-4.6301,-4.6301,-4.6301,-4.6301,-4.6301,-4.6301,-4.6301,-4.6301,-4.6301,-4.6301,-4.6301,-4.6301,-4.6301,-4.6301,-4.6476,-4.6954,0.0,-4.8083,-4.8586,-4.9188,-4.959,-4.959,-4.959,-4.9615,-4.969,-5.0218,-5.077,-5.1348,-5.19,-5.2226,-5.2226,-5.2678,-5.2929,-5.2929,-5.2929,-5.2929,-5.2929,-5.3432,-5.3733,-5.3833,-5.4386,-5.4712,-5.4787,-5.4787,-5.4787,-5.4787,0.0,0.0,-5.3808,-5.3808,-5.3457,-5.2929,-5.2929,-5.2929,-5.2929,-5.2929,-5.2929,-5.2929,0.0,0.0,0.0,0.0,0.0,0.0,0.0,0.0,0.0,0.0,-4.394,-4.5926,0.0,0.0,0.0,0.0,0.0,0.0,0.0,0.0,0.0,0.0,0.0,0.0,0.0,0.0,0.0,0.0,0.0,0.0,0.0,0.0,0.0,0.0,0.0,0.0,0.0,0.0,0.0,0.0,0.0,0.0,0.0,0.0,0.0,0.0,0.0,0.0,0.0,0.0,-4.3714,-4.4618,-4.4618,-4.5397,-4.6301,-4.6301,-4.6301,-4.6301,-4.6301,-4.6301,-4.6301,-4.6301,-4.6301,-4.6301,-4.6301,-4.6301,0.0,0.0,-4.6301,-4.6301,-4.6301,-4.6301,-4.6351,-4.6426,0.0,0.0,-4.8033,-4.8937,-4.959,0.0,-4.959,-4.9766,-5.0218,-5.0795,0.0,0.0,0.0,0.0,-5.2779,-5.2879,-5.2929,-5.2929,-5.2929,-5.2929,-5.2929,-5.3432,-5.3934,-5.4411,-5.4988,-5.5491,-5.5917,-5.5917,-5.5917,-5.5917,0.0,0.0,-5.4411,-5.4411,-5.3833,-5.2929,-5.2929,-5.2929,-5.2929,-5.2929,-5.2929,-5.2929,0.0,0.0,0.0,0.0,0.0,0.0,0.0,-3.8767,-3.9175,-4.0295,-4.2372,-4.431,-4.5724,-4.6405,-4.6476,0.0,0.0,0.0,0.0,0.0,0.0,0.0,0.0,0.0,0.0,0.0,0.0,0.0,0.0,0.0,0.0,0.0,0.0,0.0,0.0,0.0,0.0,0.0,0.0,0.0,0.0,0.0,0.0,0.0,0.0,0.0,0.0,0.0,0.0,0.0,-4.3714,-4.4618,-4.4618,-4.5397,-4.6301,-4.6301,-4.6301,-4.6301,-4.6301,-4.6301,-4.6301,-4.6301,-4.6301,-4.6301,-4.6301,0.0,0.0,0.0,-4.6301,-4.6301,-4.6301,-4.6301,0.0,-4.6301,0.0,0.0,0.0,-4.8887,0.0,-4.959,-4.959,-4.9816,0.0,-5.0946,0.0,0.0,0.0,0.0,-5.2929,-5.2929,-5.2929,-5.2929,-5.2929,-5.2929,-5.2929,-5.3733,-5.4285,-5.4587,-5.5415,-5.5968,-5.6219,-5.6219,-5.6219,-5.6194,0.0,0.0,-5.4607,-5.4235,-5.3658,-5.2929,-5.2929,-5.2929,-5.2929,-5.2929,-5.2929,-5.2929,0.0,0.0,0.0,0.0,0.0,0.0,0.0,-3.7974,-3.8291,-3.9156,-4.0799,-4.2411,-4.3798,-4.5238,-4.5886,0.0,0.0,0.0,0.0,0.0,0.0,0.0,0.0,0.0,0.0,0.0,0.0,0.0,0.0,0.0,0.0,0.0,0.0,0.0,0.0,0.0,0.0,0.0,0.0,0.0,0.0,0.0,0.0,0.0,0.0,0.0,0.0,0.0,0.0,0.0,-4.3658,-4.4618,-4.4618,-4.5397,-4.6301,-4.6301,-4.6301,-4.6301,-4.6301,-4.6301,-4.6301,-4.6301,-4.6301,-4.6301,-4.6301,-4.6301,0.0,-4.6301,-4.6301,-4.6301,-4.6301,0.0,-4.6301,0.0,-4.7205,-4.7908,0.0,0.0,-4.959,0.0,-4.959,0.0,-5.0544,0.0,0.0,0.0,0.0,0.0,0.0,-5.2929,-5.2929,-5.2929,-5.2929,-5.2929,-5.2929,-5.3884,-5.4436,-5.4587,-5.5566,-5.6093,-5.6219,-5.6093,-5.6043,-5.6018,0.0,0.0,0.0,-5.3884,-5.3381,-5.2929,-5.2929,-5.2929,-5.2929,-5.2929,-5.2929,-5.2929,0.0,0.0,0.0,0.0,0.0,0.0,0.0,-3.7974,-3.8027,-3.8133,-4.0006,-4.1324,-4.1526,-4.3861,-4.538,0.0,0.0,0.0,0.0,0.0,0.0,0.0,0.0,0.0,0.0,0.0,0.0,0.0,0.0,0.0,0.0,0.0,0.0,0.0,0.0,0.0,0.0,0.0,0.0,0.0,0.0,0.0,0.0,0.0,0.0,0.0,0.0,0.0,0.0,0.0,0.0,-4.4618,-4.4618,-4.5397,-4.6301,-4.6301,0.0,0.0,-4.6301,-4.6301,-4.6301,-4.6301,-4.6301,-4.6301,-4.6301,0.0,-4.6301,-4.6301,-4.6301,-4.6301,-4.6301,0.0,0.0,0.0,0.0,-4.7908,0.0,0.0,0.0,0.0,0.0,0.0,0.0,0.0,0.0,0.0,0.0,0.0,0.0,-5.2929,-5.2929,-5.2929,-5.2929,-5.2929,-5.2929,-5.3507,-5.4059,-5.4587,-5.5164,-5.5717,-5.6194,-5.5691,-5.5465,-5.544,0.0,0.0,0.0,-5.3733,-5.3381,-5.2929,-5.2929,-5.2929,-5.2929,-5.2929,-5.2929,-5.2929,0.0,0.0,0.0,0.0,0.0,0.0,-3.7974,-3.7974,-3.7974,-3.7974,-3.9312,-4.0262,-4.0262,-4.1779,-4.3123,-4.3753,0.0,0.0,0.0,0.0,0.0,0.0,0.0,0.0,0.0,0.0,0.0,-4.0262,0.0,0.0,0.0,0.0,0.0,0.0,0.0,0.0,0.0,0.0,0.0,0.0,0.0,0.0,0.0,0.0,0.0,0.0,0.0,0.0,0.0,0.0,0.0,0.0,-4.4618,-4.5397,0.0,0.0,-4.6301,-4.6301,-4.6301,-4.6301,-4.6301,-4.6301,-4.6301,-4.6301,-4.6301,0.0,-4.6301,-4.6301,-4.6301,-4.6301,-4.6301,0.0,0.0,0.0,0.0,0.0,-4.7908,0.0,0.0,0.0,0.0,0.0,0.0,0.0,0.0,0.0,0.0,0.0,0.0,0.0,-5.2929,-5.2929,-5.2929,-5.2929,-5.2929,-5.3432,-5.3808,-5.4059,-5.4612,-5.5013,-5.5214,-5.4988,-5.4888,0.0,0.0,0.0,0.0,-5.3356,-5.3105,-5.2929,-5.2929,-5.2929,-5.2929,-5.2929,-5.2929,-5.2929,0.0,0.0,0.0,0.0,0.0,-3.7974,-3.7974,-3.7974,-3.7974,-3.7974,-3.8948,-3.9597,-3.9597,-4.0262,-4.1019,-4.1789,-4.1468,0.0,0.0,0.0,0.0,0.0,0.0,0.0,0.0,0.0,-3.8396,-3.9156,-3.8396,-3.7974,0.0,0.0,0.0,0.0,0.0,0.0,0.0,0.0,0.0,0.0,0.0,0.0,0.0,0.0,0.0,0.0,0.0,0.0,0.0,0.0,0.0,0.0,0.0,0.0,0.0,0.0,-4.6301,-4.6301,-4.6301,-4.6301,-4.6301,-4.6301,-4.6301,-4.6301,0.0,0.0,-4.6301,-4.6301,-4.6301,-4.6301,-4.6301,-4.6301,0.0,0.0,0.0,-4.7908,-4.7908,0.0,0.0,0.0,0.0,0.0,0.0,0.0,0.0,0.0,0.0,0.0,0.0,0.0,-5.2929,-5.2929,-5.2929,-5.2929,-5.2929,-5.3281,-5.3557,-5.3708,-5.411,-5.4411,-5.4561,-5.4386,-5.431,0.0,0.0,0.0,0.0,-5.308,-5.2929,-5.2929,-5.2929,-5.2929,-5.2929,-5.2929,-5.2929,-5.2929,0.0,0.0,0.0,0.0,0.0,0.0,-3.7974,-3.7974,-3.7974,-3.7974,-3.8948,-3.9597,-3.9597,-3.9597,-3.9597,-3.9648,-4.0617,0.0,0.0,0.0,0.0,0.0,0.0,0.0,0.0,0.0,-3.7974,-3.8027,-3.7974,-3.7974,-3.7974,-3.7974,0.0,0.0,0.0,0.0,0.0,0.0,0.0,0.0,0.0,0.0,0.0,0.0,0.0,0.0,0.0,0.0,0.0,0.0,0.0,0.0,0.0,-4.5397,0.0,0.0,-4.6301,-4.6301,-4.6301,-4.6301,-4.6301,-4.6301,-4.6301,-4.6301,0.0,0.0,-4.6301,-4.6301,-4.6301,-4.6301,-4.6301,-4.6301,0.0,0.0,0.0,0.0,-4.7908,0.0,0.0,0.0,0.0,0.0,0.0,0.0,0.0,0.0,0.0,0.0,0.0,0.0,-5.2929,-5.2929,-5.2929,-5.2929,-5.2929,-5.2929,-5.3181,-5.3708,-5.3708,-5.4009,-5.4536,-5.3959,0.0,0.0,0.0,0.0,0.0,-5.2929,-5.2929,-5.2929,-5.2929,-5.2929,-5.2929,-5.2929,-5.2929,-5.2929,0.0,0.0,0.0,0.0,0.0,0.0,0.0,-3.7974,-3.7974,-3.7974,-3.8291,-3.8502,-3.8502,-3.8502,-3.8502,-3.8502,-3.8792,0.0,0.0,0.0,0.0,0.0,0.0,0.0,0.0,0.0,-3.7974,-3.7974,-3.7974,-3.7974,-3.7974,-3.7974,-3.7974,-3.7974,0.0,0.0,0.0,0.0,0.0,0.0,0.0,0.0,0.0,0.0,0.0,0.0,0.0,0.0,0.0,0.0,0.0,0.0,0.0,0.0,0.0,-4.6301,-4.6301,0.0,-4.6301,-4.6301,-4.6301,-4.6301,-4.6301,-4.6301,-4.6301,0.0,-4.6301,-4.6301,-4.6301,-4.6301,-4.6301,-4.6301,0.0,0.0,0.0,0.0,0.0,0.0,0.0,0.0,0.0,0.0,0.0,0.0,0.0,0.0,0.0,0.0,0.0,0.0,0.0,-5.2929,-5.2929,-5.2929,-5.2929,-5.2929,-5.3005,-5.3181,-5.3181,-5.3281,-5.3432,0.0,0.0,0.0,0.0,0.0,0.0,-5.2929,-5.2929,-5.2929,-5.2929,-5.2929,-5.2929,-5.2929,-5.2929,-5.2929,0.0,0.0,0.0,0.0,0.0,0.0,0.0,-3.7974,-3.7974,-3.7974,-3.7974,-3.7974,-3.7974,-3.7974,-3.7974,-3.7974,-3.7974,0.0,0.0,0.0,0.0,0.0,0.0,0.0,-3.7974,-3.7974,-3.7974,-3.7974,-3.7974,-3.7974,-3.7974,-3.7974,-3.7974,-3.7974,-3.7974,-3.7974,0.0,0.0,0.0,0.0,0.0,0.0,-4.2369,0.0,0.0,0.0,0.0,0.0,0.0,0.0,0.0,0.0,0.0,0.0,0.0,0.0,-4.6301,-4.6301,0.0,-4.6301,-4.6301,-4.6301,-4.6301,0.0,0.0,0.0,0.0,0.0,-4.6301,-4.6301,0.0,0.0,0.0,0.0,0.0,0.0,0.0,0.0,0.0,0.0,0.0,0.0,0.0,0.0,0.0,0.0,0.0,0.0,0.0,0.0,0.0,-5.2929,-5.2929,-5.2929,-5.2929,-5.2929,-5.2929,-5.2929,-5.2929,-5.2929,-5.2929,0.0,0.0,0.0,0.0,0.0,0.0,-5.2929,-5.2929,-5.2929,-5.2929,-5.2929,-5.2929,-5.2929,-5.2929,-5.2929,0.0,0.0,0.0,0.0,0.0,0.0,0.0,-3.7974,-3.7974,-3.7974,-3.7974,-3.7974,-3.7974,-3.7974,-3.7974,-3.7974,0.0,0.0,0.0,0.0,0.0,0.0,0.0,0.0,-3.7974,-3.7974,-3.7974,-3.7974,-3.7974,-3.7974,-3.7974,-3.7974,-3.7974,-3.7974,-3.7974,-3.7998,0.0,0.0,0.0,0.0,0.0,-4.1802,0.0,0.0,0.0,0.0,0.0,0.0,0.0,0.0,0.0,0.0,0.0,0.0,0.0,0.0,0.0,0.0,0.0,-4.6301,-4.6301,-4.6301,-4.6301,-4.6301,0.0,0.0,0.0,0.0,0.0,0.0,0.0,0.0,0.0,0.0,0.0,0.0,0.0,0.0,0.0,0.0,0.0,0.0,0.0,0.0,0.0,0.0,0.0,0.0,0.0,0.0,0.0,0.0,-5.2929,-5.2929,-5.2929,-5.2929,-5.2929,-5.2929,-5.2929,-5.2929,-5.2929,0.0,0.0,0.0,0.0,0.0,0.0,-5.2929,-5.2929,-5.2929,-5.2929,-5.2929,-5.2929,-5.2929,-5.2929,-5.2929,0.0,0.0,0.0,0.0,0.0,0.0,0.0,0.0,0.0,0.0,-3.7974,-3.7974,-3.7974,-3.7974,-3.7974,0.0,0.0,0.0,0.0,0.0,0.0,0.0,0.0,0.0,-3.7974,-3.7974,-3.7974,-3.7974,-3.7974,-3.7974,-3.7974,-3.7974,-3.7974,-3.7974,-3.7974,-3.8214,0.0,0.0,0.0,0.0,-4.1274,-4.1802,0.0,0.0,0.0,0.0,-4.293,-4.2986,0.0,0.0,0.0,0.0,0.0,0.0,0.0,0.0,-4.6301,-4.6301,-4.6301,0.0,-4.6301,-4.6301,-4.6301,-4.6301,0.0,0.0,0.0,0.0,0.0,0.0,0.0,0.0,0.0,0.0,0.0,0.0,0.0,0.0,0.0,0.0,0.0,0.0,0.0,0.0,0.0,0.0,0.0,0.0,0.0,0.0,0.0,0.0,-5.2929,-5.2929,-5.2929,-5.2929,-5.2929,-5.2929,-5.2929,-5.2929,0.0,0.0,0.0,0.0,0.0,0.0,0.0,-5.2929,-5.2929,-5.2929,-5.2929,-5.2929,-5.2929,-5.2929,-5.2929,-5.2929,0.0,0.0,0.0,0.0,0.0,0.0,0.0,0.0,0.0,0.0,0.0,0.0,0.0,0.0,0.0,0.0,0.0,0.0,0.0,0.0,0.0,0.0,0.0,-3.7974,-3.7974,-3.7974,-3.7974,-3.7974,-3.7974,-3.7974,-3.7974,-3.7974,-3.7974,-3.7998,-3.8238,-3.8671,-3.9224,-4.0042,-4.0547,-4.0787,-4.1224,0.0,0.0,0.0,0.0,0.0,-4.2986,-4.2986,0.0,-4.3263,-4.3915,-4.4669,0.0,0.0,0.0,0.0,-4.6301,-4.6301,-4.6301,-4.6301,-4.6301,-4.6301,-4.6301,-4.6301,-4.6301,0.0,0.0,0.0,0.0,0.0,0.0,0.0,0.0,0.0,0.0,0.0,0.0,0.0,0.0,0.0,0.0,0.0,0.0,0.0,0.0,0.0,0.0,0.0,0.0,0.0,0.0,0.0,0.0,-5.2929,-5.2929,-5.2929,-5.2929,-5.2929,-5.2929,-5.2929,0.0,0.0,0.0,0.0,0.0,0.0,-5.2929,-5.2929,-5.2929,-5.2929,-5.2929,-5.2929,-5.2929,-5.2929,-5.2929,-5.2929,0.0,0.0,0.0,0.0,0.0,0.0,0.0,0.0,0.0,0.0,0.0,0.0,0.0,0.0,0.0,0.0,0.0,0.0,0.0,0.0,0.0,0.0,-3.7974,-3.7974,-3.7974,-3.7974,-3.7974,-3.7974,-3.7974,-3.7974,-3.7974,-3.807,-3.8142,-3.8262,-3.8815,-3.932,-3.9753,-4.0282,-4.0763,-4.1172,-4.1172,0.0,0.0,0.0,0.0,0.0,0.0,0.0,0.0,-4.3614,-4.4166,-4.4719,-4.5296,0.0,0.0,0.0,0.0,0.0,-4.6301,-4.6301,-4.6301,-4.6301,-4.6301,-4.6301,-4.6301,0.0,0.0,0.0,0.0,0.0,0.0,-4.6301,0.0,0.0,0.0,0.0,0.0,0.0,0.0,0.0,0.0,0.0,0.0,0.0,0.0,0.0,0.0,0.0,0.0,0.0,0.0,0.0,0.0,0.0,-5.2929,-5.2929,-5.2929,-5.2929,-5.2929,-5.2929,-5.2929,0.0,0.0,0.0,0.0,0.0,-5.2929,-5.2929,-5.2929,-5.2929,-5.2929,-5.2929,-5.2929,-5.2929,-5.2879,-5.2779,0.0,0.0,0.0,0.0,0.0,0.0,0.0,0.0,0.0,0.0,0.0,0.0,0.0,0.0,0.0,0.0,0.0,0.0,0.0,0.0,0.0,-3.7974,-3.7974,-3.7974,-3.7974,-3.7974,-3.7974,-3.7974,-3.7974,-3.7974,-3.7998,-3.8455,-3.8936,-3.9393,-3.9922,-4.0186,-4.0306,-4.0836,-4.11,-4.1172,-4.1172,0.0,0.0,0.0,0.0,0.0,0.0,0.0,0.0,-4.3614,-4.4166,-4.4719,-4.5296,0.0,0.0,0.0,0.0,0.0,-4.6301,-4.6301,-4.6301,-4.6301,-4.6301,-4.6301,-4.6301,-4.6301,0.0,0.0,0.0,0.0,0.0,-4.6301,0.0,0.0,0.0,0.0,0.0,0.0,0.0,0.0,0.0,0.0,0.0,0.0,0.0,0.0,0.0,0.0,0.0,0.0,0.0,0.0,0.0,0.0,0.0,-5.2929,-5.2929,-5.2929,-5.2929,-5.2929,-5.2929,-5.2929,-5.2929,0.0,0.0,0.0,-5.2929,-5.2929,-5.2929,-5.2929,-5.2929,-5.2929,-5.2929,-5.2929,-5.2628,-5.2176,0.0,0.0,0.0,0.0,0.0,0.0,0.0,0.0,0.0,0.0,0.0,0.0,0.0,0.0,0.0,0.0,0.0,0.0,0.0,0.0,-3.7974,-3.7974,-3.7974,-3.7974,-3.7974,-3.7974,-3.7974,-3.7974,-3.7974,-3.8142,-3.8455,-3.8984,-3.9369,-3.9633,-4.0162,-4.0403,-4.0427,-4.0956,-4.1172,-4.1172,0.0,0.0,0.0,0.0,0.0,0.0,0.0,0.0,0.0,0.0,-4.4418,-4.4769,-4.5648,0.0,0.0,0.0,0.0,0.0,-4.6301,-4.6301,-4.6301,-4.6301,-4.6301,-4.6301,-4.6301,-4.6301,-4.6301,0.0,0.0,0.0,0.0,0.0,0.0,0.0,0.0,0.0,0.0,0.0,0.0,0.0,0.0,0.0,0.0,0.0,0.0,0.0,0.0,0.0,0.0,0.0,0.0,0.0,0.0,0.0,0.0,-5.2929,-5.2929,-5.2929,-5.2929,-5.2929,-5.2929,-5.2929,-5.2929,0.0,0.0,-5.2929,-5.2929,-5.2929,-5.2929,-5.2929,-5.2929,-5.2754,-5.2452,-5.2151,-5.1875,-5.1574,0.0,0.0,0.0,0.0,0.0,0.0,0.0,0.0,0.0,0.0,0.0,0.0,0.0,0.0,0.0,0.0,0.0,0.0,0.0,0.0,-3.7974,-3.7974,-3.7974,-3.7974,-3.7974,-3.7974,-3.7974,-3.7974,-3.8118,-3.8527,-3.92,-3.9609,-3.985,-3.9994,-4.0403,-4.0571,-4.0595,-4.1004,-4.123,-4.1287,0.0,0.0,0.0,0.0,0.0,0.0,0.0,0.0,0.0,0.0,0.0,0.0,0.0,0.0,0.0,-4.6301,-4.6301,-4.6301,-4.6301,-4.6301,-4.6301,-4.6301,-4.6301,-4.6301,-4.6301,-4.6301,-4.6301,-4.6301,0.0,0.0,0.0,0.0,0.0,0.0,0.0,0.0,0.0,0.0,0.0,0.0,0.0,0.0,0.0,0.0,0.0,0.0,0.0,0.0,0.0,0.0,0.0,0.0,0.0,0.0,0.0,-5.2929,-5.2929,-5.2929,-5.2929,-5.2929,-5.2929,-5.2929,-5.2929,-5.2929,-5.2929,-5.2929,-5.2929,-5.2779,-5.2729,-5.2729,-5.2578,-5.2277,-5.185,-5.1272,-5.1071,-5.0996,0.0,0.0,0.0,0.0,0.0,0.0,0.0,0.0,0.0,0.0,0.0,0.0,0.0,0.0,0.0,0.0,0.0,0.0,0.0,0.0,-3.7974,-3.7974,-3.7974,-3.7974,-3.7974,-3.7974,-3.7974,-3.7974,-3.8503,-3.9272,-4.0282,-4.0331,-4.0595,-4.1076,-4.1124,-4.1124,-4.1124,-4.1172,-4.1344,-4.1549,-4.1549,0.0,0.0,0.0,0.0,0.0,0.0,0.0,0.0,0.0,0.0,0.0,0.0,0.0,-4.6301,-4.6301,-4.6301,-4.6301,-4.6301,-4.6301,-4.6301,-4.6301,-4.6301,-4.6301,-4.6301,-4.6301,-4.6301,-4.6301,-4.6301,0.0,0.0,0.0,0.0,0.0,0.0,0.0,0.0,0.0,0.0,0.0,0.0,0.0,0.0,0.0,0.0,0.0,0.0,0.0,0.0,0.0,0.0,0.0,0.0,0.0,0.0,0.0,-5.2929,-5.2929,-5.2929,-5.2929,-5.2929,-5.2929,-5.2929,-5.2929,-5.2929,-5.2929,-5.2879,-5.2377,-5.2176,-5.2126,-5.1599,-5.1373,-5.1272,-5.0695,-5.0469,-5.0393,0.0,0.0,0.0,0.0,0.0,0.0,0.0,0.0,0.0,0.0,0.0,0.0,0.0,0.0,0.0,0.0,0.0,0.0,0.0,-3.7974,-3.7974,-3.7974,-3.7974,-3.7974,-3.7974,-3.7974,-3.8142,-3.8503,-3.9369,-3.9994,-4.0403,-4.0739,-4.1004,-4.1172,-4.1172,-4.1172,-4.1172,-4.1402,-4.1492,-4.1606,-4.1859,-4.2029,0.0,0.0,0.0,0.0,0.0,0.0,0.0,0.0,-4.502,-4.5573,0.0,-4.6301,-4.6301,-4.6301,-4.6301,-4.6301,-4.6301,-4.6301,-4.6301,-4.6301,-4.6301,-4.6301,-4.6301,-4.6301,-4.6301,-4.6301,-4.6301,0.0,0.0,0.0,0.0,0.0,0.0,0.0,0.0,0.0,0.0,0.0,0.0,0.0,0.0,0.0,0.0,0.0,0.0,0.0,0.0,0.0,0.0,0.0,0.0,0.0,0.0,0.0,-5.19,-5.1925,-5.2603,-5.2929,-5.2929,-5.2929,-5.2729,-5.2427,-5.2427,-5.2226,-5.19,-5.1674,-5.1599,-5.1548,-5.0971,-5.0745,-5.067,-5.0117,-4.9916,-4.9866,0.0,0.0,0.0,0.0,0.0,0.0,0.0,0.0,0.0,0.0,0.0,0.0,0.0,0.0,0.0,0.0,0.0,0.0,-3.7974,-3.7974,-3.7974,-3.7974,-3.8142,-3.8238,-3.8238,-3.8407,-3.8599,-3.8815,-3.9874,-4.0475,-4.0643,-4.1028,-4.1172,-4.1172,-4.1287,-4.1344,-4.1344,-4.1631,-4.1777,-4.1891,-4.2142,-4.2312,0.0,0.0,0.0,0.0,0.0,0.0,0.0,0.0,0.0,0.0,0.0,0.0,0.0,0.0,-4.6301,-4.6301,-4.6301,-4.6301,-4.6301,-4.6301,-4.6301,-4.6301,-4.6301,-4.6301,-4.6301,-4.6301,-4.6301,-4.6301,-4.6301,0.0,0.0,0.0,0.0,0.0,0.0,0.0,0.0,0.0,0.0,0.0,0.0,0.0,0.0,0.0,0.0,0.0,0.0,0.0,0.0,0.0,0.0,0.0,0.0,0.0,-5.1272,-5.1297,-5.2051,-5.2402,-5.2402,-5.2402,-5.2201,-5.185,-5.185,-5.1624,-5.1272,-5.1071,-5.0896,-5.0695,-5.0318,-5.0167,-5.0117,-4.9741,-4.959,-4.959,0.0,0.0,0.0,0.0,0.0,0.0,0.0,0.0,0.0,0.0,0.0,0.0,0.0,0.0,0.0,0.0,0.0,0.0,-3.7974,-3.7974,-3.7974,-3.7998,-3.8527,-3.8815,-3.8815,-3.9345,-3.9369,-3.8839,-3.9898,-4.0667,-4.1172,-4.1172,-4.1172,-4.123,-4.1492,-4.1606,-4.1606,-4.1972,-4.2256,-4.2513,-4.2513,-4.2369,-4.2167,0.0,0.0,0.0,0.0,0.0,0.0,0.0,-4.5372,0.0,0.0,0.0,0.0,0.0,-4.6301,-4.6301,-4.6301,-4.6301,-4.6301,-4.6301,0.0,0.0,-4.6301,-4.6301,-4.6301,-4.6301,-4.6301,-4.6301,-4.6301,0.0,0.0,0.0,0.0,0.0,0.0,0.0,0.0,0.0,0.0,0.0,0.0,0.0,0.0,0.0,0.0,0.0,0.0,0.0,0.0,0.0,0.0,0.0,0.0,0.0,-5.1272,-5.1272,-5.1272,-5.1272,-5.1272,-5.1272,-5.1272,-5.1272,-5.1272,-5.1272,-5.1222,-5.0645,-5.0092,-4.959,-4.959,-4.959,-4.959,-4.959,-4.959,-4.959,0.0,0.0,0.0,0.0,0.0,0.0,0.0,0.0,0.0,0.0,0.0,0.0,0.0,0.0,0.0,0.0,0.0,0.0,-3.7974,-3.7974,-3.8166,-3.8551,-3.8719,-3.8984,-3.9369,-3.9898,-4.009,-3.9922,-4.0619,-4.1028,-4.1172,-4.1172,-4.1287,-4.1492,-4.1549,-4.172,-4.1972,-4.2256,-4.2425,-4.2513,-4.2737,-4.2818,-4.2762,0.0,0.0,0.0,0.0,0.0,0.0,0.0,0.0,0.0,0.0,0.0,0.0,-4.6301,-4.6301,-4.6301,-4.6301,-4.6301,0.0,-4.6301,0.0,0.0,0.0,-4.6301,0.0,0.0,-4.6301,-4.6301,-4.6301,0.0,0.0,0.0,0.0,0.0,0.0,0.0,0.0,0.0,0.0,0.0,0.0,0.0,0.0,0.0,0.0,0.0,0.0,0.0,0.0,0.0,0.0,0.0,0.0,0.0,0.0,-5.0092,-5.0092,-5.0519,-5.1272,-5.1272,-5.1046,-5.067,-5.067,-5.0444,-5.0092,-4.9916,-4.9741,-4.959,-4.959,-4.959,-4.959,-4.959,-4.959,-4.959,0.0,0.0,0.0,0.0,0.0,0.0,0.0,0.0,0.0,0.0,-3.7974,-3.7974,0.0,0.0,0.0,0.0,0.0,0.0,0.0,-3.819,-3.8455,-3.8815,-3.9224,-3.9705,-4.021,-4.0547,-4.0715,-4.0715,-4.1028,-4.1172,-4.1172,-4.1287,-4.1435,-4.1606,-4.1834,-4.2061,-4.2256,-4.2569,-4.2681,-4.2706,-4.293,-4.293,-4.2818,0.0,0.0,0.0,0.0,0.0,0.0,0.0,0.0,0.0,0.0,0.0,0.0,-4.6301,-4.6301,-4.6301,-4.6301,-4.6301,0.0,-4.6301,-4.6301,-4.6301,-4.6301,0.0,0.0,0.0,0.0,-4.6376,0.0,0.0,0.0,0.0,0.0,0.0,0.0,0.0,0.0,0.0,0.0,0.0,0.0,0.0,0.0,0.0,0.0,0.0,0.0,0.0,0.0,0.0,0.0,0.0,0.0,0.0,0.0,0.0,-4.959,-4.9941,-5.0619,-5.0619,-5.0419,-5.0092,-5.0092,-4.9891,-4.959,-4.959,-4.959,-4.959,-4.959,-4.959,-4.959,-4.959,-4.959,-4.959,0.0,0.0,0.0,0.0,0.0,0.0,0.0,0.0,0.0,0.0,-3.7974,-3.7974,0.0,0.0,0.0,0.0,0.0,0.0,0.0,0.0,-3.8912,-3.896,-3.9922,-4.0691,-4.1172,-4.1172,-4.1172,-4.1172,-4.1172,-4.1172,-4.123,-4.1492,-4.1606,-4.172,-4.2231,-4.2513,-4.2569,-4.2849,-4.2986,-4.2986,-4.2986,-4.2818,-4.2569,-4.2849,0.0,0.0,0.0,0.0,0.0,0.0,0.0,0.0,0.0,0.0,-4.6301,-4.6301,-4.6301,-4.6301,-4.6301,0.0,0.0,0.0,-4.6301,0.0,-4.6301,0.0,-4.6301,-4.6301,0.0,0.0,0.0,0.0,0.0,0.0,0.0,0.0,0.0,0.0,0.0,0.0,0.0,0.0,0.0,0.0,0.0,0.0,0.0,0.0,0.0,0.0,0.0,0.0,0.0,0.0,0.0,0.0,0.0,0.0,0.0,-4.959,-4.959,-4.959,-4.959,-4.959,-4.959,-4.959,-4.959,-4.959,-4.959,-4.959,-4.959,-4.959,-4.959,-4.959,-4.959,-4.959,0.0,0.0,0.0,0.0,0.0,0.0,0.0,0.0,0.0,0.0,0.0,0.0,0.0,0.0,0.0,0.0,0.0,0.0,0.0,0.0,-3.9633,-4.0042,-4.0667,-4.1076,-4.1172,-4.1172,-4.1172,-4.1172,-4.1172,-4.1287,-4.1492,-4.1549,-4.1834,-4.2287,-4.2457,-4.2625,-4.293,-4.2986,-4.2986,-4.2986,-4.2986,-4.2986,-4.293,-4.2986,-4.2986,0.0,0.0,0.0,0.0,0.0,0.0,0.0,-4.6301,-4.6301,-4.6301,-4.6301,-4.6301,-4.6301,0.0,-4.6301,0.0,0.0,0.0,0.0,0.0,0.0,0.0,0.0,0.0,0.0,0.0,0.0,0.0,0.0,0.0,0.0,0.0,0.0,0.0,0.0,0.0,0.0,0.0,0.0,0.0,0.0,0.0,0.0,0.0,0.0,0.0,0.0,0.0,0.0,0.0,0.0,0.0,0.0,-4.959,-4.959,-4.959,-4.959,-4.959,-4.959,-4.959,-4.959,-4.959,-4.959,-4.959,-4.959,-4.959,-4.959,-4.959,-4.959,-4.959,-4.959,0.0,0.0,0.0,0.0,0.0,0.0,0.0,0.0,0.0,0.0,0.0,0.0,0.0,0.0,0.0,0.0,0.0,0.0,0.0,0.0,-4.021,-4.0739,-4.1028,-4.1172,-4.1172,-4.1172,-4.123,-4.1402,-4.123,-4.1344,-4.1606,-4.1891,-4.2174,-4.2513,-4.2706,-4.2874,-4.2986,-4.2986,-4.2986,-4.2986,-4.2986,-4.2986,-4.2986,-4.2986,-4.2986,-4.3112,-4.4217,0.0,0.0,0.0,0.0,0.0,0.0,0.0,-4.6301,-4.6301,-4.6301,-4.6301,0.0,0.0,0.0,0.0,0.0,0.0,0.0,0.0,0.0,0.0,0.0,0.0,0.0,0.0,0.0,0.0,0.0,0.0,0.0,0.0,0.0,0.0,0.0,0.0,0.0,0.0,0.0,0.0,0.0,0.0,0.0,0.0,0.0,0.0,0.0,0.0,-4.959,-4.959,-4.959,-4.959,-4.959,-4.959,-4.959,-4.959,-4.959,-4.959,-4.959,-4.959,-4.959,-4.959,-4.959,-4.959,-4.959,-4.959,-4.959,-4.959,-4.959,-4.959,0.0,0.0,0.0,0.0,0.0,0.0,0.0,0.0,0.0,0.0,0.0,0.0,0.0,0.0,0.0,0.0,0.0,0.0,0.0,0.0,0.0,-4.086,-4.1057,-4.1172,-4.1172,-4.1172,-4.1344,-4.1606,-4.1459,-4.1516,-4.1777,-4.2231,-4.2481,-4.2569,-4.2874,-4.2986,-4.2986,-4.2986,-4.2986,-4.2986,-4.2986,-4.2986,-4.2986,-4.2986,-4.2986,-4.3112,-4.4217,-4.4618,-4.4794,-4.5924,0.0,0.0,0.0,0.0,-4.6301,-4.6301,-4.6301,-4.6301,0.0,0.0,0.0,0.0,0.0,0.0,0.0,0.0,0.0,0.0,0.0,0.0,0.0,0.0,0.0,0.0,0.0,0.0,0.0,0.0,0.0,0.0,0.0,0.0,0.0,0.0,0.0,0.0,0.0,0.0,0.0,0.0,0.0,0.0,0.0,0.0,-4.959,-4.959,-4.959,-4.959,-4.959,-4.959,-4.959,-4.959,-4.959,-4.959,-4.959,-4.959,-4.959,-4.959,-4.959,-4.959,-4.959,-4.959,-4.959,-4.959,-4.959,-4.959,0.0,0.0,0.0,0.0,0.0,0.0,0.0,0.0,0.0,0.0,-3.7974,-3.7974,0.0,0.0,0.0,0.0,0.0,0.0,0.0,0.0,0.0,-3.9451,-4.0571,-4.1172,-4.1172,-4.1172,-4.1344,-4.1606,-4.1859,-4.2086,-4.2344,-4.2199,-4.2425,-4.293,-4.2986,-4.2986,-4.2986,-4.2986,-4.2986,-4.2986,-4.2986,-4.2986,-4.2986,-4.2986,-4.2986,-4.3112,-4.4217,-4.4618,-4.4794,-4.5924,-4.6301,0.0,0.0,0.0,-4.6301,-4.6301,-4.6301,-4.6301,0.0,0.0,0.0,0.0,0.0,0.0,0.0,0.0,0.0,0.0,0.0,0.0,0.0,0.0,0.0,0.0,0.0,0.0,0.0,0.0,0.0,0.0,0.0,0.0,0.0,0.0,0.0,0.0,0.0,0.0,0.0,0.0,0.0,0.0,0.0,0.0,-4.959,-4.959,-4.959,-4.959,-4.959,-4.959,-4.959,-4.959,-4.959,-4.959,-4.959,-4.959,-4.959,-4.959,-4.959,-4.959,-4.959,-4.959,-4.959,-4.959,-4.959,-4.959,0.0,0.0,0.0,0.0,0.0,0.0,0.0,0.0,0.0,0.0,0.0,-3.6378,0.0,0.0,0.0,0.0,0.0,0.0,0.0,0.0,0.0,-4.0316,-4.0884,-4.1172,-4.1172,-4.1344,-4.1492,-4.1606,-4.1915,-4.2256,-4.2513,-4.2369,-4.2594,-4.2986,-4.2986,-4.2986,-4.2986,-4.2986,-4.2986,-4.2986,-4.2986,-4.2986,-4.2986,-4.2986,-4.2986,-4.3112,-4.4217,-4.4618,-4.4794,-4.5924,-4.6301,-4.6301,-4.6301,0.0,0.0,0.0,-4.6301,0.0,-4.6301,0.0,0.0,0.0,0.0,0.0,0.0,0.0,0.0,0.0,0.0,0.0,0.0,0.0,0.0,0.0,0.0,0.0,0.0,0.0,0.0,0.0,0.0,0.0,0.0,0.0,0.0,0.0,0.0,0.0,0.0,-4.959,-4.959,-4.959,-4.959,0.0,-4.959,-4.959,-4.959,-4.959,-4.959,-4.959,-4.959,-4.959,-4.959,-4.959,-4.959,-4.959,-4.959,-4.959,-4.959,-4.959,-4.959,-4.959,-4.959,-4.959,-4.959,-4.959,0.0,0.0,0.0,0.0,0.0,0.0,0.0,0.0,0.0,0.0,0.0,0.0,0.0,0.0,0.0,0.0,0.0,0.0,0.0,0.0,0.0,-4.0687,-4.1,-4.1172,-4.1172,-4.1402,-4.1549,-4.172,-4.1972,-4.2256,-4.2625,-4.2625,-4.2737,-4.2986,-4.2986,-4.2986,-4.2986,-4.2986,-4.2986,-4.2986,-4.2986,-4.2986,-4.2986,-4.2986,-4.2986,-4.3112,-4.4066,-4.4493,-4.4769,-4.5773,-4.62,-4.6301,-4.6301,-4.6301,0.0,0.0,0.0,0.0,0.0,0.0,0.0,0.0,0.0,0.0,0.0,0.0,0.0,0.0,0.0,0.0,0.0,0.0,0.0,0.0,0.0,0.0,0.0,0.0,0.0,0.0,0.0,0.0,0.0,0.0,0.0,0.0,0.0,0.0,0.0,-4.959,-4.959,-4.959,-4.959,-4.959,-4.959,-4.959,-4.959,-4.959,-4.959,-4.959,-4.959,-4.959,-4.959,-4.959,-4.959,-4.959,-4.959,-4.959,-4.959,-4.959,-4.959,-4.959,-4.959,-4.959,-4.959,-4.959,0.0,0.0,0.0,0.0,0.0,0.0,0.0,0.0,0.0,0.0,0.0,0.0,-3.5168,-3.5918,-3.6935,-3.8285,-3.8778,0.0,0.0,0.0,0.0,-3.9275,-4.0513,0.0,-4.1172,-4.1172,-4.1516,-4.2054,-4.211,-4.2369,-4.2986,-4.2986,-4.2986,-4.2986,-4.2986,-4.2986,-4.2986,-4.2986,-4.2986,-4.2986,-4.2986,-4.2986,-4.2986,-4.2986,-4.2986,-4.3062,-4.3639,-4.4192,-4.4719,-4.5321,-4.5874,-4.6301,-4.6301,-4.6301,-4.6301,0.0,0.0,0.0,0.0,0.0,0.0,0.0,0.0,0.0,0.0,0.0,0.0,0.0,0.0,0.0,0.0,0.0,0.0,0.0,0.0,0.0,0.0,0.0,0.0,0.0,0.0,0.0,0.0,0.0,0.0,0.0,0.0,0.0,-4.959,-4.959,-4.959,-4.959,-4.959,-4.959,-4.959,-4.959,-4.959,-4.959,-4.959,-4.959,-4.959,-4.959,-4.959,-4.959,-4.959,-4.959,-4.959,-4.959,-4.959,-4.959,-4.959,-4.959,-4.959,-4.959,-4.959,-4.959,0.0,0.0,0.0,0.0,0.0,0.0,0.0,0.0,0.0,0.0,0.0,0.0,0.0,-3.645,-3.6897,-3.7621,-3.7858,0.0,0.0,0.0,0.0,-4.0513,-4.0942,-4.1172,-4.1172,-4.1402,-4.1549,-4.1777,-4.2199,-4.2481,-4.2681,-4.293,-4.2986,-4.2986,-4.2986,-4.2986,-4.2986,-4.2986,-4.2986,-4.2986,-4.2986,-4.2986,-4.2986,-4.2986,-4.2986,-4.3087,-4.4016,-4.4468,-4.4769,-4.5698,-4.615,-4.6301,-4.6301,-4.6301,-4.6301,-4.6301,-4.6301,-4.6301,0.0,0.0,0.0,0.0,0.0,0.0,0.0,0.0,0.0,0.0,0.0,0.0,0.0,0.0,0.0,0.0,0.0,0.0,0.0,0.0,0.0,0.0,0.0,0.0,0.0,0.0,0.0,0.0,0.0,0.0,-4.959,-4.959,-4.959,-4.959,-4.959,-4.959,-4.959,-4.959,-4.959,-4.959,-4.959,-4.9414,-4.9063,-4.9063,-4.8862,-4.851,-4.851,-4.8912,-4.959,-4.959,-4.959,-4.959,-4.959,-4.9389,-4.9063,-4.9063,-4.8837,-4.851,0.0,0.0,0.0,0.0,0.0,0.0,0.0,0.0,-3.3235,-3.2987,0.0,0.0,0.0,0.0,-3.654,-3.7205,-3.773,-3.797,-3.797,-3.9966,-4.1172,-4.1172,-4.1172,-4.123,-4.1344,-4.1322,-4.1525,-4.1891,-4.2114,-4.2395,-4.2681,-4.293,-4.2986,-4.2986,-4.2986,-4.2986,-4.2986,-4.2986,-4.2986,-4.2986,-4.2986,-4.2986,-4.2986,-4.3187,-4.3263,-4.3363,-4.4292,-4.4744,-4.502,-4.5773,-4.615,-4.6301,-4.6301,-4.6301,-4.6301,-4.6301,-4.6301,-4.6301,-4.6301,0.0,0.0,0.0,0.0,0.0,0.0,0.0,0.0,0.0,0.0,0.0,0.0,0.0,0.0,0.0,0.0,0.0,0.0,0.0,0.0,0.0,0.0,0.0,0.0,0.0,0.0,0.0,0.0,0.0,-4.959,-4.959,-4.9515,-4.9314,-4.9314,-4.9213,-4.9038,-4.9038,-4.9038,-4.9038,-4.9038,-4.8837,-4.8485,-4.8485,-4.8259,-4.7908,-4.7908,-4.8335,-4.9038,-4.9038,-4.9038,-4.9038,-4.9038,-4.8812,-4.8485,-4.8485,-4.8234,-4.7908,0.0,0.0,0.0,0.0,0.0,0.0,0.0,0.0,-3.3144,-3.2371,0.0,0.0,0.0,0.0,0.0,-3.7248,-3.8506,-3.9216,-3.9216,-4.0455,-4.1172,-4.1172,-4.1172,0.0,-4.1606,-4.1096,-4.1377,-4.2457,-4.1935,-4.2182,-4.2986,-4.2986,-4.2986,-4.2986,-4.2986,-4.2986,-4.2986,-4.2986,-4.2986,-4.2986,-4.2986,-4.2986,-4.3062,-4.3589,-4.3815,-4.389,-4.4443,-4.502,-4.5497,-4.5497,-4.5874,-4.6301,-4.6301,-4.6301,-4.6301,-4.6301,-4.6301,-4.6301,0.0,0.0,0.0,0.0,0.0,0.0,0.0,0.0,0.0,0.0,0.0,0.0,0.0,0.0,0.0,0.0,0.0,0.0,0.0,0.0,0.0,0.0,0.0,0.0,0.0,0.0,0.0,0.0,0.0,0.0,-4.954,-4.954,-4.9289,-4.8761,-4.8736,-4.8485,-4.7908,-4.7908,-4.7908,-4.7908,-4.7908,-4.7908,-4.7883,-4.7883,-4.7883,-4.7857,-4.7857,-4.7857,-4.7857,-4.7883,-4.7908,-4.7908,-4.7908,-4.7908,-4.7883,-4.7883,-4.7883,-4.7857,0.0,0.0,0.0,0.0,0.0,-3.1484,-3.1914,-3.253,-3.3194,0.0,0.0,0.0,-3.5964,-3.6496,-3.7309,-3.8566,-3.898,-3.9216,-3.9216,-4.0455,-4.1172,-4.1172,-4.1172,-4.123,-4.1287,-4.1142,-4.1347,-4.1834,-4.1938,-4.222,-4.2625,-4.2874,-4.2986,-4.2986,-4.2986,-4.2986,-4.2986,-4.2986,-4.2986,-4.2986,-4.2986,-4.3212,-4.3589,-4.374,-4.4041,0.0,0.0,-4.5347,-4.5547,-4.5949,-4.6175,-4.6301,-4.6301,-4.6301,-4.6301,-4.6301,-4.6301,-4.6301,-4.6301,0.0,0.0,0.0,0.0,0.0,0.0,0.0,0.0,0.0,0.0,0.0,0.0,0.0,0.0,0.0,0.0,0.0,0.0,0.0,0.0,0.0,0.0,0.0,0.0,0.0,0.0,0.0,0.0,-4.8385,-4.8385,-4.8385,-4.8309,-4.8159,-4.8159,-4.8083,-4.7908,-4.7908,-4.7908,-4.7908,-4.7908,-4.7707,-4.7355,-4.7355,-4.7129,-4.6753,-4.6753,-4.6753,-4.6803,-4.7581,-4.7908,-4.7908,-4.7908,-4.7682,-4.7355,-4.7355,-4.7104,-4.6753,0.0,0.0,0.0,0.0,0.0,-3.2575,-3.2485,-3.3598,-3.435,0.0,0.0,0.0,-3.7947,-3.761,-3.779,-3.9098,-3.9216,-3.9216,-3.9216,-4.0455,-4.1172,-4.1172,-4.1172,-4.1311,-4.1573,-4.1241,-4.1331,-4.2004,-4.1977,-4.209,-4.2369,-4.2818,-4.293,-4.2818,-4.293,-4.2986,-4.2986,-4.2986,-4.2986,0.0,-4.3212,0.0,0.0,-4.4317,-4.4694,0.0,0.0,0.0,-4.5874,-4.62,-4.6301,-4.6301,-4.6301,-4.6301,-4.6301,-4.6301,-4.6301,-4.6301,-4.6301,-4.6301,-4.6301,-4.6301,0.0,0.0,0.0,0.0,0.0,0.0,0.0,0.0,0.0,0.0,0.0,0.0,0.0,0.0,0.0,0.0,0.0,0.0,0.0,0.0,0.0,0.0,0.0,0.0,-4.7908,-4.7908,-4.7908,-4.7908,-4.7807,-4.7581,-4.7581,-4.7481,-4.723,-4.723,-4.723,-4.723,-4.723,-4.7079,-4.6803,-4.6803,-4.6627,-4.6301,-4.6301,-4.6301,-4.6351,-4.6979,-4.723,-4.723,-4.723,-4.7054,-4.6803,-4.6803,-4.6602,-4.6301,0.0,0.0,-3.166,-3.209,-3.3196,-3.3718,-3.2979,-3.4958,-3.587,0.0,-3.5971,-3.791,-3.8862,-3.8089,-3.8029,-3.9275,-3.9416,-3.9416,-3.9416,-4.0571,-4.1172,-4.1172,-4.1172,-4.1459,-4.1997,-4.1257,-4.1345,-4.2344,-4.1929,-4.1898,-4.211,-4.2706,-4.2874,-4.2569,-4.2874,0.0,-4.2986,-4.3037,0.0,-4.3112,-4.3614,-4.389,0.0,0.0,-4.5522,-4.5648,-4.6125,-4.6301,-4.6301,-4.6301,-4.6301,-4.6301,-4.6301,-4.6301,-4.6301,-4.6301,-4.6301,-4.6301,-4.6301,-4.6301,-4.6301,-4.6301,-4.6301,0.0,-4.6301,-4.6301,0.0,0.0,0.0,0.0,0.0,0.0,0.0,0.0,0.0,0.0,0.0,0.0,0.0,0.0,0.0,0.0,0.0,0.0,0.0,-4.7732,-4.7732,-4.7732,-4.7732,-4.7732,-4.7506,-4.7054,-4.6993,-4.6803,-4.6326,-4.6301,-4.6301,-4.6301,-4.6301,-4.6301,-4.6301,-4.6301,-4.6301,-4.6301,-4.6301,-4.6301,-4.6301,-4.6301,-4.6301,-4.6301,-4.6301,-4.6301,-4.6301,-4.6301,-4.6301,-4.6301,0.0,-3.1289,-3.166,-3.209,-3.2686,-3.3122,-3.3242,-3.4634,-3.5886,-3.6438,-3.791,-3.8506,-3.779,-3.8387,-3.9357,-4.0687,-4.0803,-4.0803,-4.0803,-4.1057,-4.1172,-4.1172,-4.1172,-4.1254,-4.1369,-4.1191,-4.1248,-4.1459,-4.1817,-4.2044,-4.211,-4.2706,-4.2986,-4.293,-4.2986,-4.2986,-4.3011,0.0,0.0,-4.3639,-4.3765,0.0,-4.5171,-4.5397,-4.5773,-4.6175,-4.6276,-4.6301,-4.6301,-4.6301,-4.6301,-4.6301,0.0,-4.6301,-4.6301,-4.6301,-4.6301,-4.6301,-4.6301,-4.6301,-4.6301,-4.6301,-4.6301,0.0,-4.6301,-4.6301,0.0,0.0,0.0,0.0,0.0,0.0,0.0,0.0,0.0,0.0,0.0,0.0,0.0,0.0,0.0,0.0,0.0,0.0,0.0,-4.6627,-4.6627,-4.6627,-4.6627,-4.6627,-4.6577,-4.6476,-4.6476,-4.6426,-4.6301,-4.6301,-4.6301,-4.6301,-4.6301,-4.6301,-4.6301,-4.6301,-4.6301,-4.6301,-4.6301,-4.6301,-4.6301,-4.6301,-4.6301,-4.6301,-4.6301,-4.6301,-4.6301,-4.6301,-4.6301,-4.6301,-3.1172,-3.1543,-3.2214,-3.3276,-3.4309,-3.4923,-3.4487,-3.6032,-3.6824,-3.554,-3.7045,-3.8268,-3.8268,-3.8803,-3.9709,-4.1057,-4.0571,-4.0513,-4.1172,-4.1172,-4.1172,-4.1172,-4.1172,-4.123,-4.1402,-4.1287,-4.1287,-4.1402,-4.1859,-4.194,-4.1631,-4.2594,-4.2818,-4.2538,-4.2874,-4.3137,-4.3413,0.0,-4.4141,-4.4644,-4.4644,0.0,-4.5522,-4.5799,-4.6075,-4.6301,-4.6301,-4.6301,-4.6301,-4.6301,-4.6301,0.0,-4.6301,-4.6301,-4.6301,0.0,-4.6301,-4.6301,-4.6301,-4.6301,-4.6301,-4.6301,-4.6301,0.0,0.0,-4.6301,0.0,0.0,0.0,0.0,0.0,0.0,0.0,0.0,0.0,0.0,0.0,0.0,0.0,0.0,0.0,0.0,0.0,0.0,-4.6301,-4.6301,-4.6301,-4.6301,-4.6301,-4.6301,-4.6301,-4.6301,-4.6301,-4.6301,-4.6301,-4.6301,-4.6301,-4.6301,-4.6301,-4.6301,-4.6301,-4.6301,-4.6301,-4.6301,-4.6301,-4.6301,-4.6301,-4.6301,-4.6301,-4.6301,-4.6301,-4.6301,-4.6301,-4.6301,-4.6301,-4.6301,-3.1328,-3.1816,-3.2631,-3.3963,-3.5734,-3.652,-3.5191,-3.7188,-3.7708,-3.457,-3.646,-3.8328,-3.9098,-3.9416,-4.0024,-4.1115,-4.0199,-4.0024,-4.1115,-4.1172,-4.1172,-4.1172,-4.1172,-4.1287,-4.1492,-4.1287,-4.1287,-4.1492,-4.1859,-4.1745,-4.1287,-4.2369,-4.2669,-4.2372,-4.2856,-4.3382,-4.3966,0.0,0.0,-4.5497,0.0,-4.5648,-4.5698,-4.615,-4.6301,-4.6301,-4.6301,-4.6301,-4.6301,-4.6301,-4.6301,-4.6301,-4.6301,-4.6301,0.0,0.0,0.0,-4.6301,-4.6301,-4.6301,-4.6301,-4.6301,0.0,-4.6301,0.0,0.0,0.0,0.0,0.0,0.0,0.0,0.0,0.0,0.0,0.0,0.0,0.0,0.0,0.0,0.0,0.0,0.0,0.0,0.0,0.0,-4.6301,-4.6301,-4.6301,-4.6301,-4.6301,-4.6301,-4.6301,-4.6301,-4.6301,-4.6301,-4.6301,-4.6301,-4.6301,-4.6301,-4.6301,-4.6301,-4.6301,-4.6301,-4.6301,-4.6301,-4.6301,-4.6301,-4.6301,-4.6301,-4.6301,-4.6301,-4.6301,-4.6301,-4.6301,-4.6301,-4.6301,-3.0957,-3.1621,-3.2248,-3.247,-3.4207,-3.5191,-3.3859,-3.5848,-3.7369,-3.6946,-3.9121,-4.0397,-3.9275,-4.0257,-4.1057,-4.1196,-4.1057,-4.1057,-4.1196,-4.1172,-4.1172,-4.1172,-4.1172,-4.1172,-4.123,-4.123,-4.1172,-4.123,-4.1492,-4.1606,-4.1549,-4.1972,-4.2584,-4.3283,-4.334,-4.3811,-4.4568,0.0,-4.5372,0.0,-4.6024,-4.6225,0.0,-4.6276,-4.6301,-4.6301,-4.6301,-4.6301,-4.6301,0.0,-4.6301,-4.6301,0.0,-4.6301,-4.6301,-4.6301,0.0,0.0,0.0,0.0,0.0,0.0,-4.6301,0.0,0.0,0.0,0.0,0.0,0.0,0.0,0.0,0.0,0.0,0.0,0.0,0.0,0.0,0.0,0.0,0.0,0.0,0.0,0.0,0.0,0.0,0.0,-4.6301,-4.6301,-4.6301,-4.6301,-4.6301,-4.6301,-4.6301,-4.6301,-4.6301,-4.6301,-4.6301,-4.6301,-4.6301,-4.6301,-4.6301,-4.6301,-4.6301,-4.6301,-4.6301,-4.6301,-4.6301,-4.6301,-4.6301,-4.6301,-4.6301,-4.6301,-4.6301,-4.6301,-4.6301,-4.6301,-3.0898,-3.1367,-3.2096,-3.3115,-3.4267,-3.4882,-3.4592,-3.4819,-3.5314,-3.6093,-3.779,-3.8684,-3.8149,-3.9239,-4.0316,-4.1115,-4.0513,-4.0374,0.0,-4.1172,-4.1172,-4.1172,-4.1172,-4.1172,-4.1172,-4.1172,-4.1172,-4.1172,-4.1435,-4.1606,-4.1606,-4.2234,-4.2873,-4.3382,-4.3705,0.0,-4.5146,0.0,-4.5673,0.0,0.0,0.0,0.0,-4.6301,-4.6301,-4.6301,-4.6301,-4.6301,-4.6301,0.0,-4.6301,0.0,0.0,0.0,0.0,-4.6301,0.0,0.0,0.0,0.0,0.0,0.0,0.0,0.0,-4.6301,0.0,-4.6301,0.0,0.0,0.0,0.0,0.0,0.0,0.0,0.0,0.0,0.0,0.0,0.0,0.0,0.0,0.0,0.0,0.0,0.0,0.0,0.0,-4.6301,-4.6301,-4.6301,-4.6301,-4.6301,-4.6301,-4.6301,-4.6301,-4.6301,-4.6301,-4.6301,-4.6301,-4.6301,-4.6301,-4.6301,-4.6301,-4.6301,-4.6301,-4.6301,-4.6301,-4.6301,-4.6301,-4.6301,-4.6301,-4.6301,-4.6301,-4.6301,-4.6301,-4.6301,-3.0898,-3.123,-3.1939,-3.3374,-3.4223,-3.4838,-3.5314,-3.4881,-3.4819,-3.5786,-3.7369,-3.8387,-3.8387,-3.918,-4.0141,-4.1115,-4.0316,-4.0141,0.0,-4.1172,-4.1172,-4.1172,-4.1172,-4.1172,-4.1172,-4.1172,-4.1172,-4.1172,-4.1547,-4.171,-4.1735,-4.2525,-4.3134,-4.3597,0.0,-4.4758,-4.5604,0.0,-4.5949,-4.6301,-4.6301,-4.6301,-4.6301,-4.6301,-4.6301,-4.6301,-4.6301,-4.6301,-4.6301,-4.6301,-4.6301,0.0,-4.6301,0.0,0.0,0.0,0.0,0.0,-4.6301,0.0,0.0,0.0,0.0,0.0,0.0,0.0,0.0,0.0,0.0,0.0,0.0,0.0,-4.6301,-4.6301,0.0,0.0,0.0,0.0,0.0,0.0,0.0,0.0,0.0,0.0,0.0,0.0,-4.6301,0.0,-4.6301,-4.6301,-4.6301,-4.6301,-4.6301,-4.6301,-4.6301,-4.6301,-4.6301,-4.6301,-4.6301,-4.6301,-4.6301,-4.6301,-4.6301,-4.6301,-4.6301,-4.6301,-4.6301,-4.6301,-4.6301,-4.6301,-4.6301,-4.6301,-4.6301,-4.6301,-4.6301,-4.6301,-3.0898,-3.123,-3.166,-3.215,-3.3639,-3.4838,-3.5314,-3.6399,-3.7188,-3.7248,-3.9474,-4.1057,-4.1057,-4.1115,-4.1115,-4.1172,-4.1172,-4.1115,-4.1172,0.0,-4.1172,-4.1172,-4.1172,-4.1172,-4.1172,-4.1172,-4.1172,-4.1172,-4.176,-4.2,-4.2024,-4.2554,-4.324,-4.4001,-4.4326,-4.4946,-4.5793,-4.6155,-4.6301,-4.6301,-4.6301,-4.6301,-4.6301,0.0,-4.6301,-4.6301,-4.6301,0.0,0.0,-4.6301,-4.6301,0.0,0.0,0.0,0.0,0.0,0.0,0.0,0.0,0.0,0.0,-4.6301,0.0,0.0,0.0,0.0,-4.6301,0.0,0.0,0.0,0.0,-4.6301,-4.6301,-4.6301,-4.6301,0.0,0.0,0.0,0.0,0.0,0.0,0.0,0.0,0.0,0.0,0.0,-4.6301,0.0,-4.6301,-4.6301,-4.6301,-4.6301,-4.6301,-4.6301,-4.6301,-4.6301,-4.6301,-4.6301,-4.6301,-4.6301,-4.6301,-4.6301,-4.6301,-4.6301,-4.6301,-4.6301,-4.6301,-4.6301,-4.6301,-4.6301,-4.6301,-4.6301,-4.6301,-4.6301,-4.6301,-4.6301,-3.0898,-3.0996,-3.1328,-3.2051,-3.2691,-3.3273,0.0,-3.5191,0.0,0.0,-3.8268,0.0,0.0,-4.0687,-4.1172,0.0,0.0,-4.1172,-4.1172,-4.1172,0.0,-4.1172,-4.1172,-4.1172,-4.1172,-4.1533,-4.1701,-4.1701,-4.2289,-4.2614,-4.2815,-4.3144,-4.3783,-4.4639,0.0,-4.5073,0.0,0.0,0.0,0.0,0.0,-4.6301,-4.6301,0.0,0.0,-4.6301,-4.6301,-4.6301,0.0,-4.6301,-4.6301,-4.6301,-4.6301,-4.6301,-4.6301,-4.6301,-4.6301,0.0,0.0,0.0,-4.6301,-4.6301,0.0,0.0,0.0,0.0,0.0,0.0,0.0,0.0,0.0,-4.6301,-4.6301,-4.6301,-4.6301,-4.6301,0.0,0.0,0.0,0.0,0.0,0.0,0.0,0.0,0.0,-4.6301,-4.6301,0.0,0.0,-4.6301,-4.6301,-4.6301,-4.6301,-4.6301,-4.6301,-4.6301,-4.6301,-4.6301,-4.6301,-4.6301,-4.6301,-4.6301,-4.6301,-4.6301,-4.6301,-4.6301,-4.6301,-4.6301,-4.6301,-4.6301,-4.6301,-4.6301,-4.6301,-4.6301,-4.6301,-4.6301,-3.0898,-3.0898,-3.1113,-3.1816,0.0,0.0,0.0,0.0,0.0,0.0,-3.8328,0.0,-3.9908,0.0,-4.1172,0.0,-4.1172,-4.1268,-4.1461,-4.1461,0.0,-4.1725,-4.1749,-4.1749,-4.1749,-4.2145,-4.2254,-4.2254,-4.2784,-4.3144,-4.3288,-4.3614,-4.4123,-4.4754,0.0,-4.5208,-4.5635,0.0,-4.5999,0.0,0.0,-4.6301,0.0,0.0,-4.6301,0.0,0.0,-4.6301,-4.6301,-4.6301,-4.6301,-4.6301,-4.6301,-4.6301,-4.6301,-4.6301,-4.6301,-4.6301,-4.6301,-4.6301,0.0,0.0,-4.6301,0.0,-4.6301,0.0,0.0,0.0,0.0,0.0,0.0,-4.6301,-4.6301,-4.6301,-4.6301,-4.6301,0.0,-4.6301,0.0,0.0,0.0,0.0,0.0,0.0,-4.6301,-4.6301,-4.6301,-4.6301,0.0,0.0,-4.6301,-4.6301,-4.6301,-4.6301,-4.6301,-4.6301,-4.6301,-4.6301,-4.6301,-4.6301,-4.6301,-4.6301,-4.6301,-4.6301,-4.6301,-4.6301,-4.6301,-4.6301,-4.6301,-4.6301,-4.6301,-4.6301,-4.6301,-4.6301,-4.6301,-4.6301,-3.0918,-3.0937,0.0,0.0,-3.2266,0.0,0.0,0.0,-3.7248,0.0,-3.9533,-4.1115,-4.1172,-4.1196,-4.122,-4.122,-4.1244,-4.1485,-4.199,-4.2014,0.0,0.0,-4.2819,-4.2819,-4.2819,-4.2843,-4.2867,-4.2867,-4.3313,-4.3553,-4.3553,-4.4045,-4.4285,-4.4347,-4.4963,0.0,-4.5331,-4.5999,-4.624,-4.6301,-4.6301,-4.6301,-4.6301,-4.6301,0.0,-4.6301,-4.6301,-4.6301,-4.6301,-4.6301,-4.6301,-4.6301,-4.6301,-4.6301,-4.6301,-4.6301,-4.6301,-4.6301,-4.6301,-4.6301,-4.6301,-4.6301,0.0,0.0,0.0,0.0,-4.6301,0.0,0.0,0.0,0.0,-4.6301,-4.6301,-4.6301,-4.6301,-4.6301,-4.6301,-4.6301,-4.6301,0.0,0.0,0.0,0.0,-4.6301,-4.6301,-4.6301,-4.6301,-4.6301,0.0,0.0,0.0,-4.6301,-4.6301,-4.6301,-4.6301,-4.6301,-4.6301,-4.6301,-4.6301,-4.6301,-4.6301,-4.6301,-4.6301,-4.6301,-4.6301,-4.6301,-4.6301,-4.6301,-4.6301,-4.6301,-4.6301,-4.6301,-4.6301,-4.6301,-4.6301,-4.6301,-3.1367,-3.1621,-3.1973,0.0,-3.291,-3.3595,0.0,0.0,0.0,0.0,-3.9298,-4.0083,-4.1115,-4.1533,-4.1774,-4.1774,-4.2193,0.0,0.0,0.0,0.0,-4.2819,-4.2819,-4.2819,-4.2819,-4.312,-4.3313,-4.3313,-4.3866,-4.4069,-4.4069,-4.4213,-4.4409,-4.4656,0.0,0.0,-4.5331,-4.5514,-4.5817,-4.6301,-4.6301,-4.6301,0.0,0.0,-4.6301,-4.6301,-4.6301,-4.6301,-4.6301,-4.6301,-4.6301,-4.6301,-4.6301,-4.6301,-4.6301,-4.6301,-4.6301,-4.6301,-4.6301,-4.6301,-4.6301,-4.6301,-4.6301,-4.6301,0.0,0.0,0.0,0.0,0.0,0.0,0.0,0.0,-4.6301,-4.6301,-4.6301,-4.6301,-4.6301,-4.6301,0.0,-4.6301,0.0,0.0,0.0,-4.6301,-4.6301,-4.6301,-4.6301,0.0,0.0,0.0,0.0,0.0,-4.6301,-4.6301,-4.6301,-4.6301,-4.6301,-4.6301,-4.6301,-4.6301,-4.6301,-4.6301,-4.6301,-4.6301,-4.6301,-4.6301,-4.6301,-4.6301,-4.6301,-4.6301,-4.6301,-4.6301,-4.6301,-4.6301,-4.6301,-4.6301,-3.1797,0.0,0.0,-3.2754,0.0,0.0,-3.4403,0.0,0.0,-3.8462,-3.9385,0.0,-4.1753,-4.2193,-4.2386,-4.2386,-4.2651,0.0,-4.3072,0.0,0.0,-4.3433,-4.3457,-4.3457,-4.3457,-4.3721,0.0,-4.3866,-4.4141,-4.4285,-4.4285,-4.4285,-4.4409,-4.4594,0.0,-4.484,0.0,-4.5453,-4.5817,-4.624,-4.5999,0.0,0.0,-4.612,-4.618,-4.6301,-4.6301,-4.6301,-4.6301,-4.6301,-4.6301,-4.6301,-4.6301,-4.6301,-4.6301,-4.6301,-4.6301,-4.6301,-4.6301,-4.6301,-4.6301,-4.6301,-4.6301,-4.6301,-4.6301,-4.6301,-4.6301,0.0,0.0,0.0,0.0,0.0,0.0,-4.6301,-4.6301,-4.6301,-4.6301,0.0,0.0,0.0,-4.6301,0.0,0.0,0.0,0.0,0.0,0.0,0.0,0.0,0.0,0.0,0.0,-4.6301,-4.6301,-4.6301,-4.6301,-4.6301,-4.6301,-4.6301,-4.6301,-4.6301,-4.6301,-4.6301,-4.6301,-4.6301,-4.6301,-4.6301,-4.6301,-4.6301,-4.6301,-4.6301,-4.6301,-4.6301,-4.6301,-4.6301,-4.6301,0.0,0.0,0.0,0.0,0.0,0.0,0.0,-3.5058,0.0,-3.813,0.0,-4.106,-4.264,-4.2688,-4.2736,-4.2856,0.0,-4.3144,-4.3601,-4.3625,-4.3842,-4.4261,-4.4285,-4.4285,-4.4285,-4.4285,-4.4285,-4.4285,-4.4285,-4.4285,-4.4285,-4.4285,0.0,0.0,0.0,0.0,0.0,-4.5635,-4.5939,0.0,-4.5514,-4.5696,-4.618,-4.5878,-4.5999,-4.6301,-4.6301,-4.6301,-4.6301,-4.6301,-4.6301,-4.6301,-4.6301,-4.6301,-4.6301,-4.6301,-4.6301,-4.6301,-4.6301,-4.6301,-4.6301,-4.6301,-4.6301,-4.6301,-4.6301,-4.6301,-4.6301,-4.6301,-4.6301,0.0,0.0,0.0,0.0,-4.6301,-4.6301,0.0,0.0,0.0,0.0,0.0,0.0,0.0,0.0,0.0,0.0,0.0,0.0,0.0,0.0,0.0,0.0,0.0,-4.6301,0.0,-4.6301,0.0,-4.6301,-4.6301,-4.6301,-4.6301,-4.6301,-4.6301,-4.6301,-4.6301,-4.6301,-4.6301,-4.6301,-4.6301,-4.6301,-4.6301,-4.6301,-4.6301,-4.6301,-4.6301,-4.6301,-4.6301,0.0,0.0,0.0,0.0,0.0,-3.4393,-3.5495,-3.5997,-3.704,-3.9371,-3.9288,-4.0033,-4.2496,-4.2188,-4.2178,-4.3264,-4.3794,0.0,0.0,0.0,0.0,-4.4285,-4.4285,-4.4285,-4.4285,-4.4285,-4.4285,-4.4285,-4.4285,-4.4285,-4.4285,-4.4285,0.0,0.0,0.0,0.0,-4.5331,-4.5635,0.0,-4.5453,-4.5331,-4.5514,-4.5878,-4.5817,-4.5999,-4.6301,-4.6301,-4.6301,-4.6301,-4.6301,-4.6301,-4.6301,-4.6301,-4.6301,-4.6301,-4.6301,-4.6301,-4.6301,-4.6301,-4.6301,-4.6301,-4.6301,-4.6301,-4.6301,-4.6301,-4.6301,-4.6301,-4.6301,-4.6301,-4.6301,-4.6301,0.0,0.0,0.0,0.0,0.0,0.0,0.0,0.0,0.0,0.0,0.0,0.0,0.0,0.0,0.0,0.0,0.0,0.0,0.0,0.0,0.0,0.0,0.0,0.0,0.0,0.0,-4.6301,-4.6301,-4.6301,-4.6301,-4.6301,-4.6301,-4.6301,-4.6301,-4.6301,-4.6301,-4.6301,-4.6301,-4.6301,-4.6301,-4.6301,-4.6301,-4.6301,-4.6301,-4.6301,0.0,0.0,0.0,0.0,0.0,0.0,0.0,-3.6234,0.0,-3.9499,-3.963,-4.0256,-4.2303,-4.214,-4.2467,-4.3815,-4.4141,-4.4285,-4.4285,-4.4285,-4.4285,-4.4285,-4.4285,-4.4285,-4.4285,-4.4285,-4.4285,-4.4285,-4.4285,-4.4285,-4.4285,-4.4285,0.0,-4.4285,0.0,-4.4902,0.0,0.0,0.0,-4.527,-4.4902,-4.5208,-4.5757,-4.5635,-4.5878,-4.624,-4.612,-4.612,-4.6301,-4.6301,-4.6301,-4.6301,-4.6301,-4.6301,-4.6301,-4.6301,-4.6301,-4.6301,-4.6301,-4.6301,-4.6301,-4.6301,-4.6301,-4.6301,-4.6301,-4.6301,-4.6301,-4.6301,-4.6301,-4.6301,-4.6301,-4.6301,0.0,0.0,0.0,0.0,0.0,0.0,0.0,0.0,0.0,0.0,0.0,0.0,0.0,0.0,0.0,0.0,0.0,0.0,0.0,0.0,0.0,0.0,0.0,0.0,0.0,-4.6301,-4.6301,-4.6301,-4.6301,-4.6301,-4.6301,-4.6301,-4.6301,-4.6301,-4.6301,-4.6301,-4.6301,-4.6301,-4.6301,-4.6301,-4.6301,-4.6301,-4.6301,-4.6301,0.0,-3.3906,0.0,0.0,-3.457,0.0,-3.5218,-3.6648,-3.7986,-3.8937,-3.9498,-4.0257,-4.1697,-4.1824,-4.242,-4.3764,-4.4161,-4.4285,-4.4285,-4.4285,-4.4285,-4.4285,-4.4285,-4.4285,-4.4285,-4.4285,-4.4285,-4.4285,-4.4285,-4.4213,0.0,-4.4237,0.0,0.0,0.0,0.0,0.0,0.0,-4.4902,-4.5025,-4.4532,-4.484,-4.5574,-4.527,-4.5574,-4.6059,-4.5757,-4.5878,-4.612,-4.618,-4.624,-4.6301,-4.6301,-4.6301,-4.6301,-4.6301,-4.6301,-4.6301,-4.6301,-4.6301,-4.6301,-4.6301,-4.6301,-4.6301,-4.6301,-4.6301,-4.6301,-4.6301,-4.6301,-4.6301,-4.6301,-4.6301,0.0,0.0,0.0,0.0,0.0,0.0,0.0,0.0,0.0,0.0,0.0,0.0,0.0,0.0,0.0,0.0,-4.6301,-4.6301,0.0,0.0,0.0,0.0,-4.6301,0.0,-4.6301,0.0,-4.6301,-4.6301,-4.6301,-4.6301,-4.6301,-4.6301,-4.6301,-4.6301,-4.6301,-4.6301,-4.6301,-4.6301,-4.6301,-4.6301,-4.6301,-4.6301,-4.6301,-4.6301,0.0,0.0,0.0,0.0,0.0,0.0,0.0,-3.7691,-3.7968,-3.7684,-3.8037,-3.8838,-4.0257,-4.0409,-4.0991,-4.2356,-4.3576,-4.4285,-4.4285,-4.4285,-4.4285,-4.4285,-4.4285,-4.4285,-4.4285,-4.4285,-4.4285,0.0,-4.4285,-4.4021,0.0,0.0,0.0,0.0,0.0,0.0,0.0,-4.4779,-4.4656,-4.4409,-4.4347,-4.4532,-4.4902,-4.484,-4.5086,-4.5392,-4.5392,-4.5392,-4.5453,-4.5757,-4.6059,-4.6301,-4.6301,-4.6301,-4.6301,-4.6301,-4.6301,-4.6301,-4.6301,-4.6301,-4.6301,-4.6301,-4.6301,-4.6301,-4.6301,-4.6301,-4.6301,-4.6301,-4.6301,-4.6301,-4.6301,-4.6301,-4.6301,0.0,0.0,0.0,0.0,0.0,-4.6301,-4.6301,0.0,0.0,0.0,0.0,0.0,0.0,0.0,-4.6301,-4.6301,-4.6301,0.0,-4.6301,0.0,-4.6301,-4.6301,-4.6301,0.0,-4.6301,-4.6301,-4.6301,-4.6301,-4.6301,-4.6301,-4.6301,-4.6301,-4.6301,-4.6301,-4.6301,-4.6301,-4.6301,-4.6301,-4.6301,-4.6301,-4.6301,-4.6301,-4.6301,0.0,0.0,0.0,0.0,0.0,0.0,0.0,-3.6689,-3.6816,-3.6636,-3.7493,-3.8308,-3.8904,-3.897,-3.9888,-4.2102,-4.2799,-4.3451,-4.4223,-4.4285,-4.4285,-4.4285,-4.4285,-4.4285,-4.4285,-4.4285,-4.4285,0.0,0.0,0.0,0.0,0.0,0.0,0.0,0.0,-4.447,-4.447,-4.447,-4.4409,-4.4285,-4.4285,-4.447,-4.4779,-4.4779,-4.5025,-4.527,-4.5086,-4.5147,-4.5331,-4.5453,-4.5696,-4.6059,-4.624,-4.6301,-4.6301,-4.6301,-4.6301,-4.6301,-4.6301,-4.6301,-4.6301,-4.6301,-4.6301,-4.6301,-4.6301,-4.6301,-4.6301,-4.6301,-4.6301,-4.6301,-4.6301,-4.6301,-4.6301,0.0,0.0,0.0,0.0,0.0,0.0,-4.6301,0.0,-4.6301,0.0,0.0,0.0,0.0,0.0,0.0,-4.6301,-4.6301,-4.6301,-4.6301,0.0,-4.6301,-4.6301,-4.6301,-4.6301,-4.6301,-4.6301,-4.6301,-4.6301,-4.6301,-4.6301,-4.6301,-4.6301,-4.6301,-4.6301,-4.6301,-4.6301,-4.6301,-4.6301,-4.6301,-4.6301,-4.6301,-4.6301,-4.6301,-3.4902,0.0,-3.5586,0.0,-3.582,-3.6016,-3.6016,-3.6016,-3.6016,-3.6016,-3.6876,-3.7461,-3.7461,-3.7842,-3.9101,-4.1441,-4.2038,-4.2862,-4.4223,-4.4285,-4.4285,-4.4285,-4.4285,0.0,-4.4285,-4.4285,-4.4285,-4.4285,-4.4285,0.0,0.0,0.0,0.0,0.0,-4.4285,-4.4285,-4.4285,-4.4285,-4.4285,-4.4285,-4.4285,-4.4409,-4.4656,-4.4656,-4.4779,-4.4963,-4.4717,-4.4779,-4.5025,-4.5147,-4.5331,-4.5574,-4.612,-4.6301,-4.6301,-4.6301,-4.6301,-4.6301,-4.6301,-4.6301,-4.6301,-4.6301,-4.6301,-4.6301,-4.6301,-4.6301,-4.6301,-4.6301,-4.6301,-4.6301,-4.6301,-4.6301,-4.6301,0.0,0.0,0.0,0.0,0.0,0.0,0.0,-4.6301,-4.6301,-4.6301,0.0,0.0,0.0,0.0,0.0,0.0,-4.6301,0.0,0.0,0.0,0.0,0.0,0.0,-4.6301,-4.6301,-4.6301,-4.6301,-4.6301,-4.6301,-4.6301,-4.6301,-4.6301,-4.6301,-4.6301,-4.6301,-4.6301,-4.6301,-4.6301,-4.6301,-4.6301,-4.6301,-4.6301,-4.6301,-3.5391,-3.5723,-3.6016,-3.6016,-3.6016,-3.6016,-3.6016,-3.6016,-3.6016,-3.6016,-3.6016,-3.6016,-3.6016,-3.726,-3.8705,-4.0062,-4.1505,-4.2862,-4.4223,-4.4285,-4.4285,0.0,0.0,-4.4285,-4.4285,-4.4285,-4.4285,-4.4285,0.0,0.0,-4.3529,0.0,0.0,-4.4285,-4.4285,-4.4285,-4.4285,-4.4285,-4.4285,-4.4285,-4.4285,-4.4285,-4.4285,-4.4285,-4.4285,-4.4285,-4.4285,-4.4285,-4.4347,-4.4717,-4.484,-4.4963,-4.5999,-4.6301,-4.6301,-4.6301,-4.6301,-4.6301,-4.6301,-4.6301,-4.6301,-4.6301,-4.6301,-4.6301,-4.6301,-4.6301,-4.6301,-4.6301,-4.6301,-4.6301,-4.6301,-4.6301,-4.6301,-4.6301,0.0,0.0,0.0,0.0,0.0,0.0,-4.6301,-4.6301,-4.6301,0.0,0.0,0.0,0.0,0.0,0.0,0.0,0.0,-4.6301,-4.6301,0.0,-4.6301,-4.6301,-4.6301,-4.6301,-4.6301,-4.6301,-4.6301,-4.6301,-4.6301,-4.6301,-4.6301,-4.6301,-4.6301,-4.6301,-4.6301,-4.6301,-4.6301,-4.6301,-4.6301,-4.6301,-4.6301,-4.6301,-3.582,-3.5937,-3.6016,-3.6016,-3.6016,-3.6016,-3.6016,-3.6016,-3.6016,-3.6016,-3.6016,-3.6016,-3.6016,-3.6403,-3.726,0.0,-3.9146,-3.9997,0.0,-4.1505,-4.1952,-4.2862,-4.2925,-4.3389,-4.4285,-4.4285,-4.4285,-4.4285,0.0,0.0,0.0,-4.4021,-4.4117,-4.4285,-4.4285,-4.4285,-4.4285,-4.4285,-4.4285,-4.4285,-4.4285,-4.4285,-4.4285,-4.4285,-4.4285,-4.4285,-4.4285,-4.4285,-4.4347,-4.4717,-4.4779,-4.4902,-4.5453,-4.5757,-4.5939,-4.5939,-4.612,-4.6301,-4.6301,-4.6301,-4.6301,-4.6301,-4.6301,-4.6301,-4.6301,-4.6301,-4.6301,-4.6301,-4.6301,-4.6301,-4.6301,-4.6301,-4.6301,-4.6301,0.0,0.0,0.0,0.0,0.0,0.0,-4.6301,-4.6301,0.0,-4.6301,0.0,0.0,0.0,0.0,0.0,0.0,0.0,0.0,-4.6301,0.0,-4.6301,-4.6301,-4.6301,-4.6301,-4.6301,-4.6301,-4.6301,-4.6301,-4.6301,-4.6301,-4.6301,-4.6301,-4.6301,-4.6301,-4.6301,-4.6301,-4.6301,-4.6301,-4.6301,-4.6301,-4.6301,-4.6301,-3.6016,-3.6016,-3.6016,-3.6016,-3.6016,-3.6016,-3.6016,-3.6016,-3.6016,-3.6016,-3.6016,-3.6016,-3.6016,-3.6016,0.0,-3.7975,-3.8109,0.0,-4.0127,-4.0192,-4.0581,-4.1441,-4.1505,-4.2143,-4.3514,0.0,0.0,-4.4285,-4.4285,-4.4285,-4.4285,-4.4285,-4.4285,-4.4285,-4.4285,-4.4285,-4.4285,-4.4285,-4.4285,-4.4285,-4.4285,-4.4285,-4.4285,-4.4285,-4.4285,-4.4285,-4.4285,-4.4285,-4.4347,-4.4532,-4.4594,-4.4656,-4.484,-4.5147,-4.5453,-4.5757,-4.6059,-4.6301,-4.6301,-4.6301,-4.6301,-4.6301,-4.6301,-4.6301,-4.6301,-4.6301,-4.6301,-4.6301,-4.6301,-4.6301,-4.6301,-4.6301,-4.6301,-4.6301,0.0,-4.6301,0.0,0.0,0.0,0.0,0.0,0.0,0.0,-4.6301,0.0,0.0,0.0,0.0,0.0,0.0,0.0,-4.6301,-4.6301,0.0,-4.6301,-4.6301,-4.6301,-4.6301,-4.6301,-4.6301,-4.6301,-4.6301,-4.6301,-4.6301,-4.6301,-4.6301,-4.6301,-4.6301,-4.6301,-4.6301,-4.6301,-4.6301,-4.6301,-4.6301,-4.6301,-4.6301,-3.6016,-3.6016,0.0,0.0,-3.6016,0.0,-3.6016,-3.6016,-3.6016,-3.6016,-3.6016,-3.6016,-3.6016,-3.6016,-3.6539,-3.7842,0.0,0.0,0.0,-3.9932,-3.9932,-4.0062,-4.0062,0.0,-4.2102,-4.2166,-4.2799,-4.4161,-4.4223,-4.4285,-4.4285,-4.4285,-4.4285,-4.4285,-4.4285,-4.4285,-4.4285,-4.4285,-4.4285,-4.4285,-4.4285,-4.4285,-4.4285,-4.4285,-4.4285,-4.4285,-4.4285,-4.4285,-4.4285,-4.4285,-4.4285,-4.4285,-4.4285,-4.4532,-4.4902,-4.5574,-4.5999,-4.624,-4.6301,-4.6301,-4.6301,-4.6301,-4.6301,-4.6301,-4.6301,-4.6301,-4.6301,-4.6301,-4.6301,-4.6301,-4.6301,-4.6301,-4.6301,-4.6301,-4.6301,-4.6301,-4.6301,0.0,0.0,0.0,0.0,0.0,0.0,-4.6301,-4.6301,0.0,0.0,0.0,0.0,0.0,0.0,-4.6301,-4.6301,-4.6301,-4.6301,-4.6301,-4.6301,-4.6301,-4.6301,-4.6301,-4.6301,-4.6301,-4.6301,-4.6301,-4.6301,-4.6301,-4.6301,-4.6301,-4.6301,-4.6301,-4.6301,-4.6301,-4.6301,-4.6301,-4.6301,-4.6301,0.0,0.0,-3.6016,-3.6016,-3.6016,-3.6016,-3.6016,-3.6016,-3.6016,-3.6016,-3.6016,-3.6016,-3.6016,-3.6016,-3.6152,-3.6471,-3.6471,-3.6674,-3.6991,-3.7011,-3.7461,-3.8573,-3.8573,-3.9299,-4.0668,-4.0732,-4.1377,-4.2736,-4.3764,-4.4285,-4.4285,-4.4285,-4.4285,-4.4285,-4.4285,-4.4285,-4.4285,-4.4285,-4.4285,-4.4285,-4.4285,-4.4285,-4.4285,-4.4285,-4.4285,-4.4285,-4.4285,-4.4285,-4.4285,-4.4285,-4.4285,-4.4285,-4.4285,-4.4532,-4.4902,-4.5331,-4.5635,-4.5939,-4.624,-4.6301,-4.6301,-4.6301,-4.6301,-4.6301,-4.6301,-4.6301,-4.6301,-4.6301,-4.6301,-4.6301,-4.6301,-4.6301,-4.6301,-4.6301,-4.6301,-4.6301,-4.6301,0.0,0.0,0.0,-4.6301,-4.6301,-4.6301,-4.6301,-4.6301,0.0,0.0,0.0,0.0,0.0,-4.6301,-4.6301,-4.6301,-4.6301,-4.6301,-4.6301,-4.6301,-4.6301,-4.6301,-4.6301,-4.6301,-4.6301,-4.6301,-4.6301,-4.6301,-4.6301,-4.6301,-4.6301,-4.6301,-4.6301,-4.6301,-4.6301,-4.6301,-4.6301,-4.6301,-4.6301,-3.6016,-3.6016,-3.6016,-3.6016,-3.6016,-3.6016,-3.6016,-3.6016,-3.6016,-3.6016,-3.6016,-3.6016,-3.6016,-3.6016,-3.6016,-3.6016,-3.6016,-3.6016,-3.6016,-3.6016,-3.6355,-3.7126,-3.7126,-3.7775,-3.9212,-3.9212,-4.0257,-4.2293,-4.2988,-4.3701,-4.4285,-4.4285,-4.4285,-4.4285,-4.4285,-4.4285,-4.4285,-4.4285,-4.4285,-4.4285,-4.4285,-4.4285,-4.4285,-4.4285,-4.4285,-4.4285,-4.4285,-4.4285,-4.4285,-4.4285,-4.4285,-4.4285,-4.4285,-4.4409,-4.4656,-4.4963,-4.5392,-4.5817,-4.5999,-4.618,-4.6301,-4.6301,-4.6301,-4.6301,-4.6301,-4.6301,-4.6301,-4.6301,-4.6301,-4.6301,-4.6301,-4.6301,-4.6301,-4.6301,-4.6301,-4.6301,-4.6301,-4.6301,0.0,-4.6301,-4.6301,-4.6301,-4.6301,-4.6301,-4.6301,-4.6301,0.0,0.0,-4.6301,-4.6301,-4.6301,-4.6301,-4.6301,-4.6301,-4.6301,-4.6301,-4.6301,-4.6301,-4.6301,-4.6301,-4.6301,-4.6301,-4.6301,-4.6301,-4.6301,-4.6301,-4.6301,-4.6301,-4.6301,-4.6301,-4.6301,-4.6301,-4.6301,-4.6301,-4.6301,-4.6276,-3.6016,-3.6016,-3.6016,-3.6016,-3.6016,-3.6016,-3.6016,-3.6016,-3.6016,-3.6016,-3.6016,-3.6016,-3.6016,-3.6016,-3.6016,-3.6016,-3.6016,-3.6016,-3.6016,-3.6016,-3.6016,-3.6016,-3.6016,-3.6539,-3.7796,-3.7975,-3.9277,-4.1697,-4.1888,-4.2546,-4.3701,-4.3701,-4.3764,-4.4037,-4.4037,-4.4099,-4.4285,-4.4285,-4.4285,-4.4285,-4.4285,-4.4285,-4.4285,-4.4285,-4.4285,-4.4285,-4.4285,-4.4285,-4.4285,-4.4285,-4.4285,-4.4285,-4.4285,-4.4285,-4.4347,-4.4656,-4.5147,-4.5635,-4.5696,-4.5939,-4.624,-4.6301,-4.624,-4.624,-4.624,-4.624,-4.624,-4.624,-4.624,-4.6301,-4.6301,-4.6301,-4.6301,-4.6301,-4.6301,-4.6301,-4.6301,0.0,-4.6301,-4.6301,-4.6301,-4.6301,-4.6301,-4.6301,-4.6301,-4.6301,-4.6301,0.0,0.0,-4.6301,-4.6301,-4.6301,-4.6301,-4.6301,-4.6301,-4.6301,-4.6301,-4.6301,-4.6301,-4.6301,-4.6301,-4.6301,-4.6301,-4.6301,-4.6301,-4.6301,-4.6301,-4.6301,-4.6301,-4.6301,-4.6301,-4.6301,-4.6301,-4.6225,-4.6175,-4.61,-3.6016,-3.6016,-3.6016,-3.6016,-3.6016,-3.6016,-3.6016,-3.6016,-3.6016,-3.6016,-3.6016,-3.6016,-3.6016,-3.6016,-3.6016,-3.6016,-3.6016,-3.6016,-3.6016,-3.6016,-3.6016,-3.6016,-3.6016,-3.6084,-3.6355,-3.7461,-3.8308,-3.8772,-3.9932,-4.0646,-4.0862,-4.0862,-4.1505,-4.261,-4.261,-4.3263,-4.4285,-4.4285,-4.4285,-4.4285,-4.4285,-4.4285,-4.4285,-4.4285,-4.4285,-4.4285,-4.4285,-4.4285,-4.4285,-4.4285,-4.4285,-4.4285,-4.4285,-4.4285,-4.4285,-4.4347,-4.4656,-4.5025,-4.5331,-4.5635,-4.5939,-4.624,-4.6059,-4.5878,-4.5878,-4.5878,-4.5878,-4.5878,-4.612,-4.6301,-4.6301,-4.6301,-4.6301,-4.6301,-4.6301,-4.6301,0.0,0.0,-4.6301,-4.6301,-4.6301,-4.6301,-4.6301,-4.6301,-4.6301,-4.6301,-4.6301,-4.6301,-4.6301,-4.6301,-4.6301,-4.6301,-4.6301,-4.6301,-4.6301,-4.6301,-4.6301,-4.6301,-4.6301,-4.6301,-4.6301,-4.6301,-4.6301,-4.6301,-4.6301,-4.6301,-4.6301,-4.6301,-4.6301,-4.6301,-4.6301,-4.6301,-4.625,-4.5773,-4.5623,-4.5522,-3.6016,-3.6016,-3.6016,-3.6016,-3.6016,-3.6016,-3.6016,-3.6016,-3.6016,-3.6016,-3.6016,-3.6016,-3.6016,-3.6016,-3.6016,-3.6016,-3.6016,-3.6016,-3.6016,-3.6016,-3.6016,-3.6016,-3.6016,-3.6016,-3.6016,-3.6606,-3.7327,-3.8109,-3.8772,-3.9495,-4.0192,-4.0192,-4.0538,-4.1184,-4.1184,-4.1505,-4.2143,-4.2925,-4.324,-4.3326,-4.4037,-4.4285,-4.4285,-4.4285,-4.4285,-4.4285,-4.4285,-4.4285,-4.4285,-4.4285,-4.4285,-4.4285,-4.4285,-4.4285,-4.4285,-4.4285,-4.4532,-4.4902,-4.5208,-4.5392,-4.5574,-4.5696,-4.5635,-4.5574,-4.5757,-4.5817,-4.5817,-4.5999,-4.618,-4.6301,-4.6301,-4.6301,-4.6301,-4.6301,-4.6301,0.0,0.0,-4.6301,-4.6301,-4.6301,-4.6301,-4.6301,-4.6301,-4.6301,-4.6301,-4.6301,-4.6301,-4.6301,-4.6301,-4.6301,-4.6301,-4.6301,-4.6301,-4.6301,-4.6301,-4.6301,-4.6301,-4.6301,-4.6301,-4.6301,-4.6301,-4.6301,-4.6301,-4.6301,-4.6301,-4.6301,-4.6301,-4.6301,-4.6301,-4.6276,-4.5974,-4.5874,-4.5799,-4.5221,-4.502,-4.4945,-3.6016,-3.6016,-3.6016,-3.6016,-3.6016,-3.6016,-3.6016,-3.6016,-3.6016,-3.6016,-3.6016,-3.6016,-3.6016,-3.6016,-3.6016,-3.6016,-3.6016,-3.6016,-3.6016,-3.6016,-3.6016,-3.6016,-3.6016,-3.6016,-3.6016,-3.6016,-3.6539,-3.7595,-3.7595,-3.8175,-3.9212,-3.9212,-3.9408,-3.967,-3.967,-3.9866,-4.0257,-4.1377,-4.1824,-4.1952,-4.3326,-4.385,-4.3888,-4.4161,-4.4285,-4.4285,-4.4285,-4.4285,-4.4285,-4.4285,-4.4285,-4.4285,-4.4285,-4.4285,-4.4285,-4.4285,-4.447,-4.4779,-4.5086,-4.5208,-4.5208,-4.527,-4.527,-4.527,-4.5635,-4.5696,-4.5757,-4.612,-4.624,-4.6301,-4.6301,-4.6301,-4.6301,-4.6301,0.0,0.0,0.0,-4.6301,-4.624,-4.618,-4.624,-4.624,-4.618,-4.624,-4.6301,-4.6301,-4.6301,-4.6301,-4.6301,-4.6301,-4.6301,-4.6301,-4.6301,-4.6301,-4.6301,-4.6301,-4.6301,-4.6301,-4.6301,-4.6301,-4.6301,-4.6301,-4.6301,-4.6301,-4.6301,-4.6225,-4.6125,-4.6125,-4.605,-4.5874,-4.5447,-4.5296,-4.5221,-4.4644,-4.4443,-4.4342,-3.6016,-3.6016,-3.6016,-3.6016,-3.6016,-3.6016,-3.6016,-3.6016,-3.6016,-3.6016,-3.6016,-3.6016,-3.6016,-3.6016,-3.6016,-3.6016,-3.6016,-3.6016,-3.6016,-3.6016,-3.6016,-3.6016,-3.6016,-3.6016,-3.6016,-3.6016,-3.6016,-3.6152,-3.6152,-3.6219,-3.6287,-3.6287,-3.7011,-3.8242,-3.8242,-3.8948,-4.0214,-4.0322,-4.0322,-4.0452,-4.1888,-4.242,-4.261,-4.3826,-4.4285,-4.4285,-4.4285,-4.4285,-4.4285,-4.4285,-4.4285,-4.4285,-4.4285,-4.4285,-4.4285,-4.4285,-4.4347,-4.4409,-4.4779,-4.484,-4.4902,-4.5208,-4.5086,-4.4902,-4.527,-4.5331,-4.5453,-4.5757,-4.6059,-4.6301,-4.6301,-4.6301,-4.6301,-4.6301,0.0,0.0,-4.6301,-4.6301,-4.618,-4.5878,-4.612,-4.618,-4.5878,-4.612,-4.6301,-4.6301,-4.6301,-4.6301,-4.6301,-4.6301,-4.6301,-4.6301,-4.6301,-4.6301,-4.6301,-4.6301,-4.6301,-4.6301,-4.6301,-4.6301,-4.6301,-4.6301,-4.6301,-4.6301,-4.6301,-4.6024,-4.5547,-4.5547,-4.5221,-4.4744,-4.4694,-4.4694,-4.4618,-4.4066,-4.3865,-4.379,-3.5675,-3.5879,-3.6016,-3.6016,-3.6016,-3.6016,-3.6016,-3.6016,-3.6016,-3.6016,-3.6016,-3.6016,-3.6016,-3.6016,-3.6016,-3.6016,-3.6016,-3.6016,-3.6016,-3.6016,-3.6016,-3.6016,-3.6016,-3.6016,-3.6016,-3.6016,-3.6016,-3.6016,-3.6016,-3.6016,-3.6016,-3.6016,-3.6287,-3.6809,-3.6809,-3.7059,-3.7662,-3.8507,-3.8904,-3.9035,-4.0409,-4.0991,-4.1184,-4.2546,-4.3051,-4.32,-4.4037,-4.4285,-4.4285,-4.4285,-4.4285,-4.4285,-4.4285,-4.4285,-4.4285,-4.4285,-4.4285,-4.4347,-4.447,-4.447,-4.4532,-4.4656,-4.4594,-4.4594,-4.4902,-4.4963,-4.5086,-4.5453,-4.5574,-4.5757,-4.5939,-4.5999,-4.6059,-4.624,0.0,-4.624,-4.5999,-4.5999,-4.5878,-4.5514,-4.5757,-4.5939,-4.5817,-4.612,-4.6301,-4.6301,-4.6301,-4.6301,-4.6301,-4.6301,-4.6301,-4.6301,-4.6301,-4.6301,-4.6301,-4.6301,-4.6301,-4.6301,-4.6301,-4.6301,-4.6301,-4.6301,-4.6125,-4.5799,-4.5799,-4.5472,-4.4945,-4.4945,-4.4819,-4.4593,-4.4242,-4.4116,-4.4041,-4.3489,-4.3288,-4.3263,-3.5333,-3.5606,-3.5811,-3.5811,-3.5947,-3.6016,-3.6016,-3.6016,-3.6016,-3.6016,-3.6016,-3.6016,-3.6016,-3.6016,-3.6016,-3.6016,-3.6016,-3.6016,-3.6016,-3.6016,-3.6016,-3.6016,-3.6016,-3.6016,-3.6016,-3.6016,-3.6016,-3.6016,-3.6016,-3.6016,-3.6016,-3.6016,-3.6016,-3.6016,-3.6016,-3.6016,-3.6084,-3.6991,-3.7461,-3.7595,-3.897,-3.954,-3.967,-4.1119,-4.1911,-4.242,-4.3326,-4.395,-4.4285,-4.4285,-4.4285,-4.4285,-4.4285,-4.4285,-4.4285,-4.4285,-4.4285,-4.4285,-4.4285,-4.4285,-4.4285,-4.4285,-4.4285,-4.4409,-4.4717,-4.4779,-4.4902,-4.5208,-4.5331,-4.5392,-4.5574,-4.5635,-4.5696,-4.5939,-4.5999,-4.5878,-4.5696,-4.5635,-4.5514,-4.5208,-4.5453,-4.5635,-4.5635,-4.5939,-4.618,-4.6301,-4.6301,-4.6301,-4.6301,-4.6301,-4.6301,-4.6301,-4.6301,-4.6301,-4.6301,-4.6301,-4.6301,-4.6301,-4.6125,-4.605,-4.605,-4.5874,-4.5573,-4.5221,-4.5221,-4.4895,-4.4367,-4.4367,-4.4267,-4.4066,-4.3689,-4.3539,-4.3489,-4.3112,-4.2986,-4.2986,-3.4921,-3.5196,-3.5489,-3.5489,-3.5743,-3.6016,-3.6016,-3.6016,-3.6016,-3.6016,-3.6016,-3.6016,-3.6016,-3.6016,-3.6016,-3.6016,-3.6016,-3.6016,-3.6016,-3.6016,-3.6016,-3.6016,-3.6016,-3.6016,-3.6016,-3.6016,-3.6016,-3.6016,-3.6016,-3.6016,-3.6016,-3.6016,-3.6016,-3.6016,-3.6016,-3.6016,-3.6016,-3.6016,-3.6016,-3.6152,-3.7528,-3.8109,-3.8242,-3.967,-4.1055,-4.2293,-4.2293,-4.32,-4.4285,-4.4285,-4.4285,-4.4285,-4.4285,-4.4285,-4.4285,-4.4285,-4.4285,-4.4285,-4.4285,-4.4285,-4.4285,-4.4285,-4.4285,-4.4409,-4.4717,-4.4779,-4.4902,-4.5208,-4.527,-4.527,-4.5331,-4.5331,-4.5331,-4.5331,-4.5331,-4.5331,-4.5331,-4.5331,-4.5147,-4.484,-4.5086,-4.5331,-4.5331,-4.5574,-4.5939,-4.624,-4.6301,-4.6301,-4.6301,-4.6301,-4.6301,-4.6301,-4.6301,-4.6301,-4.6301,-4.6301,-4.6301,-4.6301,-4.5748,-4.5497,-4.5472,-4.4895,-4.4618,-4.4618,-4.4618,-4.4292,-4.379,-4.379,-4.3463,-4.2986,-4.2986,-4.2986,-4.2986,-4.2986,-4.2986,-4.2986,-3.4577,-3.5059,-3.5489,-3.5489,-3.5743,-3.6016,-3.6016,-3.6016,-3.6016,-3.6016,-3.6016,-3.6016,-3.6016,-3.6016,-3.6016,-3.6016,-3.6016,-3.6016,-3.6016,-3.6016,-3.6016,-3.6016,-3.6016,-3.6016,-3.6016,-3.6016,-3.6016,-3.6016,-3.6016,-3.6016,-3.6016,-3.6016,-3.6016,-3.6016,-3.6016,-3.6016,-3.6016,-3.6016,-3.6016,-3.6016,-3.6491,-3.6606,-3.6809,-3.8175,-3.9605,-4.0991,-4.1975,-4.32,-4.4285,-4.4285,-4.4285,-4.4285,-4.4285,-4.4285,-4.4285,-4.4285,-4.4285,-4.4285,-4.4285,-4.4285,-4.4285,-4.4285,-4.4285,-4.4347,-4.4409,-4.447,-4.447,-4.4594,-4.4594,-4.4656,-4.4902,-4.4963,-4.5025,-4.527,-4.5331,-4.5208,-4.4963,-4.4963,-4.484,-4.447,-4.4779,-4.4963,-4.4963,-4.527,-4.5514,-4.5574,-4.5574,-4.5574,-4.5574,-4.5574,-4.5574,-4.5574,-4.5817,-4.5764,-4.5366,-4.6005,-4.6125,-4.5723,-4.5573,-4.5271,-4.4869,-4.4694,-4.4418,-4.4041,-4.4041,-4.374,-4.3212,-4.3212,-4.3112,-4.2986,-4.2986,-4.2986,-4.2986,-4.2986,-4.2986,-4.2986,-3.4163,-3.4784,-3.5264,-3.5264,-3.5675,-3.6016,-3.6016,-3.6016,-3.6016,-3.6016,-3.6016,-3.6016,-3.6016,-3.6016,-3.6016,-3.6016,-3.6016,-3.6016,-3.6016,-3.6016,-3.6016,-3.6016,-3.6016,-3.6016,-3.6016,-3.6016,-3.6016,-3.6016,-3.6016,-3.6016,-3.6016,-3.6016,-3.6016,-3.6016,-3.6016,-3.6016,-3.6016,-3.6016,-3.6016,-3.6016,-3.6016,-3.6016,-3.6084,-3.6944,-3.8109,-3.9474,-4.0322,-4.1505,-4.2799,-4.3326,-4.3826,-4.4285,-4.4285,-4.4285,-4.4285,-4.4285,-4.4285,-4.4285,-4.4285,-4.4285,-4.4285,-4.4285,-4.4285,-4.4285,-4.4285,-4.4285,-4.4285,-4.4285,-4.4285,-4.4347,-4.4532,-4.4594,-4.4656,-4.4902,-4.4902,-4.484,-4.4656,-4.4594,-4.4532,-4.4347,-4.447,-4.4656,-4.4779,-4.4963,-4.5147,-4.527,-4.5331,-4.5331,-4.5331,-4.5331,-4.5232,-4.4986,-4.5314,-4.5246,-4.4699,-4.5295,-4.5472,-4.5146,-4.492,-4.4644,-4.4292,-4.4066,-4.379,-4.3463,-4.3463,-4.3288,-4.2986,-4.2986,-4.2986,-4.2986,-4.2986,-4.2986,-4.2986,-4.2986,-4.2986,-4.2986,-3.3817,-3.437,-3.4853,-3.4853,-3.547,-3.5879,-3.5879,-3.5879,-3.5879,-3.5947,-3.5947,-3.5947,-3.6016,-3.6016,-3.6016,-3.6016,-3.6016,-3.6016,-3.6016,-3.6016,-3.6016,-3.6016,-3.6016,-3.6016,-3.6016,-3.6016,-3.6016,-3.6016,-3.6016,-3.6016,-3.6016,-3.6016,-3.6016,-3.6016,-3.6016,-3.6016,-3.6016,-3.6016,-3.6016,-3.6016,-3.6016,-3.6016,-3.6016,-3.6016,-3.6876,-3.8109,-3.8109,-3.9035,-4.0409,-4.1697,-4.2925,-4.3974,-4.4099,-4.4099,-4.4161,-4.4285,-4.4285,-4.4285,-4.4285,-4.4285,-4.4285,-4.4285,-4.4285,-4.4285,-4.4285,-4.4285,-4.4285,-4.4285,-4.4285,-4.4285,-4.4285,-4.4285,-4.4285,-4.4285,-4.4285,-4.4285,-4.4285,-4.4285,-4.4285,-4.4285,-4.4285,-4.4409,-4.4717,-4.4779,-4.4902,-4.5208,-4.5208,-4.5208,-4.5208,-4.5159,-4.489,-4.4435,-4.4685,-4.4615,-4.4069,-4.4336,-4.4485,-4.4543,-4.4041,-4.3765,-4.3714,-4.3212,-4.2986,-4.2986,-4.2986,-4.2986,-4.2986,-4.2986,-4.2986,-4.2986,-4.2986,-4.2986,-4.2986,-4.2986,-4.2986,-4.2986,-3.3817,-3.4163,-3.4508,-3.4508,-3.4853,-3.5127,-3.5127,-3.5127,-3.5264,-3.5557,-3.5606,-3.5675,-3.5947,-3.6016,-3.6016,-3.6016,-3.6016,-3.6016,-3.6016,-3.6016,-3.6016,-3.6016,-3.6016,-3.6016,-3.6016,-3.6016,-3.6016,-3.6016,-3.6016,-3.6016,-3.6016,-3.6016,-3.6016,-3.6016,-3.6016,-3.6016,-3.6016,-3.6016,-3.6016,-3.6016,-3.6016,-3.6016,-3.6016,-3.6016,-3.6876,-3.8109,-3.8109,-3.9035,-4.0257,-4.0538,-4.0839,-4.129,-4.242,-4.2736,-4.2925,-4.3974,-4.4285,-4.4285,-4.4285,-4.4285,-4.4285,-4.4285,-4.4285,-4.4285,-4.4285,-4.4285,-4.4285,-4.4285,-4.4285,-4.4285,-4.4285,-4.4285,-4.4285,-4.4285,-4.4285,-4.4285,-4.4285,-4.4285,-4.4285,-4.4285,-4.4285,-4.4347,-4.4409,-4.4409,-4.4409,-4.4532,-4.4532,-4.4532,-4.4532,-4.4122,-4.3808,-4.3687,-4.366,-4.3433,-4.321,-4.3499,-4.3762,-4.3991,-4.3865,-4.3564,-4.3162,-4.3037,-4.2986,-4.2986,-4.2986,-4.2986,-4.2986,-4.2986,-4.2986,-4.2986,-4.2986,-4.2986,-4.2986,-4.2986,-4.2986,-4.2986,-3.3817,-3.4094,-3.437,-3.437,-3.4715,-3.4921,-3.4921,-3.5059,-3.5264,-3.547,-3.5626,-3.5811,-3.5947,-3.6016,-3.6016,-3.6016,-3.6016,-3.6016,-3.6016,-3.6016,-3.6016,-3.6016,-3.6016,-3.6016,-3.6016,-3.6016,-3.6016,-3.6016,-3.6016,-3.6016,-3.6016,-3.6016,-3.6016,-3.6016,-3.6016,-3.6016,-3.6016,-3.6016,-3.6016,-3.6016,-3.6016,-3.6016,-3.6016,-3.6016,-3.6491,-3.7059,-3.7059,-3.7975,-3.9233,-3.9233,-3.9605,-4.0473,-4.1847,-4.2293,-4.2546,-4.3912,-4.4285,-4.4285,-4.4285,-4.4285,-4.4285,-4.4285,-4.4285,-4.4285,-4.4285,-4.4285,-4.4285,-4.4285,-4.4285,-4.4285,-4.4285,-4.4285,-4.4285,-4.4285,-4.4285,-4.4285,-4.4285,-4.4285,-4.4285,-4.4285,-4.4285,-4.4285,-4.4285,-4.4285,-4.4285,-4.4285,-4.4045,-4.3901,-4.3901,-4.3433,-4.3048,-4.2784,-4.2791,-4.2613,-4.2274,-4.2643,-4.2903,-4.3187,-4.3357,-4.3263,-4.2986,-4.2986,-4.2986,-4.2986,-4.2986,-4.2986,-4.2986,-4.2986,-4.2986,-4.2986,-4.2986,-4.2986,-4.2986,-4.2986,-4.2986,-4.2986,-3.3817,-3.4094,-3.4301,-3.4301,-3.4508,-3.4715,-3.4715,-3.499,-3.5196,-3.5264,-3.5606,-3.5811,-3.5879,-3.5947,-3.6016,-3.6016,-3.6016,-3.6016,-3.6016,-3.6016,-3.6016,-3.6016,-3.6016,-3.6016,-3.6016,-3.6016,-3.6016,-3.6016,-3.6016,-3.6016,-3.6016,-3.6016,-3.6016,-3.6016,-3.6016,-3.6016,-3.6016,-3.6016,-3.6016,-3.6016,-3.6016,-3.6016,-3.6016,-3.6016,-3.6016,-3.6016,-3.6016,-3.6742,-3.7729,-3.7729,-3.8507,-3.9736,-4.1119,-4.1569,-4.1824,-4.3177,-4.3764,-4.3974,-4.3974,-4.4161,-4.4285,-4.4285,-4.4285,-4.4285,-4.4285,-4.4285,-4.4285,-4.4285,-4.4285,-4.4285,-4.4285,-4.4285,-4.4285,-4.4285,-4.4285,-4.4285,-4.4285,-4.4285,-4.4285,-4.4285,-4.4285,-4.4285,-4.4285,-4.4213,-4.4141,-4.4141,-4.3697,-4.3385,-4.3385,-4.2904,-4.2482,-4.199,-4.2161,-4.1986,-4.1606,-4.1915,-4.2199,-4.2513,-4.2874,-4.2986,-4.2986,-4.2986,-4.2986,-4.2986,-4.2986,-4.2986,-4.2986,-4.2986,-4.2986,-4.2986,-4.2986,-4.2986,-4.2986,-4.2986,-4.2986,-4.2986,-3.3817,-3.3817,-3.3886,-3.3886,-3.3955,-3.3955,-3.3955,-3.4024,-3.4163,-3.4508,-3.4853,-3.5196,-3.5538,-3.5811,-3.6016,-3.6016,-3.6016,-3.6016,-3.6016,-3.6016,-3.6016,-3.6016,-3.6016,-3.6016,-3.6016,-3.6016,-3.6016,-3.6016,-3.6016,-3.6016,-3.6016,-3.6016,-3.6016,-3.6016,-3.6016,-3.6016,-3.6016,-3.6016,-3.6016,-3.6016,-3.6016,-3.6016,-3.6016,-3.6016,-3.6016,-3.6016,-3.6016,-3.6152,-3.6287,-3.6287,-3.6423,-3.6809,-3.8242,-3.8705,-3.897,-4.0322,-4.1633,-4.2546,-4.2546,-4.3451,-4.4285,-4.4285,-4.4285,-4.4285,-4.4285,-4.4285,-4.4285,-4.4285,-4.4285,-4.4285,-4.4285,-4.4285,-4.4285,-4.4285,-4.4285,-4.4285,-4.4285,-4.4285,-4.4285,-4.4285,-4.4285,-4.4285,-4.4285,-4.3914,-4.3625,-4.3625,-4.3144,-4.2856,-4.2856,-4.2351,-4.2038,-4.1966,-4.1591,-4.1417,-4.1606,-4.1915,-4.2199,-4.2513,-4.2874,-4.2986,-4.2986,-4.2986,-4.2986,-4.2986,-4.2986,-4.2986,-4.2986,-4.2986,-4.2986,-4.2986,-4.2986,-4.2986,-4.2986,-4.2986,-4.2986,-4.2986,-3.3817,-3.3817,-3.3817,-3.3817,-3.3817,-3.3817,-3.3817,-3.4024,-3.4232,-3.437,-3.4715,-3.499,-3.5127,-3.547,-3.5743,-3.5743,-3.5879,-3.6016,-3.6016,-3.6016,-3.6016,-3.6016,-3.6016,-3.6016,-3.6016,-3.6016,-3.6016,-3.6016,-3.6016,-3.6016,-3.6016,-3.6016,-3.6016,-3.6016,-3.6016,-3.6016,-3.6016,-3.6016,-3.6016,-3.6016,-3.6016,-3.6016,-3.6016,-3.6016,-3.6016,-3.6016,-3.6016,-3.6016,-3.6016,-3.6016,-3.6016,-3.6219,-3.7662,-3.8109,-3.8374,-3.9823,-4.0668,-4.1119,-4.1119,-4.1569,-4.2016,-4.2016,-4.2016,-4.2206,-4.2988,-4.3177,-4.3389,-4.4161,-4.4285,-4.4285,-4.4285,-4.4285,-4.4285,-4.4285,-4.4285,-4.4285,-4.4285,-4.4285,-4.4285,-4.4285,-4.4285,-4.4165,-4.3853,-4.3649,-4.3385,-4.312,-4.2615,-4.2386,-4.2386,-4.1822,-4.1533,-4.1533,-4.1293,-4.1344,-4.1606,-4.172,-4.2086,-4.2513,-4.2625,-4.2793,-4.2986,-4.2986,-4.2986,-4.2986,-4.2986,-4.2986,-4.2986,-4.2986,-4.2986,-4.2986,-4.2986,-4.2986,-4.2986,-4.2986,-4.2986,-4.2986]}]]